[[[{"header":{"parameterUnit":"kt","parameterCategory":2,"dx":1,"dy":1,"la1":29.764190673828125,"la2":30.86408042907715,"lo1":-88.46762084960938,"lo2":-86.9344482421875,"nx":47,"ny":34,"refTime":"2022-10-30T00:00:00:Z","depth":"0","parameterNumber":2,"parameterNumberName":"U-component_of_CURRENTS"},"data":[0.0977,0.0155,0.0016,0.0464,0.1153,0.1596,0.1201,0.0502,0.0251,0.0251,0.0267,0.0294,0.0347,0.0395,0.0427,0.0427,0.0406,0.0406,0.055,0.0726,0.0726,0.0619,0.0443,0.023,0.0149,0.0123,0.008,-0.0005,-0.0384,-0.1041,-0.1009,-0.0214,-0.0432,-0.0667,-0.0422,-0.0406,-0.0166,-0.0043,-0.0037,-0.0075,-0.0053,0.0021,0.0133,0.0278,0.0422,0.0529,0.0545,0.1863,0.1671,0.1468,0.1516,0.142,0.087,0.031,0.0149,0.0187,0.023,0.0267,0.032,0.039,0.0443,0.047,0.0475,0.0459,0.0448,0.0507,0.0662,0.0796,0.0785,0.0662,0.0577,0.0497,0.0352,0.0166,-0.0091,-0.0128,0.0064,-0.0144,-0.0278,0.0144,-0.0064,-0.0481,-0.0352,-0.0304,-0.0347,-0.0384,-0.0406,-0.0416,-0.0443,-0.0475,-0.0497,-0.0529,-0.0609,-0.0705,0.0982,0.1404,0.1426,0.1041,0.055,0.031,0.023,0.0224,0.024,0.0262,0.0299,0.0347,0.0406,0.0448,0.0475,0.0486,0.0475,0.0475,0.0518,0.0614,0.0763,0.0908,0.0892,0.0742,0.063,0.0598,0.0438,0.0032,-0.0363,-0.0603,-0.0486,0.0021,0.0,0.0144,0.0384,-0.0149,-0.0481,-0.0416,-0.0342,-0.0288,-0.0155,-0.0149,-0.0272,-0.0459,-0.0715,-0.0993,-0.1244,0.0336,0.0523,0.0577,0.0486,0.0406,0.0368,0.0331,0.0304,0.0299,0.0304,0.0326,0.0347,0.0384,0.0416,0.0448,0.0464,0.0475,0.0491,0.0534,0.0603,0.0694,0.0796,0.0854,0.079,0.0689,0.0673,0.0694,0.0593,0.0342,0.0064,-0.0171,-0.0368,-0.0352,-0.0133,-0.0144,-0.0021,0.0091,-0.0432,-0.0854,-0.0683,-0.0294,-0.0043,0.0005,-0.0149,-0.0475,-0.0817,-0.1132,0.0203,0.0283,0.0358,0.0395,0.0395,0.0384,0.0368,0.0347,0.0331,0.0326,0.032,0.032,0.0331,0.0358,0.0395,0.0427,0.0448,0.047,0.0513,0.0566,0.0614,0.0651,0.0673,0.0694,0.0705,0.0731,0.0806,0.0918,0.0945,0.0806,0.0657,0.0614,0.0598,0.0406,0.0187,-0.0048,-0.0304,-0.0272,-0.0267,-0.063,-0.0678,-0.0251,0.0059,0.0096,-0.0133,-0.0395,-0.0673,0.0246,0.0278,0.0315,0.0342,0.0363,0.0379,0.0379,0.0368,0.0342,0.0315,0.0283,0.0262,0.0262,0.0283,0.0331,0.0368,0.039,0.0422,0.0459,0.0497,0.0523,0.0545,0.0582,0.0646,0.0715,0.0785,0.0865,0.0961,0.1068,0.1105,0.1078,0.1046,0.094,0.0796,0.0822,0.0635,0.0299,-0.0085,-0.0534,-0.0619,-0.0438,-0.023,-0.0011,0.0208,0.0171,-0.0032,-0.0304,0.0304,0.0315,0.0326,0.0331,0.0352,0.0368,0.0374,0.0358,0.031,0.0267,0.023,0.0219,0.0224,0.0251,0.0283,0.0304,0.0336,0.0374,0.0406,0.0432,0.0448,0.0486,0.0545,0.0635,0.0737,0.0828,0.0897,0.095,0.0988,0.1014,0.1025,0.1057,0.1062,0.1052,0.0993,0.087,0.0753,0.0486,0.0208,-0.0315,-0.0924,-0.1116,-0.0854,-0.023,0.0203,0.0182,-0.0037,0.0144,0.0214,0.0272,0.031,0.032,0.0326,0.0326,0.0304,0.0267,0.023,0.0214,0.0219,0.0246,0.0278,0.0294,0.031,0.032,0.0342,0.0368,0.0395,0.0432,0.0486,0.0561,0.0657,0.0769,0.0881,0.0956,0.0982,0.0988,0.0977,0.0966,0.0988,0.0988,0.0934,0.0929,0.0897,0.079,0.0737,0.0657,0.0288,-0.0406,-0.1308,-0.1762,-0.1495,-0.0737,-0.0112,-0.0123,-0.1041,-0.0988,-0.0721,-0.0224,0.0176,0.0304,0.0326,0.0315,0.0294,0.0278,0.0283,0.031,0.0336,0.0347,0.0347,0.0352,0.0363,0.0368,0.0379,0.0411,0.047,0.0539,0.0625,0.0737,0.0913,0.1078,0.1164,0.1175,0.1111,0.1025,0.0993,0.102,0.1036,0.094,0.0731,0.0603,0.0619,0.0657,0.0694,0.0641,0.0198,-0.0577,-0.1217,-0.1719,-0.158,-0.0844,-0.0539,-0.1719,-0.1751,-0.1265,-0.0529,0.0117,0.0411,0.0438,0.039,0.0352,0.0374,0.0427,0.047,0.0438,0.0363,0.0336,0.0374,0.0422,0.0443,0.0454,0.0475,0.0518,0.0582,0.0662,0.0769,0.0918,0.1078,0.1191,0.1239,0.1233,0.1164,0.1089,0.1062,0.1014,0.0828,0.0523,0.0288,0.023,0.0336,0.0497,0.0555,0.0539,0.039,-0.0016,-0.0486,-0.0908,-0.1116,-0.0998,-0.1634,-0.1436,-0.0737,0.0048,0.0667,0.0416,-0.0411,-0.0368,0.0117,0.0278,0.0123,-0.0448,-0.0742,-0.0278,0.0198,0.0374,0.0481,0.0513,0.0507,0.0502,0.0507,0.0529,0.0561,0.0587,0.0587,0.0635,0.0812,0.1025,0.1137,0.1111,0.1041,0.0998,0.095,0.079,0.0529,0.0299,0.0128,0.0032,0.0107,0.0342,0.0513,0.0539,0.0406,0.0406,0.0149,-0.0379,-0.0432,-0.094,-0.0619,0.0075,0.0085,-0.1127,-0.2264,-0.2018,-0.0929,-0.0502,-0.095,-0.1676,-0.1949,-0.1212,-0.0214,0.0299,0.0459,0.0502,0.0464,0.0432,0.0384,0.0331,0.0294,0.0294,0.0294,0.0267,0.0267,0.0336,0.0539,0.0801,0.0902,0.0828,0.0747,0.071,0.0657,0.0561,0.0416,0.0224,0.0032,-0.0091,-0.0059,0.0128,0.0326,0.0459,0.0555,0.0464,0.0144,-0.0192,-0.1239,-0.0251,0.0219,-0.0529,-0.1805,-0.2205,-0.1757,-0.1164,-0.1372,-0.1927,-0.181,-0.0972,-0.0411,0.0486,0.0977,0.0368,0.0128,0.0064,0.0176,0.0214,0.0166,0.0123,0.0139,0.0133,0.008,-0.0005,-0.0192,-0.0384,-0.0267,0.0011,0.0176,0.0256,0.0283,0.0315,0.0331,0.0304,0.0262,0.0139,-0.0053,-0.0198,-0.0187,-0.0059,0.0085,0.0224,0.0326,0.024,0.008,0,0,-0.0171,-0.118,-0.2024,-0.1789,-0.1265,-0.0358,-0.0459,-0.1436,-0.1313,-0.0934,0,0.1377,0.1714,0.0347,-0.0037,0.0021,0.0224,0.0267,0.0192,0.0037,-0.0059,-0.0139,-0.023,-0.0395,-0.0774,-0.1084,-0.1105,-0.1062,-0.0998,-0.0838,-0.0705,-0.0422,-0.0075,0.0053,0.0091,0.0133,0.0107,0.0011,-0.0117,-0.0203,-0.0267,-0.0304,-0.023,-0.0091,-0.023,-0.0085,0.0363,0.0256,-0.0539,-0.078,0,0,-0.0459,-0.189,-0.1901,0.0358,0.0347,0.0491,0.1949,0,0,0,0,0,0,0,0,-0.0171,-0.0459,-0.0502,-0.0464,-0.0731,-0.1121,-0.0806,-0.0374,-0.0187,-0.0101,-0.0571,-0.0774,-0.0881,-0.0892,-0.0448,-0.0075,0.0149,0.0144,0.0032,-0.0112,-0.0352,-0.0491,-0.0464,-0.0416,-0.0571,-0.016,-0.047,-0.0625,-0.1217,-0.1767,-0.0267,0.1644,0.0892,-0.0075,0,0,0,-0.0598,-0.2258,-0.362,-0.3278,-0.2349,-0.1895,-0.1377,-0.0459,0.0101,0,0,0,0,0,0,0,-0.0171,-0.0662,-0.1116,-0.1372,-0.158,-0.1084,-0.1169,-0.1938,-0.1682,-0.1009,-0.0731,-0.0715,-0.0427,-0.0208,-0.032,-0.0513,-0.0785,-0.086,-0.0689,-0.0982,-0.0368,0.0043,-0.0278,-0.0742,-0.095,-0.0646,-0.0139,-0.0571,-0.1308,-0.1591,-0.024,0.1458,0.0726,-0.0972,-0.1799,-0.1548,-0.1239,-0.1111,-0.0374,0.0288,0,0,0,0,0,0,0,0,0,0,0,0,-0.0422,-0.1361,-0.1906,-0.1351,-0.0667,-0.0785,-0.0625,-0.0299,-0.0315,-0.0208,-0.0235,-0.0502,-0.0812,-0.0977,0,-0.0059,0.0064,0.0363,0.0422,0.0368,0,0,0,0,0,0.0149,0.0865,-0.023,-0.213,-0.189,-0.0934,-0.0561,-0.0737,-0.0812,0,0,0,0,0,0,0,0,0,0,0,0,0,0,0,0,-0.1687,-0.118,0,0,0.0101,-0.0107,-0.0133,-0.0021,-0.0021,-0.0117,-0.0101,0,0,0,-0.0016,-0.0101,-0.0171,0,0,0,0,0,-0.0491,-0.2296,-0.3823,-0.3203,-0.1805,-0.0918,-0.0705,-0.0721,0,0,0,0,0,0,0,0,0,0,0,0,0,0,0,0,0,0,-0.3647,-0.4058,0,0,0,0,0,0,0,0.0411,0,0,0,0,0,0,0,0,0,0,0,-0.1111,-0.3209,-0.3892,-0.2963,-0.181,-0.0667,-0.0053,0,0,0,0,0,0,0,0,0,0,0,0,0,0,0,0,0,0,0,0,-0.2024,-0.166,0.0459,0.0192,0,0,0,0,0,0,0,0,0,0,0,0,0,0,0,0,-0.0753,-0.2232,-0.2899,-0.2573,-0.1778,-0.1244,0,0,0,0,0,0,0,0,0,0,0,0,0,0,0,0,0,0,0,0,0,0,-0.1132,-0.3129,-0.3652,-0.0822,0.1564,0.1474,0,0,0,0,0,0,0,0,0,0,0,0,0,0,-0.149,-0.2221,-0.275,-0.1922,-0.1367,0,0,0,0,0,0,0,0,0,0,0,0,0,0,0,0,0,0,0,0,0,0,0,0,0,0,0.0267,0.0534,0,0,0,0,0,0,0,0,0,0,0,0,0,0,-0.0673,-0.2456,-0.3209,-0.2253,-0.166,0,0,0,0,0,0,0,0,0,0,0,0,0,0,0,0,0,0,0,0,0,0,0,0,0,0,0,0,0,0,0,0,0,0,0,0,0,0,0,0,0,0,-0.0555,-0.2397,-0.3102,-0.1938,-0.1351,0,0,0,0,0,0,0,0,0,0,0,0,0,0,0,0,0,0,0,0,0,0,0,0,0,0,0,0,0,0,0,0,0,0,0,0,0,0,0,0,0,0,-0.0545,-0.1842,-0.2146,-0.1057,-0.0411,0,0,0,0,0,0,0,0,0,0,0,0,0,0,0,0,0,0,0,0,0,0,0,0,0,0,0,0,0,0,0,0,0,0,0,0,0,0,0,0,0,0,0,-0.0908,-0.0731,0.0534,0.0715,0,0,0,0,0,0,0,0,0,0,0,0,0,0,0,0,0,0,0,0,0,0,0,0,0,0,0,0,0,0,0,0,0,0,0,0,0,0,0,0,0,0,0,0.0705,0.1986,0.2365,0.2162,0,0,0,0,0,0,0,0,0,0,0,0,0,0,0,0,0,0,0,0,0,0,0,0,0,0,0,0,0,0,0,0,0,0,0,0,0,0,0,0,0,0,0,0,0.0801,0.1596,0,0,0,0,0,0,0,0,0,0,0,0,0,0,0,0,0,0,0,0,0,0,0,0,0,0,0,0,0,0,0,0,0,0,0,0,0,0,0,0,0,0,0,0,0,0,0,0,0,0,0,0,0,0,0,0,0,0,0,0,0,0,0,0,0,0,0,0,0,0,0,0,0,0,0,0,0,0,0,0,0,0,0,0,0,0,0,0,0,0,0,0,0,0,0,0,0,0,0,0,0,0,0,0,0,0,0,0,0,0,0,0,0,0,0,0,0,0,0,0,0,0,0,0,0,0,0,0,0,0,0,0,0,0,0,0,0,0,0,0,0,0,0,0,0,0,0,0,0,0,0,0,0,0,0,0,0,0,0,0,0,0,0,0,0,0,0,0,0,0,0,0,0,0,0,0,0,0,0,0,0,0,0,0,0,0,0,0,0,0,0,0,0,0,0,0,0,0,0,0,0,0,0,0,0,0,0,0,0,0,0,0,0,0,0,0,0,0,0,0,0,0,0,0,0,0,0,0,0,0,0,0,0,0,0,0,0,0,0,0,0,0,0,0,0,0,0,0,0,0,0,0,0,0,0,0,0,0,0,0,0,0,0,0,0,0,0,0,0,0,0,0,0,0,0,0,0,0,0,0,0,0,0,0,0,0,0,0,0,0,0,0,0,0,0,0,0,0,0,0,0,0,0,0,0,0,0,0,0,0,0,0,0]}],[{"header":{"parameterUnit":"kt","parameterCategory":2,"dx":1,"dy":1,"la1":29.764190673828125,"la2":30.86408042907715,"lo1":-88.46762084960938,"lo2":-86.9344482421875,"nx":47,"ny":34,"refTime":"2022-10-30T00:00:00:Z","depth":"0","parameterNumber":3,"parameterNumberName":"V-component_of_CURRENTS"},"data":[0.0475,0.0043,-0.0166,-0.0715,-0.1132,-0.11,-0.0651,-0.0219,-0.0101,-0.0107,-0.0091,-0.0064,-0.0091,-0.0139,-0.0171,-0.016,-0.0107,0.0064,0.0363,0.0577,0.0539,0.0203,-0.0214,-0.0443,-0.0667,-0.0977,-0.1292,-0.1559,-0.1383,-0.0731,-0.0096,-0.0801,-0.0945,-0.0352,-0.0187,-0.0064,0.0064,0.0166,0.0192,0.0192,0.0149,0.0048,-0.0075,-0.0182,-0.024,-0.0219,-0.0155,0.1399,0.0534,0.0101,-0.0352,-0.0678,-0.0481,-0.0288,-0.0171,-0.016,-0.0155,-0.0117,-0.008,-0.008,-0.0112,-0.0139,-0.0139,-0.0085,0.0027,0.0198,0.0438,0.0529,0.0427,0.0203,-0.0027,-0.0262,-0.0619,-0.0908,-0.0966,-0.094,-0.0961,-0.0854,-0.0667,-0.1009,-0.1014,-0.055,-0.016,-0.0133,-0.0139,-0.0128,-0.0085,-0.0059,-0.0128,-0.024,-0.0347,-0.04,-0.0384,-0.0331,0.1741,0.1308,0.0705,0.0123,-0.0198,-0.0176,-0.0166,-0.0182,-0.0192,-0.0182,-0.0149,-0.0112,-0.0085,-0.0101,-0.0128,-0.0133,-0.0091,-0.0011,0.0085,0.0208,0.0336,0.04,0.0395,0.0256,0.0117,-0.0091,-0.0299,-0.0374,-0.0529,-0.0844,-0.1356,-0.141,-0.1169,-0.1319,-0.1169,-0.0956,-0.0625,-0.0427,-0.0481,-0.0507,-0.0374,-0.0251,-0.0256,-0.0352,-0.0443,-0.0481,-0.0448,0.0972,0.1014,0.0689,0.0246,0.0069,-0.0043,-0.0117,-0.0166,-0.0182,-0.0187,-0.0171,-0.0139,-0.0107,-0.0107,-0.0128,-0.0144,-0.0112,-0.0053,0.0005,0.0069,0.0155,0.0256,0.0379,0.0363,0.0315,0.0272,0.0192,0.0101,-0.0133,-0.0646,-0.1255,-0.1815,-0.1746,-0.1463,-0.1618,-0.1543,-0.1607,-0.1506,-0.1308,-0.1073,-0.094,-0.0635,-0.0443,-0.0374,-0.0416,-0.0438,-0.0384,0.0432,0.047,0.039,0.0251,0.0139,0.0027,-0.0064,-0.0133,-0.0166,-0.0182,-0.0182,-0.0166,-0.0144,-0.0139,-0.0149,-0.0166,-0.0149,-0.0101,-0.0059,-0.0016,0.0048,0.0144,0.0272,0.0358,0.0368,0.0363,0.0352,0.0288,0.0107,-0.023,-0.0758,-0.1303,-0.157,-0.1725,-0.1564,-0.1361,-0.1746,-0.1805,-0.1917,-0.1869,-0.1666,-0.1217,-0.0731,-0.0464,-0.039,-0.0336,-0.0256,0.0363,0.0342,0.0304,0.024,0.0171,0.0069,-0.0032,-0.0112,-0.016,-0.0187,-0.0192,-0.0192,-0.0198,-0.0198,-0.0198,-0.0203,-0.0192,-0.0149,-0.0112,-0.0075,-0.0005,0.0091,0.0208,0.0299,0.0331,0.0336,0.032,0.0278,0.0155,-0.0048,-0.0326,-0.0769,-0.1223,-0.1388,-0.1308,-0.1137,-0.1175,-0.1212,-0.1682,-0.1922,-0.1917,-0.1746,-0.1068,-0.0416,-0.0336,-0.0278,-0.0187,0.0326,0.0288,0.0272,0.0235,0.0171,0.008,-0.0021,-0.0096,-0.0144,-0.0171,-0.0192,-0.0214,-0.024,-0.0251,-0.0246,-0.0246,-0.023,-0.0192,-0.0149,-0.0101,-0.0027,0.0069,0.0155,0.0224,0.0262,0.0272,0.0262,0.0224,0.0139,0.0005,-0.0171,-0.0545,-0.11,-0.1297,-0.1121,-0.0721,-0.0694,-0.095,-0.1377,-0.1559,-0.1751,-0.1831,-0.1324,-0.0358,0.0053,0.0117,0.0166,0.0149,0.0112,0.0149,0.0171,0.0139,0.0059,-0.0027,-0.0075,-0.0107,-0.0139,-0.0176,-0.0219,-0.0246,-0.0267,-0.0272,-0.0278,-0.0267,-0.024,-0.0187,-0.0128,-0.0048,0.0032,0.0096,0.0149,0.0192,0.0219,0.0219,0.0198,0.0139,0.0048,-0.0064,-0.0347,-0.0918,-0.1308,-0.1201,-0.0635,-0.0272,-0.0342,-0.0822,-0.1169,-0.1436,-0.1516,-0.1634,-0.1153,0.0101,0.0635,0.0566,-0.0278,-0.0406,-0.0486,-0.0411,-0.0128,0.0021,-0.0032,-0.0043,-0.0053,-0.0096,-0.0149,-0.0192,-0.0219,-0.024,-0.0262,-0.0288,-0.0288,-0.0272,-0.0224,-0.0166,-0.0096,-0.0027,0.0021,0.0048,0.0101,0.0171,0.0219,0.024,0.0203,0.0101,-0.0011,-0.0267,-0.0742,-0.1121,-0.1137,-0.0774,-0.0336,-0.0107,-0.0208,-0.0406,-0.0699,-0.0988,-0.1719,-0.2322,-0.1191,-0.0021,0.0144,-0.0454,-0.0828,-0.1265,-0.1324,-0.0785,-0.0085,0.0016,0.0037,0.0005,-0.0059,-0.0133,-0.016,-0.0144,-0.0187,-0.024,-0.031,-0.0294,-0.0278,-0.0251,-0.0208,-0.0155,-0.0101,-0.0075,-0.0085,-0.0075,0.0032,0.0171,0.0278,0.031,0.0224,0.0064,-0.0192,-0.0555,-0.0854,-0.0876,-0.0747,-0.0555,-0.0358,-0.0246,-0.0133,-0.0166,-0.0438,-0.0966,-0.2136,-0.2632,-0.1997,-0.1399,-0.0101,-0.0828,-0.1703,-0.1927,-0.1148,-0.0091,0.0005,-0.0149,-0.0064,-0.0048,0.0005,-0.0128,-0.0502,-0.0625,-0.0438,-0.0438,-0.0326,-0.0278,-0.0267,-0.0251,-0.0219,-0.0176,-0.0176,-0.0219,-0.0272,-0.024,-0.0112,0.0064,0.0235,0.0278,0.016,-0.0064,-0.0283,-0.0497,-0.0587,-0.0566,-0.0555,-0.0555,-0.0518,-0.0352,-0.0208,-0.0235,-0.0336,-0.1159,-0.2365,-0.2862,-0.2675,0.0166,-0.0577,-0.173,-0.2184,-0.1078,0.0032,-0.0523,-0.1116,-0.024,0.0363,0.0251,-0.0406,-0.1399,-0.2184,-0.1319,-0.0662,-0.0427,-0.0304,-0.0326,-0.032,-0.0304,-0.0267,-0.0278,-0.0299,-0.0363,-0.0459,-0.0481,-0.0358,-0.0091,0.0171,0.0224,0.0037,-0.0091,-0.0235,-0.031,-0.0315,-0.0374,-0.0497,-0.0603,-0.0619,-0.0427,-0.0278,-0.032,-0.0737,-0.1356,-0.1997,-0.2376,0.0166,-0.0384,-0.1116,-0.1863,-0.1185,-0.0315,-0.118,-0.2333,-0.1185,0.0849,0.0737,-0.0497,-0.1885,-0.4816,-0.2301,-0.0998,-0.0635,-0.0443,-0.0411,-0.0368,-0.0363,-0.0326,-0.0352,-0.032,-0.0379,-0.0555,-0.0705,-0.0731,-0.0646,-0.024,0.0,-0.0171,-0.0278,-0.0331,-0.0208,-0.0139,-0.0139,-0.031,-0.0534,-0.0651,-0.0582,-0.0432,-0.0464,-0.0753,-0.1068,-0.1292,-0.1543,0,0,-0.0021,-0.1356,-0.1484,-0.0705,-0.1351,-0.2755,-0.1954,-0.0352,-0.0838,-0.1634,0,-0.7843,-0.2595,-0.1212,-0.0769,-0.0555,-0.0454,-0.0368,-0.0374,-0.0336,-0.0374,-0.0203,-0.0246,-0.0497,-0.063,-0.0625,-0.0929,-0.0737,-0.047,-0.0678,-0.0833,-0.0908,-0.0534,-0.0182,-0.0075,-0.0171,-0.0416,-0.0577,-0.055,-0.0454,-0.0454,-0.0763,-0.1089,-0.1132,-0.1095,0.0139,0.0208,0.0705,-0.1377,-0.1933,0,0,-0.1698,-0.1111,-0.1634,-0.2808,-0.2979,-0.346,-0.7186,0,0,0,0,0,0,0,0,-0.0384,-0.0096,-0.0117,-0.0406,-0.0486,-0.0368,-0.0502,-0.0625,-0.0406,-0.0571,-0.0854,-0.1602,-0.1361,-0.0838,-0.0881,-0.0502,-0.0352,-0.0443,-0.0443,-0.0331,-0.0304,-0.0689,-0.1046,-0.1046,-0.078,0.0283,0.0486,0.0796,-0.0849,-0.1698,-0.0918,-0.1607,-0.1335,-0.1159,0,0,0,-0.6588,-0.4981,0.016,0.0529,0.0267,0.0085,-0.0123,-0.0379,-0.0069,0,0,0,0,0,0,0,-0.0085,-0.0315,-0.0107,-0.0192,-0.0534,-0.1805,-0.165,-0.1927,-0.291,-0.2349,-0.0566,-0.0529,-0.0689,-0.0326,-0.0187,-0.0481,-0.0913,-0.1095,-0.0844,0.0283,0.0037,0.0918,0.0224,-0.0486,-0.0774,-0.3214,-0.197,-0.1954,0.0,0.0,-0.1959,-0.4821,-0.4084,0.024,0.1009,0.023,0.0,-0.047,-0.1287,-0.0139,0,0,0,0,0,0,0,0,0,0,0,0,-0.173,-0.142,-0.2509,-0.41,-0.4517,-0.0796,-0.0614,-0.0956,-0.0571,-0.0235,-0.0235,-0.0411,-0.0876,-0.126,0,-0.047,0.1025,0.0262,0.016,-0.0838,0,0,0,0,0,-0.4512,-0.2883,-0.1692,-0.016,0.0315,-0.031,-0.0059,-0.0459,-0.1714,0,0,0,0,0,0,0,0,0,0,0,0,0,0,0,0,-0.3545,-0.3679,0,0,-0.0945,-0.0737,-0.031,-0.0133,0.0016,-0.0529,-0.0796,0,0,0,-0.0091,0.0096,-0.1965,0,0,0,0,0,-0.4314,-0.1922,-0.0176,-0.1212,-0.1191,-0.0849,-0.0053,-0.0224,0,0,0,0,0,0,0,0,0,0,0,0,0,0,0,0,0,0,-0.2173,-0.2077,0,0,0,0,0,0,0,-0.0128,0,0,0,0,0,0,0,0,0,0,0,-0.2888,-0.0849,-0.0518,-0.2226,-0.2664,-0.1847,-0.0155,0,0,0,0,0,0,0,0,0,0,0,0,0,0,0,0,0,0,0,0,-0.4154,-0.1682,-0.0881,-0.0849,0,0,0,0,0,0,0,0,0,0,0,0,0,0,0,0,-0.2013,-0.0037,-0.0368,-0.236,-0.3764,-0.3187,0,0,0,0,0,0,0,0,0,0,0,0,0,0,0,0,0,0,0,0,0,0,-0.3369,-0.1762,-0.1692,0.0,0.0016,0.0027,0,0,0,0,0,0,0,0,0,0,0,0,0,0,-0.1105,0.0545,-0.2061,-0.4666,-0.4325,0,0,0,0,0,0,0,0,0,0,0,0,0,0,0,0,0,0,0,0,0,0,0,0,0,0,0.0027,0.0048,0,0,0,0,0,0,0,0,0,0,0,0,0,0,-0.2365,0.1111,-0.1735,-0.5296,-0.5323,0,0,0,0,0,0,0,0,0,0,0,0,0,0,0,0,0,0,0,0,0,0,0,0,0,0,0,0,0,0,0,0,0,0,0,0,0,0,0,0,0,0,-0.2056,0.1137,-0.1313,-0.5419,-0.6049,0,0,0,0,0,0,0,0,0,0,0,0,0,0,0,0,0,0,0,0,0,0,0,0,0,0,0,0,0,0,0,0,0,0,0,0,0,0,0,0,0,0,-0.1746,0.0021,-0.094,-0.5067,-0.5814,0,0,0,0,0,0,0,0,0,0,0,0,0,0,0,0,0,0,0,0,0,0,0,0,0,0,0,0,0,0,0,0,0,0,0,0,0,0,0,0,0,0,0,-0.0166,-0.1634,-0.4704,-0.4704,0,0,0,0,0,0,0,0,0,0,0,0,0,0,0,0,0,0,0,0,0,0,0,0,0,0,0,0,0,0,0,0,0,0,0,0,0,0,0,0,0,0,0,0.071,-0.0731,-0.3732,-0.4047,0,0,0,0,0,0,0,0,0,0,0,0,0,0,0,0,0,0,0,0,0,0,0,0,0,0,0,0,0,0,0,0,0,0,0,0,0,0,0,0,0,0,0,0,0.0988,-0.2883,0,0,0,0,0,0,0,0,0,0,0,0,0,0,0,0,0,0,0,0,0,0,0,0,0,0,0,0,0,0,0,0,0,0,0,0,0,0,0,0,0,0,0,0,0,0,0,0,0,0,0,0,0,0,0,0,0,0,0,0,0,0,0,0,0,0,0,0,0,0,0,0,0,0,0,0,0,0,0,0,0,0,0,0,0,0,0,0,0,0,0,0,0,0,0,0,0,0,0,0,0,0,0,0,0,0,0,0,0,0,0,0,0,0,0,0,0,0,0,0,0,0,0,0,0,0,0,0,0,0,0,0,0,0,0,0,0,0,0,0,0,0,0,0,0,0,0,0,0,0,0,0,0,0,0,0,0,0,0,0,0,0,0,0,0,0,0,0,0,0,0,0,0,0,0,0,0,0,0,0,0,0,0,0,0,0,0,0,0,0,0,0,0,0,0,0,0,0,0,0,0,0,0,0,0,0,0,0,0,0,0,0,0,0,0,0,0,0,0,0,0,0,0,0,0,0,0,0,0,0,0,0,0,0,0,0,0,0,0,0,0,0,0,0,0,0,0,0,0,0,0,0,0,0,0,0,0,0,0,0,0,0,0,0,0,0,0,0,0,0,0,0,0,0,0,0,0,0,0,0,0,0,0,0,0,0,0,0,0,0,0,0,0,0,0,0,0,0,0,0,0,0,0,0,0,0,0,0,0,0,0,0,0]}]],[[{"header":{"parameterUnit":"kt","parameterCategory":2,"dx":1,"dy":1,"la1":29.764190673828125,"la2":30.86408042907715,"lo1":-88.46762084960938,"lo2":-86.9344482421875,"nx":47,"ny":34,"refTime":"2022-10-30T00:00:00:Z","depth":"2","parameterNumber":2,"parameterNumberName":"U-component_of_CURRENTS"},"data":[0.1052,0.0224,0.0085,0.0523,0.1207,0.165,0.1255,0.0555,0.0304,0.0304,0.032,0.0347,0.0395,0.0438,0.0464,0.0464,0.0438,0.0438,0.0582,0.0758,0.0758,0.0646,0.047,0.0256,0.0171,0.0139,0.0096,0.0016,-0.0358,-0.1009,-0.0977,-0.0182,-0.04,-0.0635,-0.039,-0.0368,-0.0128,-0.0011,0.0,-0.0037,-0.0021,0.0053,0.0166,0.031,0.0454,0.0555,0.0571,0.1933,0.1735,0.1532,0.1575,0.1474,0.0924,0.0363,0.0203,0.024,0.0278,0.032,0.0368,0.0432,0.0486,0.0507,0.0513,0.0491,0.0486,0.0539,0.0689,0.0822,0.0806,0.0689,0.0598,0.0513,0.0374,0.0182,-0.0075,-0.0107,0.0091,-0.0123,-0.0251,0.0176,-0.0032,-0.0448,-0.032,-0.0272,-0.0315,-0.0352,-0.0374,-0.0384,-0.0416,-0.0448,-0.0464,-0.0502,-0.0582,-0.0678,0.1036,0.1463,0.1479,0.1095,0.0603,0.0363,0.0278,0.0278,0.0288,0.031,0.0347,0.039,0.0448,0.0491,0.0513,0.0518,0.0507,0.0513,0.055,0.0646,0.079,0.0929,0.0913,0.0763,0.0646,0.0619,0.0454,0.0048,-0.0342,-0.0582,-0.0464,0.0048,0.0027,0.0171,0.0411,-0.0123,-0.0448,-0.0384,-0.031,-0.0256,-0.0128,-0.0117,-0.0246,-0.0432,-0.0689,-0.0966,-0.1217,0.0384,0.0571,0.063,0.0534,0.0448,0.0411,0.0374,0.0352,0.0342,0.0347,0.0363,0.039,0.0422,0.0454,0.0481,0.0502,0.0507,0.0523,0.0561,0.0635,0.0721,0.0817,0.0876,0.0817,0.0715,0.0694,0.0715,0.0609,0.0363,0.0091,-0.0149,-0.0347,-0.0331,-0.0107,-0.0117,0.0005,0.0117,-0.0406,-0.0828,-0.0657,-0.0267,-0.0016,0.0037,-0.0123,-0.0448,-0.079,-0.1111,0.0235,0.032,0.04,0.0438,0.0438,0.0427,0.0406,0.0384,0.0374,0.0363,0.0358,0.0358,0.0368,0.0395,0.0432,0.0464,0.0481,0.0502,0.0545,0.0593,0.0641,0.0678,0.0699,0.0715,0.0726,0.0753,0.0828,0.0934,0.0966,0.0828,0.0678,0.0635,0.0614,0.0422,0.0208,-0.0027,-0.0278,-0.0246,-0.024,-0.0603,-0.0651,-0.0224,0.0085,0.0117,-0.0107,-0.0374,-0.0651,0.0272,0.031,0.0352,0.0379,0.04,0.0416,0.0416,0.0406,0.0379,0.0352,0.032,0.0299,0.0299,0.032,0.0363,0.04,0.0422,0.0454,0.0491,0.0523,0.055,0.0571,0.0609,0.0667,0.0742,0.0806,0.0886,0.0982,0.1089,0.1132,0.1105,0.1062,0.0956,0.0812,0.0838,0.0651,0.032,-0.0064,-0.0507,-0.0598,-0.0416,-0.0208,0.0016,0.0235,0.0198,-0.0011,-0.0283,0.0326,0.0342,0.0352,0.0363,0.0379,0.04,0.0411,0.039,0.0347,0.0299,0.0267,0.0256,0.0262,0.0283,0.0315,0.0336,0.0368,0.04,0.0438,0.0459,0.0481,0.0513,0.0571,0.0662,0.0758,0.0849,0.0918,0.0972,0.1009,0.1036,0.1046,0.1073,0.1078,0.1068,0.1009,0.0892,0.0769,0.0507,0.023,-0.0294,-0.0897,-0.1089,-0.0828,-0.0203,0.023,0.0203,-0.0016,0.016,0.0235,0.0294,0.0331,0.0347,0.0358,0.0358,0.0336,0.0299,0.0267,0.0251,0.0256,0.0283,0.031,0.0326,0.0336,0.0352,0.0374,0.0395,0.0427,0.0464,0.0513,0.0587,0.0678,0.079,0.0902,0.0977,0.1004,0.1009,0.0998,0.0982,0.1004,0.1004,0.095,0.0945,0.0913,0.0812,0.0758,0.0678,0.0304,-0.0384,-0.1287,-0.1741,-0.1468,-0.071,-0.0091,-0.0101,-0.1014,-0.0961,-0.0699,-0.0203,0.0198,0.0331,0.0352,0.0347,0.0326,0.031,0.0315,0.0342,0.0363,0.0379,0.0379,0.0384,0.039,0.0395,0.0406,0.0443,0.0497,0.0566,0.0651,0.0763,0.0934,0.11,0.1185,0.1196,0.1132,0.1046,0.1014,0.1036,0.1052,0.0956,0.0747,0.0619,0.0635,0.0678,0.0715,0.0657,0.0219,-0.0555,-0.1196,-0.1698,-0.1554,-0.0822,-0.0523,-0.1676,-0.1709,-0.1233,-0.0507,0.0133,0.0427,0.0459,0.0416,0.0379,0.04,0.0454,0.0491,0.0459,0.039,0.0363,0.0406,0.0454,0.047,0.0481,0.0502,0.0545,0.0609,0.0683,0.079,0.094,0.11,0.1212,0.126,0.1255,0.1185,0.1111,0.1078,0.103,0.0844,0.0539,0.0304,0.0246,0.0358,0.0518,0.0577,0.0561,0.0411,0.0005,-0.0464,-0.0886,-0.1095,-0.0977,-0.1511,-0.134,-0.0699,0.0053,0.0673,0.0432,-0.0384,-0.0342,0.0144,0.0304,0.0155,-0.0374,-0.0667,-0.024,0.0224,0.04,0.0507,0.0539,0.0534,0.0529,0.0534,0.0555,0.0587,0.0614,0.0614,0.0662,0.0838,0.1052,0.1159,0.1137,0.1062,0.102,0.0966,0.0806,0.0545,0.0315,0.0144,0.0053,0.0123,0.0363,0.0534,0.0555,0.0427,0.0422,0.0166,-0.0363,-0.0422,-0.0769,-0.0481,0.0101,0.0075,-0.1068,-0.2098,-0.1847,-0.0844,-0.0459,-0.0881,-0.1479,-0.157,-0.0844,-0.0037,0.0352,0.0491,0.0529,0.0497,0.0464,0.0416,0.0358,0.032,0.0326,0.0326,0.0294,0.0288,0.0358,0.0561,0.0822,0.0924,0.0849,0.0769,0.0726,0.0673,0.0582,0.0432,0.0246,0.0053,-0.0075,-0.0043,0.0149,0.0347,0.0475,0.0566,0.0481,0.0155,-0.0182,-0.1084,-0.0208,0.0219,-0.0464,-0.1575,-0.1869,-0.142,-0.0982,-0.1217,-0.1586,-0.1319,-0.0326,0.0064,0.0726,0.1078,0.0432,0.0171,0.0112,0.0214,0.0246,0.0198,0.016,0.0171,0.0166,0.0107,0.0021,-0.0166,-0.0352,-0.0246,0.0037,0.0198,0.0278,0.0304,0.0336,0.0347,0.032,0.0278,0.0155,-0.0037,-0.0182,-0.0171,-0.0043,0.0101,0.024,0.0336,0.0251,0.0085,0,0,-0.0139,-0.0972,-0.1506,-0.1196,-0.071,0.0075,0.0037,-0.0593,-0.0497,-0.0192,0,0.1377,0.1863,0.0486,0.0005,0.0059,0.0262,0.0299,0.0219,0.0069,-0.0027,-0.0096,-0.0187,-0.0352,-0.0721,-0.1046,-0.1073,-0.103,-0.0966,-0.0806,-0.0673,-0.0395,-0.0059,0.0069,0.0107,0.0149,0.0123,0.0027,-0.0101,-0.0187,-0.0251,-0.0294,-0.0219,-0.008,-0.0224,-0.0123,0.0352,0.0326,-0.0171,-0.0203,0,0,-0.0085,-0.0673,-0.0208,0.1431,0.1607,0.205,0.3006,0,0,0,0,0,0,0,0,-0.0149,-0.04,-0.0448,-0.0422,-0.0646,-0.103,-0.0742,-0.0352,-0.0155,-0.0043,-0.0464,-0.0657,-0.0758,-0.0731,-0.0299,-0.0005,0.0171,0.016,0.0048,-0.0101,-0.0342,-0.0481,-0.0454,-0.0411,-0.0566,-0.0187,-0.0443,-0.0502,-0.0876,-0.126,-0.0048,0.1842,0.1634,0.0918,0,0,0,-0.0251,-0.1329,-0.2221,-0.1831,-0.1239,-0.1255,-0.1185,-0.0422,0.0128,0,0,0,0,0,0,0,-0.0149,-0.0598,-0.1046,-0.1276,-0.1345,-0.0763,-0.079,-0.1404,-0.1244,-0.0731,-0.0619,-0.0694,-0.0411,-0.0192,-0.031,-0.0502,-0.0774,-0.0854,-0.0678,-0.0956,-0.0363,0.0064,-0.016,-0.0278,0.0139,0.0603,0.1239,0.1682,0.0945,-0.0149,0.0737,0.1895,0.0918,-0.032,-0.0865,-0.0892,-0.0908,-0.0902,-0.0235,0.0326,0,0,0,0,0,0,0,0,0,0,0,0,-0.04,-0.0694,-0.0598,-0.0352,-0.0214,-0.0587,-0.0523,-0.0283,-0.0299,-0.0192,-0.0224,-0.0491,-0.0796,-0.0966,0,-0.008,0.0048,0.0368,0.0534,0.0582,0,0,0,0,0,0.0155,0.0833,-0.0064,-0.1692,-0.1479,-0.0694,-0.0422,-0.0443,-0.0379,0,0,0,0,0,0,0,0,0,0,0,0,0,0,0,0,0.0352,0.0555,0,0,0.0085,-0.0053,-0.0096,0.0021,0.0027,-0.0117,-0.0214,0,0,0,0.0,0.0021,0.0037,0,0,0,0,0,-0.0475,-0.1938,-0.3134,-0.2712,-0.1559,-0.0763,-0.0561,-0.0475,0,0,0,0,0,0,0,0,0,0,0,0,0,0,0,0,0,0,-0.1447,-0.2029,0,0,0,0,0,0,0,0.031,0,0,0,0,0,0,0,0,0,0,0,-0.0972,-0.2616,-0.3049,-0.2413,-0.1458,-0.0363,0.016,0,0,0,0,0,0,0,0,0,0,0,0,0,0,0,0,0,0,0,0,-0.1554,-0.1607,0.032,0.0747,0,0,0,0,0,0,0,0,0,0,0,0,0,0,0,0,-0.0539,-0.1554,-0.2045,-0.1901,-0.1164,-0.0582,0,0,0,0,0,0,0,0,0,0,0,0,0,0,0,0,0,0,0,0,0,0,-0.0721,-0.1377,-0.1468,-0.1127,-0.0101,0.0422,0,0,0,0,0,0,0,0,0,0,0,0,0,0,-0.1009,-0.1404,-0.1757,-0.1084,-0.0603,0,0,0,0,0,0,0,0,0,0,0,0,0,0,0,0,0,0,0,0,0,0,0,0,0,0,0.0037,0.0069,0,0,0,0,0,0,0,0,0,0,0,0,0,0,-0.0481,-0.1468,-0.1666,-0.1148,-0.0945,0,0,0,0,0,0,0,0,0,0,0,0,0,0,0,0,0,0,0,0,0,0,0,0,0,0,0,0,0,0,0,0,0,0,0,0,0,0,0,0,0,0,-0.0374,-0.1089,-0.0876,-0.0326,-0.0336,0,0,0,0,0,0,0,0,0,0,0,0,0,0,0,0,0,0,0,0,0,0,0,0,0,0,0,0,0,0,0,0,0,0,0,0,0,0,0,0,0,0,-0.0198,-0.0384,0.0272,0.0614,0.0304,0,0,0,0,0,0,0,0,0,0,0,0,0,0,0,0,0,0,0,0,0,0,0,0,0,0,0,0,0,0,0,0,0,0,0,0,0,0,0,0,0,0,0,0.0427,0.1036,0.0929,0.0641,0,0,0,0,0,0,0,0,0,0,0,0,0,0,0,0,0,0,0,0,0,0,0,0,0,0,0,0,0,0,0,0,0,0,0,0,0,0,0,0,0,0,0,0.0384,0.1009,0.0913,0.0582,0,0,0,0,0,0,0,0,0,0,0,0,0,0,0,0,0,0,0,0,0,0,0,0,0,0,0,0,0,0,0,0,0,0,0,0,0,0,0,0,0,0,0,0,0.0208,0.0411,0,0,0,0,0,0,0,0,0,0,0,0,0,0,0,0,0,0,0,0,0,0,0,0,0,0,0,0,0,0,0,0,0,0,0,0,0,0,0,0,0,0,0,0,0,0,0,0,0,0,0,0,0,0,0,0,0,0,0,0,0,0,0,0,0,0,0,0,0,0,0,0,0,0,0,0,0,0,0,0,0,0,0,0,0,0,0,0,0,0,0,0,0,0,0,0,0,0,0,0,0,0,0,0,0,0,0,0,0,0,0,0,0,0,0,0,0,0,0,0,0,0,0,0,0,0,0,0,0,0,0,0,0,0,0,0,0,0,0,0,0,0,0,0,0,0,0,0,0,0,0,0,0,0,0,0,0,0,0,0,0,0,0,0,0,0,0,0,0,0,0,0,0,0,0,0,0,0,0,0,0,0,0,0,0,0,0,0,0,0,0,0,0,0,0,0,0,0,0,0,0,0,0,0,0,0,0,0,0,0,0,0,0,0,0,0,0,0,0,0,0,0,0,0,0,0,0,0,0,0,0,0,0,0,0,0,0,0,0,0,0,0,0,0,0,0,0,0,0,0,0,0,0,0,0,0,0,0,0,0,0,0,0,0,0,0,0,0,0,0,0,0,0,0,0,0,0,0,0,0,0,0,0,0,0,0,0,0,0,0,0,0,0,0,0,0,0,0,0,0,0,0,0,0,0,0,0,0,0,0,0,0,0]}],[{"header":{"parameterUnit":"kt","parameterCategory":2,"dx":1,"dy":1,"la1":29.764190673828125,"la2":30.86408042907715,"lo1":-88.46762084960938,"lo2":-86.9344482421875,"nx":47,"ny":34,"refTime":"2022-10-30T00:00:00:Z","depth":"2","parameterNumber":3,"parameterNumberName":"V-component_of_CURRENTS"},"data":[0.0507,0.0075,-0.0139,-0.0683,-0.11,-0.1073,-0.0625,-0.0187,-0.0069,-0.0075,-0.0059,-0.0037,-0.0064,-0.0112,-0.0144,-0.0139,-0.0085,0.008,0.0379,0.0587,0.0545,0.0214,-0.0203,-0.0432,-0.0662,-0.0972,-0.1292,-0.1554,-0.1388,-0.0737,-0.0101,-0.0806,-0.095,-0.0363,-0.0203,-0.008,0.0048,0.0149,0.0176,0.0176,0.0133,0.0032,-0.0091,-0.0198,-0.0256,-0.0235,-0.0166,0.1436,0.0571,0.0133,-0.032,-0.0651,-0.0448,-0.0256,-0.0133,-0.0123,-0.0123,-0.0085,-0.0053,-0.0053,-0.0085,-0.0117,-0.0112,-0.0064,0.0043,0.0214,0.0448,0.0539,0.0432,0.0214,-0.0016,-0.0251,-0.0609,-0.0897,-0.0961,-0.094,-0.0961,-0.086,-0.0673,-0.1014,-0.1025,-0.0561,-0.0171,-0.0149,-0.0155,-0.0144,-0.0101,-0.0075,-0.0144,-0.0262,-0.0363,-0.0411,-0.0395,-0.0342,0.1778,0.134,0.0737,0.0155,-0.0166,-0.0139,-0.0128,-0.0149,-0.016,-0.0149,-0.0117,-0.0085,-0.0059,-0.0075,-0.0101,-0.0107,-0.0064,0.0011,0.0101,0.0224,0.0352,0.0411,0.0406,0.0267,0.0128,-0.008,-0.0288,-0.0358,-0.0518,-0.0833,-0.1356,-0.1404,-0.1175,-0.1329,-0.118,-0.0972,-0.0641,-0.0443,-0.0502,-0.0523,-0.0395,-0.0272,-0.0278,-0.0374,-0.0464,-0.0497,-0.0464,0.1009,0.1046,0.0721,0.0283,0.0107,-0.0005,-0.0085,-0.0133,-0.0149,-0.0155,-0.0139,-0.0112,-0.008,-0.008,-0.0101,-0.0117,-0.0085,-0.0027,0.0027,0.0091,0.0171,0.0272,0.0395,0.0374,0.0326,0.0288,0.0203,0.0117,-0.0117,-0.0635,-0.1244,-0.1805,-0.1741,-0.1463,-0.1623,-0.1554,-0.1623,-0.1522,-0.1324,-0.1089,-0.0961,-0.0657,-0.0464,-0.0395,-0.0438,-0.0459,-0.0406,0.047,0.0507,0.0427,0.0283,0.0176,0.0064,-0.0032,-0.0101,-0.0133,-0.0149,-0.0149,-0.0133,-0.0117,-0.0112,-0.0123,-0.0139,-0.0117,-0.0075,-0.0032,0.0005,0.0069,0.0166,0.0288,0.0374,0.0384,0.0379,0.0368,0.0304,0.0123,-0.0219,-0.0747,-0.1292,-0.1559,-0.1714,-0.1559,-0.1367,-0.1757,-0.1821,-0.1933,-0.1885,-0.1682,-0.1239,-0.0747,-0.0486,-0.0411,-0.0358,-0.0272,0.04,0.0379,0.0336,0.0272,0.0203,0.0107,0.0,-0.008,-0.0128,-0.0149,-0.0155,-0.016,-0.0166,-0.0166,-0.0166,-0.0171,-0.016,-0.0123,-0.0085,-0.0043,0.0021,0.0117,0.023,0.032,0.0352,0.0352,0.0342,0.0294,0.0171,-0.0032,-0.0315,-0.0758,-0.1217,-0.1377,-0.1303,-0.1132,-0.1175,-0.1223,-0.1692,-0.1933,-0.1933,-0.1762,-0.1084,-0.0438,-0.0358,-0.0294,-0.0208,0.0363,0.0326,0.031,0.0267,0.0203,0.0112,0.0016,-0.0059,-0.0107,-0.0133,-0.0155,-0.0176,-0.0203,-0.0214,-0.0208,-0.0214,-0.0198,-0.0166,-0.0123,-0.0075,0.0,0.0096,0.0182,0.0251,0.0288,0.0299,0.0283,0.0246,0.0155,0.0021,-0.0155,-0.0534,-0.1089,-0.1287,-0.1116,-0.0715,-0.0689,-0.095,-0.1383,-0.157,-0.1762,-0.1842,-0.134,-0.0374,0.0037,0.0101,0.0149,0.0192,0.016,0.0187,0.0214,0.0176,0.0091,0.0011,-0.0037,-0.0069,-0.0096,-0.0139,-0.0176,-0.0208,-0.023,-0.0235,-0.0246,-0.0235,-0.0208,-0.016,-0.0096,-0.0021,0.0064,0.0128,0.0176,0.0214,0.024,0.0246,0.0224,0.016,0.0064,-0.0048,-0.0331,-0.0908,-0.1292,-0.1196,-0.063,-0.0267,-0.0342,-0.0822,-0.1175,-0.1442,-0.1522,-0.1644,-0.1169,0.0085,0.0625,0.0555,-0.0219,-0.0347,-0.0432,-0.0358,-0.0085,0.0059,0.0011,-0.0005,-0.0011,-0.0053,-0.0112,-0.0155,-0.0187,-0.0208,-0.0224,-0.0256,-0.0256,-0.024,-0.0192,-0.0133,-0.0064,0.0,0.0048,0.0075,0.0123,0.0192,0.0246,0.0262,0.0224,0.0123,0.0011,-0.0251,-0.0726,-0.1105,-0.1121,-0.0763,-0.0326,-0.0101,-0.0208,-0.0406,-0.0694,-0.0988,-0.1725,-0.2328,-0.1201,-0.0037,0.0128,-0.0368,-0.0731,-0.1175,-0.1255,-0.0731,-0.0043,0.0053,0.0075,0.0043,-0.0021,-0.0096,-0.0128,-0.0112,-0.0149,-0.0214,-0.0283,-0.0262,-0.0246,-0.0219,-0.0176,-0.0123,-0.0069,-0.0048,-0.0059,-0.0048,0.0059,0.0198,0.0304,0.0331,0.0246,0.0085,-0.0166,-0.0534,-0.0838,-0.0854,-0.0726,-0.0545,-0.0347,-0.024,-0.0128,-0.016,-0.0438,-0.0966,-0.2136,-0.2638,-0.2007,-0.141,0.0075,-0.0651,-0.1532,-0.1847,-0.1095,-0.0043,0.0053,-0.0101,-0.0027,-0.0016,0.0048,-0.0053,-0.0416,-0.0566,-0.0406,-0.0411,-0.0299,-0.0246,-0.0235,-0.0219,-0.0187,-0.0144,-0.0139,-0.0182,-0.0235,-0.0208,-0.008,0.0091,0.0256,0.0299,0.0182,-0.0037,-0.0262,-0.0475,-0.0566,-0.0545,-0.0539,-0.0539,-0.0502,-0.0347,-0.0203,-0.0235,-0.0336,-0.1159,-0.2365,-0.2862,-0.268,0.0395,-0.0304,-0.1538,-0.2045,-0.0934,0.0182,-0.0331,-0.0924,-0.0182,0.0422,0.0368,-0.0112,-0.0956,-0.1858,-0.1249,-0.063,-0.0395,-0.0272,-0.0288,-0.0283,-0.0267,-0.023,-0.024,-0.0256,-0.0326,-0.0416,-0.0443,-0.0326,-0.0059,0.0198,0.0246,0.0064,-0.0064,-0.0208,-0.0288,-0.0294,-0.0352,-0.0475,-0.0593,-0.0603,-0.0416,-0.0272,-0.032,-0.0737,-0.1356,-0.1997,-0.2371,0.0481,-0.0011,-0.0828,-0.158,-0.0801,0.0187,-0.0593,-0.1805,-0.087,0.1036,0.1052,0.0101,-0.0956,-0.3631,-0.1858,-0.0934,-0.0593,-0.0406,-0.0368,-0.0326,-0.032,-0.0283,-0.031,-0.0278,-0.0336,-0.0513,-0.0662,-0.0689,-0.0609,-0.0203,0.0032,-0.0139,-0.0246,-0.0304,-0.0176,-0.0112,-0.0117,-0.0294,-0.0513,-0.0635,-0.0571,-0.0422,-0.0459,-0.0747,-0.1068,-0.1292,-0.1538,0,0,0.0262,-0.0849,-0.0769,0.0256,-0.0347,-0.1826,-0.1073,0.0694,0.0395,-0.0368,0,-0.6263,-0.1698,-0.1068,-0.0726,-0.0513,-0.0395,-0.0326,-0.0326,-0.0288,-0.0331,-0.016,-0.0192,-0.0454,-0.0577,-0.0582,-0.0881,-0.0689,-0.0422,-0.0635,-0.078,-0.086,-0.0497,-0.0155,-0.0048,-0.0144,-0.04,-0.0555,-0.0534,-0.0443,-0.0443,-0.0758,-0.1084,-0.1127,-0.1089,0.0192,0.0288,0.0961,-0.0881,-0.1212,0,0,-0.1078,-0.0304,0.0203,-0.0769,-0.1095,-0.2573,-0.6012,0,0,0,0,0,0,0,0,-0.0326,-0.0059,-0.0059,-0.0358,-0.04,-0.0262,-0.04,-0.0577,-0.0347,-0.0481,-0.0699,-0.1377,-0.1185,-0.0662,-0.0683,-0.0422,-0.0331,-0.0427,-0.0427,-0.0315,-0.0288,-0.0678,-0.1036,-0.1041,-0.0774,0.04,0.0614,0.0998,-0.0534,-0.1201,-0.0555,-0.0587,-0.024,0.031,0,0,0,-0.4955,-0.4095,0.0155,0.024,0.0347,0.0208,-0.0043,-0.0336,-0.0053,0,0,0,0,0,0,0,-0.0011,-0.0251,-0.0037,-0.0085,-0.0262,-0.1479,-0.1014,-0.1159,-0.2007,-0.1794,-0.0416,-0.0507,-0.0662,-0.0304,-0.0171,-0.0464,-0.0897,-0.1084,-0.0838,0.0416,0.0166,0.102,0.0363,-0.024,-0.0406,-0.1175,-0.0112,0.0432,0.0,0.0,-0.1644,-0.3652,-0.3385,0.031,0.0769,0.0454,0.0182,-0.0283,-0.0982,-0.0107,0,0,0,0,0,0,0,0,0,0,0,0,-0.165,-0.047,-0.1265,-0.2248,-0.276,-0.0448,-0.0529,-0.087,-0.0545,-0.0214,-0.0219,-0.0395,-0.0844,-0.1233,0,-0.0326,0.1111,0.0336,0.0363,-0.047,0,0,0,0,0,-0.3828,-0.2226,-0.1308,0.0128,0.0534,-0.008,0.0032,-0.024,-0.126,0,0,0,0,0,0,0,0,0,0,0,0,0,0,0,0,-0.2104,-0.213,0,0,-0.0614,-0.0662,-0.0256,-0.0101,0.0048,-0.0438,-0.071,0,0,0,-0.0011,0.0315,-0.1239,0,0,0,0,0,-0.3684,-0.1313,0.023,-0.0625,-0.0763,-0.0603,0.0043,0.0,0,0,0,0,0,0,0,0,0,0,0,0,0,0,0,0,0,0,-0.1281,-0.1586,0,0,0,0,0,0,0,-0.0069,0,0,0,0,0,0,0,0,0,0,0,-0.2435,-0.0246,0.0027,-0.1538,-0.2002,-0.1175,-0.0037,0,0,0,0,0,0,0,0,0,0,0,0,0,0,0,0,0,0,0,0,-0.3171,-0.1196,-0.0326,-0.0149,0,0,0,0,0,0,0,0,0,0,0,0,0,0,0,0,-0.1479,0.0342,0.0053,-0.1698,-0.2798,-0.1933,0,0,0,0,0,0,0,0,0,0,0,0,0,0,0,0,0,0,0,0,0,0,-0.2387,-0.0651,-0.0299,0.0,0.0283,0.0053,0,0,0,0,0,0,0,0,0,0,0,0,0,0,-0.0646,0.0886,-0.1297,-0.3284,-0.2728,0,0,0,0,0,0,0,0,0,0,0,0,0,0,0,0,0,0,0,0,0,0,0,0,0,0,0.0561,0.0107,0,0,0,0,0,0,0,0,0,0,0,0,0,0,-0.1831,0.1575,-0.0865,-0.3401,-0.3433,0,0,0,0,0,0,0,0,0,0,0,0,0,0,0,0,0,0,0,0,0,0,0,0,0,0,0,0,0,0,0,0,0,0,0,0,0,0,0,0,0,0,-0.1591,0.1698,-0.0646,-0.3273,-0.3775,0,0,0,0,0,0,0,0,0,0,0,0,0,0,0,0,0,0,0,0,0,0,0,0,0,0,0,0,0,0,0,0,0,0,0,0,0,0,0,0,0,0,-0.1276,0.1105,-0.0651,-0.2776,-0.33,0,0,0,0,0,0,0,0,0,0,0,0,0,0,0,0,0,0,0,0,0,0,0,0,0,0,0,0,0,0,0,0,0,0,0,0,0,0,0,0,0,0,0,0.055,-0.0662,-0.2125,-0.1975,0,0,0,0,0,0,0,0,0,0,0,0,0,0,0,0,0,0,0,0,0,0,0,0,0,0,0,0,0,0,0,0,0,0,0,0,0,0,0,0,0,0,0,0.0539,0.0251,-0.1821,-0.1137,0,0,0,0,0,0,0,0,0,0,0,0,0,0,0,0,0,0,0,0,0,0,0,0,0,0,0,0,0,0,0,0,0,0,0,0,0,0,0,0,0,0,0,0,0.1175,-0.1773,0,0,0,0,0,0,0,0,0,0,0,0,0,0,0,0,0,0,0,0,0,0,0,0,0,0,0,0,0,0,0,0,0,0,0,0,0,0,0,0,0,0,0,0,0,0,0,0,0,0,0,0,0,0,0,0,0,0,0,0,0,0,0,0,0,0,0,0,0,0,0,0,0,0,0,0,0,0,0,0,0,0,0,0,0,0,0,0,0,0,0,0,0,0,0,0,0,0,0,0,0,0,0,0,0,0,0,0,0,0,0,0,0,0,0,0,0,0,0,0,0,0,0,0,0,0,0,0,0,0,0,0,0,0,0,0,0,0,0,0,0,0,0,0,0,0,0,0,0,0,0,0,0,0,0,0,0,0,0,0,0,0,0,0,0,0,0,0,0,0,0,0,0,0,0,0,0,0,0,0,0,0,0,0,0,0,0,0,0,0,0,0,0,0,0,0,0,0,0,0,0,0,0,0,0,0,0,0,0,0,0,0,0,0,0,0,0,0,0,0,0,0,0,0,0,0,0,0,0,0,0,0,0,0,0,0,0,0,0,0,0,0,0,0,0,0,0,0,0,0,0,0,0,0,0,0,0,0,0,0,0,0,0,0,0,0,0,0,0,0,0,0,0,0,0,0,0,0,0,0,0,0,0,0,0,0,0,0,0,0,0,0,0,0,0,0,0,0,0,0,0,0,0,0,0,0,0,0,0,0,0,0,0]}]],[[{"header":{"parameterUnit":"kt","parameterCategory":2,"dx":1,"dy":1,"la1":29.764190673828125,"la2":30.86408042907715,"lo1":-88.46762084960938,"lo2":-86.9344482421875,"nx":47,"ny":34,"refTime":"2022-10-30T00:00:00:Z","depth":"4","parameterNumber":2,"parameterNumberName":"U-component_of_CURRENTS"},"data":[0.1164,0.0278,0.0117,0.0545,0.1223,0.166,0.1271,0.0571,0.0326,0.0326,0.0342,0.0368,0.0416,0.0454,0.0475,0.0475,0.0448,0.0454,0.0598,0.0774,0.0769,0.0657,0.0475,0.0262,0.0176,0.0144,0.0101,0.0021,-0.0352,-0.0998,-0.0961,-0.0171,-0.0384,-0.0619,-0.0374,-0.0352,-0.0112,0.0011,0.0016,-0.0021,0.0,0.0069,0.0182,0.0326,0.0464,0.0571,0.0587,0.205,0.1783,0.1564,0.1591,0.149,0.094,0.0379,0.0219,0.0256,0.0299,0.0336,0.039,0.0448,0.0497,0.0518,0.0523,0.0502,0.0497,0.0555,0.0699,0.0833,0.0817,0.0694,0.0603,0.0518,0.0374,0.0176,-0.0075,-0.0096,0.0101,-0.0107,-0.024,0.0187,-0.0021,-0.0438,-0.0304,-0.0256,-0.0299,-0.0336,-0.0358,-0.0368,-0.04,-0.0432,-0.0448,-0.0486,-0.0566,-0.0667,0.1095,0.1495,0.15,0.1111,0.0619,0.0379,0.0288,0.0288,0.0304,0.0326,0.0358,0.0406,0.0459,0.0502,0.0523,0.0529,0.0523,0.0523,0.0561,0.0657,0.0801,0.094,0.0918,0.0769,0.0657,0.0619,0.0448,0.0048,-0.0336,-0.0571,-0.0454,0.0059,0.0037,0.0187,0.0427,-0.0112,-0.0432,-0.0368,-0.0299,-0.0246,-0.0112,-0.0101,-0.023,-0.0416,-0.0673,-0.095,-0.1207,0.0406,0.0598,0.0651,0.0555,0.0464,0.0422,0.0384,0.0363,0.0352,0.0363,0.0379,0.04,0.0432,0.0464,0.0497,0.0513,0.0518,0.0534,0.0577,0.0646,0.0731,0.0828,0.0886,0.0822,0.0721,0.0694,0.0715,0.0614,0.0368,0.0101,-0.0139,-0.0336,-0.0326,-0.0101,-0.0107,0.0016,0.0128,-0.0395,-0.0817,-0.0646,-0.0256,-0.0005,0.0048,-0.0112,-0.0438,-0.078,-0.11,0.0246,0.0336,0.0416,0.0454,0.0454,0.0438,0.0416,0.0395,0.0384,0.0374,0.0374,0.0374,0.0384,0.0411,0.0448,0.0475,0.0491,0.0518,0.0555,0.0603,0.0651,0.0689,0.071,0.0726,0.0737,0.0758,0.0833,0.094,0.0977,0.0844,0.0694,0.0641,0.0614,0.0427,0.0214,-0.0016,-0.0262,-0.0235,-0.023,-0.0598,-0.0641,-0.0208,0.0101,0.0133,-0.0096,-0.0363,-0.0641,0.0283,0.032,0.0363,0.0395,0.0411,0.0427,0.0427,0.0411,0.039,0.0363,0.0336,0.0315,0.0315,0.0336,0.0379,0.0411,0.0438,0.0464,0.0502,0.0539,0.0561,0.0582,0.0619,0.0678,0.0747,0.0817,0.0892,0.0988,0.1095,0.1143,0.1111,0.1068,0.0961,0.0812,0.0838,0.0657,0.0326,-0.0053,-0.0497,-0.0587,-0.0406,-0.0192,0.0032,0.0246,0.0208,0.0,-0.0272,0.0326,0.0347,0.0363,0.0374,0.039,0.0411,0.0416,0.04,0.0358,0.0315,0.0283,0.0272,0.0278,0.0299,0.0326,0.0352,0.0379,0.0416,0.0448,0.0475,0.0491,0.0523,0.0582,0.0667,0.0769,0.0854,0.0924,0.0977,0.102,0.1041,0.1052,0.1078,0.1078,0.1068,0.1009,0.0892,0.0774,0.0513,0.024,-0.0288,-0.0892,-0.1078,-0.0812,-0.0192,0.024,0.0214,-0.0011,0.0166,0.0235,0.0299,0.0342,0.0358,0.0368,0.0368,0.0352,0.0315,0.0283,0.0267,0.0272,0.0294,0.032,0.0336,0.0347,0.0363,0.0384,0.0411,0.0438,0.0475,0.0529,0.0598,0.0689,0.0801,0.0908,0.0982,0.1014,0.102,0.1009,0.0988,0.1004,0.1004,0.095,0.0945,0.0918,0.0817,0.0763,0.0678,0.0304,-0.0384,-0.1276,-0.1725,-0.1452,-0.0694,-0.008,-0.0096,-0.0956,-0.0897,-0.0651,-0.0176,0.0214,0.0336,0.0363,0.0358,0.0342,0.0326,0.0331,0.0352,0.0374,0.0384,0.0384,0.039,0.04,0.0406,0.0422,0.0454,0.0507,0.0577,0.0657,0.0769,0.094,0.1105,0.1191,0.1201,0.1137,0.1057,0.102,0.1041,0.1052,0.0956,0.0747,0.0625,0.0641,0.0683,0.0721,0.0662,0.0224,-0.0545,-0.118,-0.1682,-0.1538,-0.0812,-0.0513,-0.1442,-0.1463,-0.1078,-0.0448,0.0144,0.0432,0.0464,0.0422,0.039,0.0411,0.0459,0.0491,0.0464,0.0395,0.0374,0.0411,0.0459,0.0481,0.0486,0.0513,0.0555,0.0614,0.0694,0.0796,0.095,0.1111,0.1217,0.1271,0.1265,0.1196,0.1116,0.1084,0.103,0.0844,0.0545,0.031,0.0251,0.0363,0.0523,0.0582,0.0571,0.0422,0.0021,-0.0454,-0.0876,-0.1078,-0.0966,-0.102,-0.0918,-0.0539,0.0048,0.0635,0.0475,-0.024,-0.024,0.0176,0.0326,0.0219,-0.0187,-0.0475,-0.0166,0.023,0.0406,0.0518,0.0545,0.0539,0.0534,0.0545,0.0566,0.0603,0.0625,0.0625,0.0673,0.0849,0.1062,0.1169,0.1148,0.1073,0.102,0.0966,0.0806,0.055,0.0326,0.0155,0.0059,0.0128,0.0368,0.0545,0.0566,0.0438,0.0438,0.0182,-0.039,-0.0464,0.0043,0.024,0.0304,-0.0021,-0.079,-0.1495,-0.1297,-0.0518,-0.0176,-0.0422,-0.0737,-0.0635,-0.0187,0.0187,0.0395,0.0502,0.0539,0.0513,0.0481,0.0432,0.0374,0.0342,0.0342,0.0342,0.031,0.0304,0.0374,0.0571,0.0828,0.0929,0.086,0.0769,0.0726,0.0678,0.0587,0.0443,0.0251,0.0059,-0.0069,-0.0037,0.0155,0.0352,0.0481,0.0571,0.0486,0.0166,-0.0182,-0.0123,0.0235,0.0347,-0.0198,-0.0774,-0.0678,-0.031,-0.0411,-0.0747,-0.0625,0.0005,0.0625,0.0555,0.087,0.1212,0.0715,0.0411,0.031,0.0304,0.0283,0.0224,0.0187,0.0192,0.0182,0.0128,0.0048,-0.0123,-0.0299,-0.0198,0.0064,0.0219,0.0299,0.0326,0.0347,0.0352,0.0326,0.0283,0.016,-0.0032,-0.0171,-0.0166,-0.0037,0.0107,0.024,0.0336,0.0251,0.0091,0,0,0.0011,-0.0203,-0.0176,-0.0123,0.047,0.1297,0.0977,0.0758,0.1057,0.1436,0,0.1201,0.1975,0.1089,0.0609,0.0464,0.0395,0.0326,0.0246,0.0171,0.0149,0.008,-0.0053,-0.0203,-0.0481,-0.0753,-0.0892,-0.0924,-0.086,-0.0673,-0.0529,-0.0304,-0.0032,0.0075,0.0107,0.0155,0.0128,0.0032,-0.0096,-0.0182,-0.0246,-0.0288,-0.0214,-0.008,-0.0224,-0.0107,0.039,0.0737,0.1078,0.1292,0,0,0.0251,0.0731,0.1292,0.1746,0.2146,0.3065,0.3732,0,0,0,0,0,0,0,0,-0.0027,-0.0112,-0.0171,-0.0155,-0.0246,-0.0518,-0.0416,-0.0203,0.0021,0.0267,-0.0016,-0.0294,-0.0502,-0.0486,-0.0107,0.0085,0.0182,0.0166,0.0053,-0.0091,-0.0331,-0.0475,-0.0454,-0.0411,-0.0566,-0.0448,-0.0219,0.0085,0.0352,0.0315,0.0379,0.0988,0.1959,0.2488,0,0,0,0.0411,0.0352,-0.023,-0.0464,-0.0326,-0.0107,-0.0171,0.0107,0.0416,0,0,0,0,0,0,0,-0.0144,-0.04,-0.0662,-0.0635,-0.0486,-0.0112,-0.0128,-0.0539,-0.0774,-0.0481,-0.0384,-0.0651,-0.04,-0.0187,-0.0304,-0.0497,-0.0774,-0.0854,-0.0678,-0.0587,-0.0288,0.0246,0.0336,0.0027,0.0235,0.0374,0.079,0.2216,0.3396,0.3727,0.3903,0.3246,0.1666,0.0892,0.0235,-0.0432,-0.0481,-0.0272,0.0027,0.016,0,0,0,0,0,0,0,0,0,0,0,0,0.0064,0.0507,0.0886,0.0678,0.0315,-0.0101,-0.0235,-0.0246,-0.0326,-0.0304,-0.0416,-0.0726,-0.0998,-0.1052,0,-0.0069,0.023,0.0534,0.0577,0.0689,0,0,0,0,0,0.0379,0.1164,0.103,0.0182,0.0069,0.0374,0.0342,0.0214,0.0224,0,0,0,0,0,0,0,0,0,0,0,0,0,0,0,0,0.1751,0.1965,0,0,-0.0043,-0.0224,-0.0224,-0.0091,0.0011,-0.0128,-0.0411,0,0,0,0.0053,0.0315,0.0523,0,0,0,0,0,-0.0368,-0.0769,-0.0924,-0.0806,-0.0144,0.0155,0.0021,0.0155,0,0,0,0,0,0,0,0,0,0,0,0,0,0,0,0,0,0,0.0619,0.0913,0,0,0,0,0,0,0,0.008,0,0,0,0,0,0,0,0,0,0,0,-0.0294,-0.0742,-0.0566,-0.0272,-0.0101,0.0037,-0.0016,0,0,0,0,0,0,0,0,0,0,0,0,0,0,0,0,0,0,0,0,-0.0422,-0.1025,-0.0523,0.0176,0,0,0,0,0,0,0,0,0,0,0,0,0,0,0,0,0.0091,0.0235,0.016,-0.0085,0.0069,0.0315,0,0,0,0,0,0,0,0,0,0,0,0,0,0,0,0,0,0,0,0,0,0,-0.0523,-0.0667,-0.0107,-0.0363,-0.0667,-0.055,0,0,0,0,0,0,0,0,0,0,0,0,0,0,0.0481,0.0609,0.0352,0.0187,0.016,0,0,0,0,0,0,0,0,0,0,0,0,0,0,0,0,0,0,0,0,0,0,0,0,0,0,-0.0294,-0.0587,0,0,0,0,0,0,0,0,0,0,0,0,0,0,0.0005,0.0481,0.0619,0.0128,-0.0021,0,0,0,0,0,0,0,0,0,0,0,0,0,0,0,0,0,0,0,0,0,0,0,0,0,0,0,0,0,0,0,0,0,0,0,0,0,0,0,0,0,0,-0.0198,0.0374,0.0918,0.0416,0.0149,0,0,0,0,0,0,0,0,0,0,0,0,0,0,0,0,0,0,0,0,0,0,0,0,0,0,0,0,0,0,0,0,0,0,0,0,0,0,0,0,0,0,0.0166,0.157,0.2248,0.1111,0.0486,0,0,0,0,0,0,0,0,0,0,0,0,0,0,0,0,0,0,0,0,0,0,0,0,0,0,0,0,0,0,0,0,0,0,0,0,0,0,0,0,0,0,0,0.0945,0.1516,0.0908,0.0673,0,0,0,0,0,0,0,0,0,0,0,0,0,0,0,0,0,0,0,0,0,0,0,0,0,0,0,0,0,0,0,0,0,0,0,0,0,0,0,0,0,0,0,-0.0432,-0.0304,-0.0171,-0.0587,0,0,0,0,0,0,0,0,0,0,0,0,0,0,0,0,0,0,0,0,0,0,0,0,0,0,0,0,0,0,0,0,0,0,0,0,0,0,0,0,0,0,0,0,-0.0101,-0.0203,0,0,0,0,0,0,0,0,0,0,0,0,0,0,0,0,0,0,0,0,0,0,0,0,0,0,0,0,0,0,0,0,0,0,0,0,0,0,0,0,0,0,0,0,0,0,0,0,0,0,0,0,0,0,0,0,0,0,0,0,0,0,0,0,0,0,0,0,0,0,0,0,0,0,0,0,0,0,0,0,0,0,0,0,0,0,0,0,0,0,0,0,0,0,0,0,0,0,0,0,0,0,0,0,0,0,0,0,0,0,0,0,0,0,0,0,0,0,0,0,0,0,0,0,0,0,0,0,0,0,0,0,0,0,0,0,0,0,0,0,0,0,0,0,0,0,0,0,0,0,0,0,0,0,0,0,0,0,0,0,0,0,0,0,0,0,0,0,0,0,0,0,0,0,0,0,0,0,0,0,0,0,0,0,0,0,0,0,0,0,0,0,0,0,0,0,0,0,0,0,0,0,0,0,0,0,0,0,0,0,0,0,0,0,0,0,0,0,0,0,0,0,0,0,0,0,0,0,0,0,0,0,0,0,0,0,0,0,0,0,0,0,0,0,0,0,0,0,0,0,0,0,0,0,0,0,0,0,0,0,0,0,0,0,0,0,0,0,0,0,0,0,0,0,0,0,0,0,0,0,0,0,0,0,0,0,0,0,0,0,0,0,0,0,0,0,0,0,0,0,0,0,0,0,0,0,0,0,0,0,0,0,0]}],[{"header":{"parameterUnit":"kt","parameterCategory":2,"dx":1,"dy":1,"la1":29.764190673828125,"la2":30.86408042907715,"lo1":-88.46762084960938,"lo2":-86.9344482421875,"nx":47,"ny":34,"refTime":"2022-10-30T00:00:00:Z","depth":"4","parameterNumber":3,"parameterNumberName":"V-component_of_CURRENTS"},"data":[0.0513,0.0075,-0.0133,-0.0678,-0.11,-0.1068,-0.0619,-0.0176,-0.0059,-0.0069,-0.0053,-0.0027,-0.0053,-0.0101,-0.0139,-0.0133,-0.008,0.0085,0.0379,0.0587,0.055,0.0214,-0.0198,-0.0427,-0.0657,-0.0966,-0.1287,-0.1554,-0.1388,-0.0737,-0.0101,-0.0812,-0.0956,-0.0374,-0.0208,-0.0085,0.0043,0.0139,0.0166,0.0166,0.0123,0.0021,-0.0096,-0.0208,-0.0262,-0.024,-0.0171,0.1436,0.0577,0.0139,-0.0315,-0.0646,-0.0438,-0.0246,-0.0123,-0.0112,-0.0112,-0.008,-0.0048,-0.0048,-0.008,-0.0112,-0.0107,-0.0059,0.0048,0.0214,0.0454,0.0534,0.0432,0.0214,-0.0011,-0.0246,-0.0598,-0.0892,-0.0956,-0.0934,-0.0961,-0.086,-0.0683,-0.1025,-0.103,-0.0571,-0.0182,-0.016,-0.0166,-0.0155,-0.0117,-0.0085,-0.0155,-0.0272,-0.0374,-0.0422,-0.04,-0.0347,0.1773,0.1345,0.0747,0.016,-0.0155,-0.0128,-0.0117,-0.0139,-0.0149,-0.0139,-0.0112,-0.008,-0.0059,-0.0075,-0.0096,-0.0101,-0.0059,0.0016,0.0107,0.023,0.0352,0.0411,0.0406,0.0267,0.0133,-0.0069,-0.0272,-0.0347,-0.0507,-0.0822,-0.1345,-0.1404,-0.118,-0.134,-0.1196,-0.0988,-0.0657,-0.0454,-0.0518,-0.0539,-0.0411,-0.0294,-0.0299,-0.039,-0.0475,-0.0507,-0.047,0.1014,0.1052,0.0726,0.0288,0.0117,0.0,-0.0075,-0.0123,-0.0139,-0.0144,-0.0133,-0.0107,-0.0075,-0.0075,-0.0096,-0.0107,-0.008,-0.0021,0.0037,0.0096,0.0176,0.0272,0.0395,0.0379,0.0331,0.0294,0.0219,0.0133,-0.0101,-0.0619,-0.1228,-0.1783,-0.173,-0.1463,-0.1634,-0.1564,-0.1639,-0.1532,-0.134,-0.1105,-0.0977,-0.0678,-0.0486,-0.0416,-0.0459,-0.0475,-0.0422,0.0481,0.0513,0.0432,0.0288,0.0182,0.0069,-0.0021,-0.0091,-0.0128,-0.0144,-0.0144,-0.0128,-0.0107,-0.0101,-0.0112,-0.0128,-0.0112,-0.0064,-0.0021,0.0016,0.008,0.0176,0.0299,0.0384,0.039,0.0384,0.0379,0.0315,0.0133,-0.0208,-0.0737,-0.1276,-0.1543,-0.1698,-0.1554,-0.1367,-0.1762,-0.1831,-0.1943,-0.1895,-0.1698,-0.1255,-0.0769,-0.0507,-0.0432,-0.0379,-0.0294,0.0411,0.0384,0.0342,0.0278,0.0208,0.0112,0.0011,-0.0075,-0.0117,-0.0139,-0.0144,-0.0149,-0.0149,-0.0149,-0.0149,-0.016,-0.0144,-0.0107,-0.0075,-0.0032,0.0032,0.0128,0.0246,0.0331,0.0363,0.0363,0.0347,0.0304,0.0182,-0.0027,-0.031,-0.0753,-0.1207,-0.1367,-0.1292,-0.1127,-0.1169,-0.1223,-0.1703,-0.1943,-0.1943,-0.1778,-0.11,-0.0454,-0.0374,-0.0315,-0.0224,0.0374,0.0336,0.0315,0.0272,0.0214,0.0117,0.0021,-0.0048,-0.0096,-0.0117,-0.0139,-0.016,-0.0182,-0.0192,-0.0192,-0.0198,-0.0182,-0.0149,-0.0112,-0.0059,0.0011,0.0107,0.0192,0.0262,0.0299,0.031,0.0294,0.0256,0.0166,0.0032,-0.0149,-0.0529,-0.1078,-0.1276,-0.1105,-0.071,-0.0683,-0.0945,-0.1388,-0.1575,-0.1767,-0.1853,-0.1356,-0.039,0.0021,0.0091,0.0133,0.0214,0.0176,0.0208,0.0224,0.0187,0.0107,0.0021,-0.0021,-0.0048,-0.008,-0.0117,-0.0155,-0.0187,-0.0208,-0.0219,-0.023,-0.0219,-0.0192,-0.0144,-0.0085,-0.0011,0.0075,0.0133,0.0187,0.0224,0.0251,0.0251,0.0235,0.0171,0.0075,-0.0037,-0.032,-0.0897,-0.1281,-0.1185,-0.0625,-0.0267,-0.0336,-0.0817,-0.1169,-0.1436,-0.1522,-0.165,-0.1185,0.0069,0.0609,0.0545,-0.0128,-0.0246,-0.0342,-0.0304,-0.0059,0.0075,0.0027,0.0016,0.0011,-0.0032,-0.0091,-0.0139,-0.0171,-0.0192,-0.0214,-0.024,-0.024,-0.0224,-0.0182,-0.0123,-0.0053,0.0011,0.0059,0.008,0.0128,0.0198,0.0251,0.0272,0.0235,0.0133,0.0021,-0.024,-0.0715,-0.1095,-0.1111,-0.0753,-0.032,-0.0101,-0.0203,-0.04,-0.0689,-0.0982,-0.1719,-0.2333,-0.1212,-0.0048,0.0117,-0.0112,-0.0416,-0.0865,-0.1046,-0.0667,-0.0027,0.0064,0.0091,0.0064,-0.0005,-0.0085,-0.0117,-0.0101,-0.0139,-0.0203,-0.0272,-0.0251,-0.0235,-0.0208,-0.0166,-0.0117,-0.0064,-0.0037,-0.0048,-0.0037,0.0064,0.0208,0.031,0.0336,0.0251,0.0091,-0.0155,-0.0523,-0.0822,-0.0838,-0.0715,-0.0529,-0.0336,-0.023,-0.0123,-0.0155,-0.0432,-0.0961,-0.2125,-0.2632,-0.2018,-0.142,0.0368,-0.0182,-0.1004,-0.1452,-0.0956,0.0048,0.016,-0.0016,-0.0005,0.0011,0.0075,0.0043,-0.0224,-0.0432,-0.0395,-0.04,-0.0294,-0.024,-0.0224,-0.0208,-0.0176,-0.0133,-0.0123,-0.0166,-0.0219,-0.0187,-0.0064,0.0101,0.0267,0.0304,0.0187,-0.0032,-0.0246,-0.0459,-0.0545,-0.0529,-0.0518,-0.0523,-0.0491,-0.0336,-0.0198,-0.0235,-0.0336,-0.1143,-0.2333,-0.2814,-0.2696,0.0833,0.031,-0.078,-0.149,-0.0534,0.0464,0.0117,-0.0459,0.0053,0.0486,0.0545,0.0315,-0.0182,-0.1137,-0.1014,-0.0614,-0.0384,-0.0256,-0.0267,-0.0262,-0.024,-0.0203,-0.0214,-0.023,-0.0294,-0.0384,-0.0416,-0.0299,-0.0037,0.0208,0.0256,0.0069,-0.0053,-0.0192,-0.0272,-0.0272,-0.0336,-0.0459,-0.0577,-0.0593,-0.0411,-0.0267,-0.0315,-0.0737,-0.1351,-0.1927,-0.228,0.1095,0.071,0.0016,-0.078,-0.0091,0.0844,0.0352,-0.0705,-0.016,0.0934,0.1084,0.0069,0.0192,-0.1794,-0.1095,-0.0753,-0.0459,-0.0256,-0.0283,-0.0288,-0.0283,-0.024,-0.0262,-0.0246,-0.0294,-0.0448,-0.0587,-0.0593,-0.0513,-0.0155,0.0059,-0.0101,-0.0208,-0.0278,-0.016,-0.0096,-0.0107,-0.0278,-0.0502,-0.0625,-0.0561,-0.0416,-0.0454,-0.0742,-0.1062,-0.1292,-0.1522,0,0,0.1116,0.0128,-0.0005,0.1014,0.0422,-0.0262,0.0198,0.0908,0.0593,-0.0101,0,-0.3251,-0.0747,-0.0625,-0.0422,-0.0187,-0.0224,-0.0278,-0.0278,-0.023,-0.0192,-0.0091,-0.0123,-0.032,-0.039,-0.0352,-0.0646,-0.0571,-0.0315,-0.0481,-0.0593,-0.0689,-0.0427,-0.0139,-0.0037,-0.0133,-0.0384,-0.0545,-0.0523,-0.0432,-0.0438,-0.0753,-0.1078,-0.1121,-0.1089,0.0117,0.0133,0.1714,-0.0128,-0.0096,0,0,-0.0742,0.0,0.1185,0.0294,0.047,-0.0561,-0.3278,0,0,0,0,0,0,0,0,-0.0112,0.0048,0.0027,-0.0171,-0.0182,-0.0053,-0.016,-0.0352,-0.0139,-0.0176,-0.024,-0.0758,-0.0742,-0.0294,-0.0331,-0.0304,-0.0315,-0.0416,-0.0411,-0.0304,-0.0283,-0.0667,-0.1025,-0.103,-0.0763,0.0406,0.0448,0.1554,-0.0304,-0.0598,-0.0705,0.0037,-0.0208,0.0315,0,0,0,-0.1276,-0.1709,-0.0149,-0.0838,-0.0737,-0.0331,-0.0171,-0.0016,0.0096,0,0,0,0,0,0,0,0.0139,-0.0214,0.008,0.0272,0.0288,-0.0646,-0.0171,-0.0123,-0.0603,-0.0876,-0.0288,-0.0454,-0.0635,-0.0294,-0.016,-0.0454,-0.0876,-0.1052,-0.079,0.0577,0.023,0.1036,0.0235,-0.0721,-0.118,0.0075,0.0662,0.1196,0.0,0.0,-0.1036,-0.0731,-0.11,-0.0166,-0.0667,-0.0715,-0.0208,-0.0224,-0.0214,0.0187,0,0,0,0,0,0,0,0,0,0,0,0,-0.0523,0.0294,0.0246,-0.0133,-0.0667,-0.0411,-0.023,-0.0545,-0.0384,-0.0107,-0.0128,-0.0352,-0.0763,-0.094,0,-0.016,0.0833,0.0352,-0.0224,-0.0849,0,0,0,0,0,-0.213,-0.055,-0.0278,0.0326,0.0342,-0.0235,0.023,-0.0117,-0.031,0,0,0,0,0,0,0,0,0,0,0,0,0,0,0,0,-0.0459,-0.0027,0,0,-0.031,-0.0411,-0.008,-0.0016,-0.0032,-0.0464,-0.0502,0,0,0,0.0187,-0.0187,-0.0753,0,0,0,0,0,-0.2077,-0.0539,0.0518,0.0374,0.0149,-0.0288,0.0187,-0.0117,0,0,0,0,0,0,0,0,0,0,0,0,0,0,0,0,0,0,0.0283,-0.032,0,0,0,0,0,0,0,-0.0107,0,0,0,0,0,0,0,0,0,0,0,-0.1276,0.0005,0.0133,-0.0379,-0.0208,-0.0091,0.0149,0,0,0,0,0,0,0,0,0,0,0,0,0,0,0,0,0,0,0,0,-0.0641,-0.063,-0.0075,0.0208,0,0,0,0,0,0,0,0,0,0,0,0,0,0,0,0,-0.0342,0.0208,-0.0529,-0.0753,-0.0662,-0.0246,0,0,0,0,0,0,0,0,0,0,0,0,0,0,0,0,0,0,0,0,0,0,-0.126,-0.0149,0.0416,0.0,-0.0144,0.0032,0,0,0,0,0,0,0,0,0,0,0,0,0,0,0.0219,0.0214,-0.0662,-0.1073,-0.0545,0,0,0,0,0,0,0,0,0,0,0,0,0,0,0,0,0,0,0,0,0,0,0,0,0,0,-0.0294,0.0064,0,0,0,0,0,0,0,0,0,0,0,0,0,0,-0.0101,0.1121,-0.0715,-0.1367,-0.063,0,0,0,0,0,0,0,0,0,0,0,0,0,0,0,0,0,0,0,0,0,0,0,0,0,0,0,0,0,0,0,0,0,0,0,0,0,0,0,0,0,0,0.032,0.1223,-0.0924,-0.1628,-0.0288,0,0,0,0,0,0,0,0,0,0,0,0,0,0,0,0,0,0,0,0,0,0,0,0,0,0,0,0,0,0,0,0,0,0,0,0,0,0,0,0,0,0,0.0881,0.1522,-0.0715,-0.1377,0.0016,0,0,0,0,0,0,0,0,0,0,0,0,0,0,0,0,0,0,0,0,0,0,0,0,0,0,0,0,0,0,0,0,0,0,0,0,0,0,0,0,0,0,0,0.0758,-0.0091,-0.0545,0.0577,0,0,0,0,0,0,0,0,0,0,0,0,0,0,0,0,0,0,0,0,0,0,0,0,0,0,0,0,0,0,0,0,0,0,0,0,0,0,0,0,0,0,0,-0.0448,0.0075,0.0069,0.1105,0,0,0,0,0,0,0,0,0,0,0,0,0,0,0,0,0,0,0,0,0,0,0,0,0,0,0,0,0,0,0,0,0,0,0,0,0,0,0,0,0,0,0,0,-0.0011,0.0224,0,0,0,0,0,0,0,0,0,0,0,0,0,0,0,0,0,0,0,0,0,0,0,0,0,0,0,0,0,0,0,0,0,0,0,0,0,0,0,0,0,0,0,0,0,0,0,0,0,0,0,0,0,0,0,0,0,0,0,0,0,0,0,0,0,0,0,0,0,0,0,0,0,0,0,0,0,0,0,0,0,0,0,0,0,0,0,0,0,0,0,0,0,0,0,0,0,0,0,0,0,0,0,0,0,0,0,0,0,0,0,0,0,0,0,0,0,0,0,0,0,0,0,0,0,0,0,0,0,0,0,0,0,0,0,0,0,0,0,0,0,0,0,0,0,0,0,0,0,0,0,0,0,0,0,0,0,0,0,0,0,0,0,0,0,0,0,0,0,0,0,0,0,0,0,0,0,0,0,0,0,0,0,0,0,0,0,0,0,0,0,0,0,0,0,0,0,0,0,0,0,0,0,0,0,0,0,0,0,0,0,0,0,0,0,0,0,0,0,0,0,0,0,0,0,0,0,0,0,0,0,0,0,0,0,0,0,0,0,0,0,0,0,0,0,0,0,0,0,0,0,0,0,0,0,0,0,0,0,0,0,0,0,0,0,0,0,0,0,0,0,0,0,0,0,0,0,0,0,0,0,0,0,0,0,0,0,0,0,0,0,0,0,0,0,0,0,0,0,0,0,0,0,0,0,0,0,0,0,0,0,0,0]}]],[[{"header":{"parameterUnit":"kt","parameterCategory":2,"dx":1,"dy":1,"la1":29.764190673828125,"la2":30.86408042907715,"lo1":-88.46762084960938,"lo2":-86.9344482421875,"nx":47,"ny":34,"refTime":"2022-10-30T00:00:00:Z","depth":"6","parameterNumber":2,"parameterNumberName":"U-component_of_CURRENTS"},"data":[0.1751,0.0812,0.0304,0.0566,0.1228,0.166,0.1271,0.0577,0.0331,0.0331,0.0352,0.0384,0.0427,0.0459,0.0481,0.0481,0.0454,0.0459,0.0603,0.078,0.078,0.0667,0.0481,0.0262,0.0176,0.0144,0.0096,0.0016,-0.0347,-0.0988,-0.095,-0.016,-0.0379,-0.0614,-0.0363,-0.0342,-0.0101,0.0021,0.0027,-0.0011,0.0011,0.008,0.0192,0.0331,0.0475,0.0577,0.0593,0.2226,0.2088,0.1725,0.1628,0.1495,0.0945,0.0384,0.023,0.0262,0.031,0.0347,0.04,0.0459,0.0502,0.0523,0.0523,0.0507,0.0502,0.0561,0.071,0.0844,0.0822,0.0699,0.0603,0.0518,0.0374,0.0171,-0.008,-0.0096,0.0107,-0.0101,-0.023,0.0192,-0.0011,-0.0427,-0.0299,-0.0246,-0.0288,-0.0326,-0.0347,-0.0363,-0.039,-0.0422,-0.0438,-0.0475,-0.0561,-0.0662,0.1522,0.1906,0.1698,0.1143,0.063,0.0384,0.0294,0.0294,0.031,0.0336,0.0368,0.0416,0.047,0.0507,0.0529,0.0534,0.0529,0.0529,0.0571,0.0662,0.0806,0.0945,0.0924,0.0769,0.0657,0.0619,0.0443,0.0043,-0.0336,-0.0566,-0.0443,0.0064,0.0048,0.0192,0.0432,-0.0101,-0.0427,-0.0363,-0.0294,-0.024,-0.0107,-0.0096,-0.0219,-0.0406,-0.0662,-0.094,-0.1196,0.0443,0.063,0.0662,0.0561,0.047,0.0427,0.039,0.0368,0.0358,0.0368,0.0384,0.0411,0.0443,0.0475,0.0502,0.0518,0.0529,0.0545,0.0582,0.0651,0.0737,0.0833,0.0886,0.0828,0.0726,0.0699,0.0715,0.0614,0.0374,0.0107,-0.0133,-0.0331,-0.032,-0.0096,-0.0096,0.0027,0.0133,-0.039,-0.0812,-0.0646,-0.0251,0.0005,0.0059,-0.0101,-0.0432,-0.0769,-0.1089,0.0251,0.0342,0.0422,0.0459,0.0459,0.0438,0.0422,0.04,0.0384,0.0379,0.0379,0.0379,0.039,0.0416,0.0454,0.0481,0.0502,0.0523,0.0561,0.0614,0.0657,0.0694,0.0715,0.0731,0.0742,0.0758,0.0833,0.0945,0.0982,0.0849,0.0699,0.0646,0.0609,0.0422,0.0219,-0.0011,-0.0256,-0.0224,-0.023,-0.0593,-0.0635,-0.0203,0.0112,0.0139,-0.0091,-0.0358,-0.0635,0.0283,0.0326,0.0368,0.04,0.0416,0.0427,0.0427,0.0416,0.0395,0.0368,0.0342,0.032,0.032,0.0347,0.039,0.0422,0.0443,0.0475,0.0513,0.0545,0.0566,0.0587,0.0625,0.0683,0.0753,0.0822,0.0892,0.0993,0.11,0.1148,0.1116,0.1068,0.0956,0.0806,0.0833,0.0651,0.0326,-0.0048,-0.0486,-0.0582,-0.0406,-0.0192,0.0037,0.0251,0.0208,0.0,-0.0272,0.0326,0.0347,0.0363,0.0379,0.0395,0.0416,0.0422,0.0406,0.0368,0.0326,0.0294,0.0278,0.0288,0.031,0.0336,0.0358,0.0384,0.0422,0.0459,0.0481,0.0502,0.0534,0.0587,0.0673,0.0769,0.086,0.0929,0.0977,0.102,0.1046,0.1057,0.1078,0.1068,0.1057,0.1004,0.0892,0.0774,0.0518,0.024,-0.0288,-0.0892,-0.1068,-0.0796,-0.0182,0.0246,0.0214,-0.0005,0.0166,0.024,0.0304,0.0342,0.0358,0.0368,0.0374,0.0358,0.0326,0.0294,0.0278,0.0283,0.0304,0.0326,0.0342,0.0358,0.0368,0.039,0.0416,0.0448,0.0481,0.0534,0.0603,0.0694,0.0801,0.0913,0.0988,0.1014,0.102,0.1009,0.0988,0.1004,0.0998,0.0945,0.094,0.0913,0.0817,0.0763,0.0678,0.0304,-0.0384,-0.1276,-0.1714,-0.1436,-0.0683,-0.0069,-0.0091,-0.0806,-0.0731,-0.0534,-0.0133,0.0224,0.0342,0.0374,0.0368,0.0352,0.0336,0.0342,0.0363,0.0379,0.039,0.039,0.0395,0.0406,0.0411,0.0427,0.0459,0.0513,0.0582,0.0662,0.0769,0.094,0.1105,0.1196,0.1207,0.1143,0.1057,0.102,0.1041,0.1046,0.0945,0.0742,0.0625,0.0646,0.0689,0.0726,0.0667,0.0224,-0.0534,-0.1169,-0.1671,-0.1527,-0.0801,-0.0502,-0.1014,-0.1025,-0.079,-0.0331,0.0166,0.0432,0.047,0.0427,0.0395,0.0416,0.0459,0.0497,0.0464,0.0395,0.0374,0.0416,0.0464,0.0481,0.0491,0.0518,0.0561,0.0619,0.0694,0.0796,0.095,0.1111,0.1223,0.1271,0.1265,0.1196,0.1116,0.1078,0.1025,0.0838,0.0539,0.0315,0.0256,0.0368,0.0523,0.0587,0.0577,0.0432,0.0032,-0.0422,-0.0886,-0.1046,-0.0913,-0.0278,-0.0149,-0.0101,0.0091,0.0497,0.0475,0.0043,0.0016,0.0267,0.0352,0.0262,0.0016,-0.0214,-0.0075,0.0235,0.0411,0.0518,0.055,0.0545,0.0539,0.055,0.0577,0.0609,0.063,0.0635,0.0683,0.0854,0.1068,0.118,0.1153,0.1073,0.102,0.0961,0.0806,0.0555,0.0326,0.0155,0.0064,0.0133,0.0374,0.055,0.0571,0.0454,0.0454,0.0182,-0.0454,-0.0614,0.094,0.1223,0.0774,-0.0037,-0.0411,-0.0774,-0.055,0.0037,0.0235,0.0096,-0.0043,0.0182,0.0427,0.0368,0.04,0.0523,0.0561,0.0539,0.0497,0.0443,0.039,0.0358,0.0363,0.0358,0.0331,0.032,0.0384,0.0577,0.0833,0.0934,0.086,0.0774,0.0726,0.0678,0.0587,0.0448,0.0256,0.0064,-0.0064,-0.0032,0.0155,0.0358,0.0481,0.0571,0.0486,0.0149,-0.023,0.063,0.0828,0.0763,0.0256,0.0182,0.0358,0.0801,0.047,-0.0123,-0.0005,0.0187,0.0198,0.0438,0.0822,0.118,0.0913,0.0641,0.0491,0.04,0.0331,0.0272,0.024,0.023,0.0203,0.0155,0.0091,-0.0043,-0.0192,-0.0123,0.0112,0.0262,0.0336,0.0352,0.0358,0.0358,0.0326,0.0283,0.0166,-0.0027,-0.0171,-0.016,-0.0037,0.0112,0.024,0.0326,0.0214,0.0059,0,0,0.0155,0.0662,0.1143,0.0667,0.1111,0.1538,0.1554,0.1655,0.1901,0.2168,0,0.0822,0.1687,0.1426,0.0961,0.0657,0.0486,0.0395,0.032,0.0288,0.0288,0.0267,0.0176,0.0032,-0.0144,-0.0379,-0.0593,-0.0699,-0.0657,-0.0481,-0.0347,-0.0198,-0.0005,0.0075,0.0107,0.0155,0.0128,0.0032,-0.0096,-0.0182,-0.024,-0.0288,-0.0219,-0.0091,-0.0246,0.0379,0.0112,0.0256,0.1329,0.1874,0,0,0.0005,0.0806,0.1628,0.1014,0.0699,0.1586,0.2152,0,0,0,0,0,0,0,0,0.0032,0.0139,0.0192,0.0187,0.0133,-0.0016,-0.0198,-0.0149,0.024,0.0641,0.0582,0.0133,-0.0203,-0.0347,-0.016,0.0085,0.0192,0.0171,0.0053,-0.0085,-0.0326,-0.0475,-0.0464,-0.0427,-0.0571,-0.0513,-0.0416,0.0064,0.0945,0.157,0.1372,0.0822,0.1111,0.1474,0,0,0,0.0219,0.071,0.0694,0.0203,0.0064,0.0416,0.0641,0.0358,0.0091,0,0,0,0,0,0,0,-0.0246,-0.0315,-0.0224,-0.0203,0.0101,0.0176,0.0224,0.0331,-0.0139,-0.0326,-0.016,-0.0352,-0.0347,-0.0208,-0.0299,-0.0502,-0.078,-0.0876,-0.0705,0.0075,-0.0069,0.0053,0.0342,0.0368,0.008,-0.0075,-0.0016,0.0982,0.1831,0.2189,0.2504,0.1511,0.0833,0.1303,0.1084,0.0016,-0.0609,-0.0464,-0.0464,-0.0662,0,0,0,0,0,0,0,0,0,0,0,0,0.0075,0.0934,0.1895,0.1522,0.0662,0.0091,-0.0139,-0.024,-0.0406,-0.0475,-0.0513,-0.0683,-0.0929,-0.1105,0,-0.0091,0.0256,0.0566,0.0347,0.0246,0,0,0,0,0,0.0513,0.0705,0.0924,0.1591,0.1377,0.0593,0.0192,0.0416,0.0651,0,0,0,0,0,0,0,0,0,0,0,0,0,0,0,0,0.102,0.1095,0,0,-0.0053,-0.0246,-0.031,-0.0219,-0.0085,-0.0021,-0.0219,0,0,0,0.0107,0.0395,0.0582,0,0,0,0,0,0.0112,0.0529,0.1153,0.1372,0.0961,0.0101,-0.0117,0.024,0,0,0,0,0,0,0,0,0,0,0,0,0,0,0,0,0,0,0.0315,0.0598,0,0,0,0,0,0,0,0.0069,0,0,0,0,0,0,0,0,0,0,0,0.0155,0.0481,0.0806,0.0924,0.0363,-0.0497,-0.0838,0,0,0,0,0,0,0,0,0,0,0,0,0,0,0,0,0,0,0,0,0.0918,0.1185,0.0112,-0.0304,0,0,0,0,0,0,0,0,0,0,0,0,0,0,0,0,0.0358,0.0961,0.095,0.0518,0.0075,-0.0155,0,0,0,0,0,0,0,0,0,0,0,0,0,0,0,0,0,0,0,0,0,0,-0.0075,0.0064,0.0539,0.0235,-0.0384,-0.0416,0,0,0,0,0,0,0,0,0,0,0,0,0,0,0.2002,0.1901,0.1004,0.0416,0.0304,0,0,0,0,0,0,0,0,0,0,0,0,0,0,0,0,0,0,0,0,0,0,0,0,0,0,-0.0069,-0.0139,0,0,0,0,0,0,0,0,0,0,0,0,0,0,0.079,0.1361,0.0849,0.0571,0.0609,0,0,0,0,0,0,0,0,0,0,0,0,0,0,0,0,0,0,0,0,0,0,0,0,0,0,0,0,0,0,0,0,0,0,0,0,0,0,0,0,0,0,0.0448,0.118,0.1041,0.078,0.094,0,0,0,0,0,0,0,0,0,0,0,0,0,0,0,0,0,0,0,0,0,0,0,0,0,0,0,0,0,0,0,0,0,0,0,0,0,0,0,0,0,0,0.0678,0.1719,0.1468,0.0961,0.1014,0,0,0,0,0,0,0,0,0,0,0,0,0,0,0,0,0,0,0,0,0,0,0,0,0,0,0,0,0,0,0,0,0,0,0,0,0,0,0,0,0,0,0,0.0363,0.0683,0.079,0.094,0,0,0,0,0,0,0,0,0,0,0,0,0,0,0,0,0,0,0,0,0,0,0,0,0,0,0,0,0,0,0,0,0,0,0,0,0,0,0,0,0,0,0,-0.0368,-0.0609,-0.0571,-0.0651,0,0,0,0,0,0,0,0,0,0,0,0,0,0,0,0,0,0,0,0,0,0,0,0,0,0,0,0,0,0,0,0,0,0,0,0,0,0,0,0,0,0,0,0,-0.0149,-0.0294,0,0,0,0,0,0,0,0,0,0,0,0,0,0,0,0,0,0,0,0,0,0,0,0,0,0,0,0,0,0,0,0,0,0,0,0,0,0,0,0,0,0,0,0,0,0,0,0,0,0,0,0,0,0,0,0,0,0,0,0,0,0,0,0,0,0,0,0,0,0,0,0,0,0,0,0,0,0,0,0,0,0,0,0,0,0,0,0,0,0,0,0,0,0,0,0,0,0,0,0,0,0,0,0,0,0,0,0,0,0,0,0,0,0,0,0,0,0,0,0,0,0,0,0,0,0,0,0,0,0,0,0,0,0,0,0,0,0,0,0,0,0,0,0,0,0,0,0,0,0,0,0,0,0,0,0,0,0,0,0,0,0,0,0,0,0,0,0,0,0,0,0,0,0,0,0,0,0,0,0,0,0,0,0,0,0,0,0,0,0,0,0,0,0,0,0,0,0,0,0,0,0,0,0,0,0,0,0,0,0,0,0,0,0,0,0,0,0,0,0,0,0,0,0,0,0,0,0,0,0,0,0,0,0,0,0,0,0,0,0,0,0,0,0,0,0,0,0,0,0,0,0,0,0,0,0,0,0,0,0,0,0,0,0,0,0,0,0,0,0,0,0,0,0,0,0,0,0,0,0,0,0,0,0,0,0,0,0,0,0,0,0,0,0,0,0,0,0,0,0,0,0,0,0,0,0,0,0,0,0,0,0,0]}],[{"header":{"parameterUnit":"kt","parameterCategory":2,"dx":1,"dy":1,"la1":29.764190673828125,"la2":30.86408042907715,"lo1":-88.46762084960938,"lo2":-86.9344482421875,"nx":47,"ny":34,"refTime":"2022-10-30T00:00:00:Z","depth":"6","parameterNumber":3,"parameterNumberName":"V-component_of_CURRENTS"},"data":[0.0032,-0.0198,-0.024,-0.0683,-0.11,-0.1068,-0.0619,-0.0176,-0.0059,-0.0064,-0.0048,-0.0027,-0.0048,-0.0096,-0.0133,-0.0128,-0.008,0.0085,0.0379,0.0587,0.0545,0.0214,-0.0198,-0.0427,-0.0651,-0.0961,-0.1281,-0.1554,-0.1388,-0.0742,-0.0112,-0.0822,-0.0961,-0.0379,-0.0214,-0.0096,0.0032,0.0133,0.0155,0.0155,0.0117,0.0016,-0.0107,-0.0214,-0.0267,-0.024,-0.0176,0.079,0.0182,-0.0059,-0.0342,-0.0651,-0.0438,-0.024,-0.0117,-0.0107,-0.0107,-0.0075,-0.0043,-0.0043,-0.008,-0.0107,-0.0107,-0.0059,0.0048,0.0214,0.0448,0.0534,0.0432,0.0214,-0.0011,-0.024,-0.0593,-0.0881,-0.095,-0.0934,-0.0966,-0.0865,-0.0694,-0.1036,-0.1041,-0.0582,-0.0192,-0.0171,-0.0176,-0.0166,-0.0128,-0.0101,-0.0171,-0.0283,-0.0379,-0.0422,-0.0406,-0.0352,0.1452,0.1132,0.0641,0.0144,-0.0149,-0.0123,-0.0112,-0.0133,-0.0144,-0.0133,-0.0107,-0.0075,-0.0059,-0.0075,-0.0096,-0.0101,-0.0059,0.0016,0.0112,0.023,0.0347,0.0411,0.0406,0.0262,0.0139,-0.0064,-0.0262,-0.0336,-0.0491,-0.0812,-0.134,-0.1399,-0.1185,-0.1356,-0.1212,-0.1004,-0.0673,-0.047,-0.0529,-0.0555,-0.0432,-0.0315,-0.032,-0.0406,-0.0486,-0.0513,-0.0475,0.0972,0.103,0.0721,0.0288,0.0117,0.0005,-0.0069,-0.0117,-0.0139,-0.0144,-0.0133,-0.0107,-0.0075,-0.0075,-0.0096,-0.0107,-0.0075,-0.0016,0.0043,0.0101,0.0182,0.0272,0.0395,0.0374,0.0331,0.0299,0.0224,0.0144,-0.008,-0.0598,-0.1207,-0.1762,-0.1719,-0.1463,-0.1644,-0.1591,-0.166,-0.1548,-0.1356,-0.1121,-0.0998,-0.0699,-0.0518,-0.0443,-0.0481,-0.0491,-0.0432,0.0481,0.0513,0.0427,0.0288,0.0182,0.0069,-0.0021,-0.0091,-0.0128,-0.0144,-0.0139,-0.0123,-0.0107,-0.0096,-0.0107,-0.0123,-0.0101,-0.0059,-0.0016,0.0021,0.0085,0.0182,0.0304,0.0384,0.0395,0.039,0.0384,0.0326,0.0144,-0.0198,-0.0721,-0.126,-0.1522,-0.1682,-0.1543,-0.1372,-0.1773,-0.1842,-0.1959,-0.1906,-0.1714,-0.1276,-0.0796,-0.0534,-0.0454,-0.0406,-0.032,0.0411,0.0384,0.0342,0.0278,0.0208,0.0112,0.0011,-0.0069,-0.0117,-0.0139,-0.0139,-0.0139,-0.0144,-0.0144,-0.0144,-0.0155,-0.0139,-0.0101,-0.0064,-0.0027,0.0037,0.0139,0.0251,0.0342,0.0368,0.0368,0.0358,0.031,0.0187,-0.0016,-0.0304,-0.0747,-0.1196,-0.1356,-0.1281,-0.1121,-0.1164,-0.1228,-0.1714,-0.1949,-0.1965,-0.181,-0.1132,-0.0481,-0.0395,-0.0336,-0.0251,0.0379,0.0342,0.0315,0.0278,0.0214,0.0117,0.0027,-0.0048,-0.0085,-0.0107,-0.0128,-0.0144,-0.0171,-0.0182,-0.0182,-0.0187,-0.0176,-0.0144,-0.0101,-0.0053,0.0021,0.0117,0.0203,0.0272,0.0304,0.0315,0.0304,0.0262,0.0176,0.0037,-0.0139,-0.0518,-0.1068,-0.1265,-0.11,-0.071,-0.0678,-0.0945,-0.1388,-0.1575,-0.1773,-0.1879,-0.1393,-0.0422,0.0,0.0069,0.0117,0.023,0.0192,0.0219,0.0235,0.0192,0.0112,0.0027,-0.0016,-0.0037,-0.0064,-0.0101,-0.0139,-0.0176,-0.0198,-0.0203,-0.0219,-0.0208,-0.0187,-0.0139,-0.008,0.0,0.008,0.0139,0.0187,0.023,0.0256,0.0262,0.024,0.0182,0.008,-0.0032,-0.031,-0.0881,-0.1265,-0.1175,-0.0625,-0.0267,-0.0336,-0.0812,-0.1164,-0.1431,-0.1522,-0.1655,-0.1207,0.0048,0.0593,0.0529,0.0016,-0.008,-0.0182,-0.0198,-0.0032,0.0085,0.0037,0.0027,0.0021,-0.0021,-0.008,-0.0128,-0.016,-0.0187,-0.0203,-0.023,-0.023,-0.0214,-0.0171,-0.0117,-0.0048,0.0016,0.0059,0.0085,0.0133,0.0198,0.0251,0.0272,0.024,0.0139,0.0027,-0.023,-0.0699,-0.1078,-0.1095,-0.0742,-0.0315,-0.0096,-0.0198,-0.0395,-0.0683,-0.0977,-0.1714,-0.2328,-0.1228,-0.0069,0.0101,0.0224,0.0027,-0.0384,-0.0673,-0.0529,-0.0016,0.0069,0.0096,0.0075,0.0005,-0.0075,-0.0112,-0.0101,-0.0133,-0.0198,-0.0267,-0.0246,-0.0224,-0.0203,-0.016,-0.0112,-0.0059,-0.0032,-0.0043,-0.0032,0.0069,0.0208,0.031,0.0336,0.0256,0.0096,-0.0149,-0.0507,-0.0806,-0.0822,-0.0699,-0.0518,-0.0326,-0.0224,-0.0117,-0.0149,-0.0427,-0.0956,-0.2077,-0.2563,-0.2013,-0.1484,0.0545,0.0235,-0.0251,-0.0806,-0.0651,0.0128,0.023,0.0091,0.0043,0.0032,0.0059,0.0075,-0.0048,-0.0283,-0.0384,-0.04,-0.0288,-0.0235,-0.0219,-0.0198,-0.0171,-0.0123,-0.0112,-0.0149,-0.0198,-0.0171,-0.0053,0.0112,0.0272,0.0304,0.0192,-0.0021,-0.0235,-0.0443,-0.0529,-0.0507,-0.0502,-0.0507,-0.0481,-0.0326,-0.0192,-0.023,-0.0331,-0.1089,-0.2178,-0.2643,-0.2595,0.0796,0.0352,0.0155,-0.0651,-0.0123,0.055,0.032,-0.0027,0.0294,0.0342,0.0432,0.0395,0.0256,-0.0555,-0.079,-0.0587,-0.0374,-0.0235,-0.0235,-0.024,-0.0219,-0.0176,-0.0182,-0.0208,-0.0256,-0.0336,-0.0374,-0.0267,-0.0021,0.0214,0.0256,0.0075,-0.0048,-0.0182,-0.0256,-0.0256,-0.032,-0.0438,-0.0561,-0.0582,-0.04,-0.0267,-0.0315,-0.0742,-0.1319,-0.181,-0.213,0.087,0.0422,0.0897,0.0203,0.0304,0.0822,0.008,0.016,0.032,0.0481,0.047,-0.0566,0.032,-0.0635,-0.0598,-0.0502,-0.0331,-0.016,-0.0203,-0.024,-0.0214,-0.016,-0.0187,-0.0203,-0.0224,-0.0326,-0.0448,-0.0454,-0.039,-0.008,0.0107,-0.0048,-0.0149,-0.0251,-0.0144,-0.0085,-0.0096,-0.0262,-0.0486,-0.0609,-0.055,-0.0406,-0.0443,-0.0737,-0.1046,-0.1287,-0.1431,0,0,0.1703,0.1111,0.016,0.0801,-0.0288,0.0545,0.1201,0.0801,0.0288,-0.0326,0,-0.1773,-0.0235,-0.024,-0.0192,-0.0059,-0.0112,-0.0155,-0.016,-0.0101,-0.0091,-0.0059,-0.0043,-0.0112,-0.0214,-0.0203,-0.0299,-0.0256,-0.0107,-0.0246,-0.0352,-0.0454,-0.0304,-0.0128,-0.0032,-0.0128,-0.0374,-0.0529,-0.0513,-0.0422,-0.0427,-0.0742,-0.1041,-0.1089,-0.1062,-0.0299,-0.0037,0.1527,0.0892,0.047,0,0,0.0849,0.0833,0.1404,0.094,0.0998,0.039,-0.1361,0,0,0,0,0,0,0,0,-0.0011,0.0027,0.0064,0.0053,-0.0091,-0.008,-0.0123,-0.0149,0.0027,0.0027,0.0075,-0.016,-0.0224,-0.0091,-0.0037,-0.0171,-0.0267,-0.0384,-0.0363,-0.0283,-0.0272,-0.0641,-0.0956,-0.095,-0.0721,-0.0395,-0.0016,0.1111,0.0182,0.039,-0.0411,0.0331,0.1159,0.094,0,0,0,0.0774,0.0513,0.0155,-0.0747,-0.0758,-0.0374,-0.0235,0.0048,0.0182,0,0,0,0,0,0,0,-0.0059,-0.0304,-0.0443,-0.0053,0.016,0.0374,0.0593,0.0545,0.0288,-0.0203,-0.031,-0.0256,-0.0342,-0.0149,-0.0069,-0.0326,-0.0667,-0.0785,-0.0561,-0.0192,-0.0021,0.0545,-0.0198,-0.0475,-0.1212,0.0657,0.1575,0.1959,0.0,0.0,0.0203,0.1014,0.1137,0.0379,-0.1223,-0.1191,-0.0352,-0.0267,0.0545,0.0368,0,0,0,0,0,0,0,0,0,0,0,0,0.0796,0.1244,0.1436,0.1522,0.0614,-0.04,-0.0091,-0.0219,-0.0219,0.0,-0.0096,-0.0283,-0.0555,-0.0587,0,-0.0091,0.0278,-0.0027,-0.0481,-0.0662,0,0,0,0,0,0.0678,0.103,0.1164,0.0422,-0.0673,-0.0571,0.0101,-0.0171,0.087,0,0,0,0,0,0,0,0,0,0,0,0,0,0,0,0,0.0982,0.1249,0,0,-0.0219,-0.0128,-0.0069,-0.0053,-0.0139,-0.0416,-0.0368,0,0,0,0.0101,-0.0192,0.0283,0,0,0,0,0,0.0966,0.0673,0.0427,-0.0107,-0.0149,0.0208,0.0075,-0.0288,0,0,0,0,0,0,0,0,0,0,0,0,0,0,0,0,0,0,0.1244,0.0854,0,0,0,0,0,0,0,-0.0166,0,0,0,0,0,0,0,0,0,0,0,0.1335,0.0464,-0.0384,-0.0464,0.063,0.0796,-0.0021,0,0,0,0,0,0,0,0,0,0,0,0,0,0,0,0,0,0,0,0,0.1714,-0.0166,0.0363,0.0694,0,0,0,0,0,0,0,0,0,0,0,0,0,0,0,0,0.1709,0.0374,-0.0876,-0.0411,0.1046,0.1292,0,0,0,0,0,0,0,0,0,0,0,0,0,0,0,0,0,0,0,0,0,0,-0.0326,0.0731,0.1388,0.0,-0.0214,0.0059,0,0,0,0,0,0,0,0,0,0,0,0,0,0,0.1009,-0.0347,-0.0432,0.0988,0.1821,0,0,0,0,0,0,0,0,0,0,0,0,0,0,0,0,0,0,0,0,0,0,0,0,0,0,-0.0427,0.0112,0,0,0,0,0,0,0,0,0,0,0,0,0,0,0.189,0.0566,-0.0219,0.0892,0.2013,0,0,0,0,0,0,0,0,0,0,0,0,0,0,0,0,0,0,0,0,0,0,0,0,0,0,0,0,0,0,0,0,0,0,0,0,0,0,0,0,0,0,0.1959,0.0982,0.0037,0.0844,0.1933,0,0,0,0,0,0,0,0,0,0,0,0,0,0,0,0,0,0,0,0,0,0,0,0,0,0,0,0,0,0,0,0,0,0,0,0,0,0,0,0,0,0,0.1879,0.0726,0.0326,0.0902,0.1805,0,0,0,0,0,0,0,0,0,0,0,0,0,0,0,0,0,0,0,0,0,0,0,0,0,0,0,0,0,0,0,0,0,0,0,0,0,0,0,0,0,0,0,-0.0411,0.0657,0.1148,0.158,0,0,0,0,0,0,0,0,0,0,0,0,0,0,0,0,0,0,0,0,0,0,0,0,0,0,0,0,0,0,0,0,0,0,0,0,0,0,0,0,0,0,0,-0.1137,0.0064,0.1426,0.1442,0,0,0,0,0,0,0,0,0,0,0,0,0,0,0,0,0,0,0,0,0,0,0,0,0,0,0,0,0,0,0,0,0,0,0,0,0,0,0,0,0,0,0,0,-0.0747,0.1495,0,0,0,0,0,0,0,0,0,0,0,0,0,0,0,0,0,0,0,0,0,0,0,0,0,0,0,0,0,0,0,0,0,0,0,0,0,0,0,0,0,0,0,0,0,0,0,0,0,0,0,0,0,0,0,0,0,0,0,0,0,0,0,0,0,0,0,0,0,0,0,0,0,0,0,0,0,0,0,0,0,0,0,0,0,0,0,0,0,0,0,0,0,0,0,0,0,0,0,0,0,0,0,0,0,0,0,0,0,0,0,0,0,0,0,0,0,0,0,0,0,0,0,0,0,0,0,0,0,0,0,0,0,0,0,0,0,0,0,0,0,0,0,0,0,0,0,0,0,0,0,0,0,0,0,0,0,0,0,0,0,0,0,0,0,0,0,0,0,0,0,0,0,0,0,0,0,0,0,0,0,0,0,0,0,0,0,0,0,0,0,0,0,0,0,0,0,0,0,0,0,0,0,0,0,0,0,0,0,0,0,0,0,0,0,0,0,0,0,0,0,0,0,0,0,0,0,0,0,0,0,0,0,0,0,0,0,0,0,0,0,0,0,0,0,0,0,0,0,0,0,0,0,0,0,0,0,0,0,0,0,0,0,0,0,0,0,0,0,0,0,0,0,0,0,0,0,0,0,0,0,0,0,0,0,0,0,0,0,0,0,0,0,0,0,0,0,0,0,0,0,0,0,0,0,0,0,0,0,0,0,0,0]}]],[[{"header":{"parameterUnit":"kt","parameterCategory":2,"dx":1,"dy":1,"la1":29.764190673828125,"la2":30.86408042907715,"lo1":-88.46762084960938,"lo2":-86.9344482421875,"nx":47,"ny":34,"refTime":"2022-10-30T00:00:00:Z","depth":"8","parameterNumber":2,"parameterNumberName":"U-component_of_CURRENTS"},"data":[0.1196,0.0833,0.0315,0.0342,0.1057,0.1623,0.1265,0.0577,0.0336,0.0342,0.0363,0.0395,0.0432,0.0464,0.0486,0.0481,0.0459,0.0464,0.0609,0.079,0.0785,0.0673,0.0486,0.0267,0.0176,0.0139,0.0091,0.0016,-0.0342,-0.0977,-0.094,-0.0149,-0.0368,-0.0603,-0.0358,-0.0331,-0.0085,0.0032,0.0037,0.0,0.0016,0.0085,0.0203,0.0342,0.0481,0.0582,0.0598,0.1618,0.1377,0.1132,0.1292,0.142,0.0945,0.039,0.0235,0.0267,0.0315,0.0358,0.0406,0.0464,0.0507,0.0523,0.0529,0.0513,0.0507,0.0566,0.071,0.0844,0.0828,0.0705,0.0609,0.0518,0.0368,0.0166,-0.0085,-0.0096,0.0107,-0.0091,-0.0208,0.0198,-0.0005,-0.0416,-0.0288,-0.024,-0.0283,-0.0315,-0.0342,-0.0352,-0.0379,-0.0411,-0.0427,-0.047,-0.0555,-0.0657,0.1548,0.1933,0.1799,0.1201,0.0635,0.039,0.0299,0.0299,0.0315,0.0342,0.0374,0.0422,0.047,0.0513,0.0529,0.0534,0.0529,0.0539,0.0577,0.0667,0.0812,0.0945,0.0924,0.0774,0.0657,0.0614,0.0438,0.0037,-0.0336,-0.0561,-0.0438,0.0075,0.0059,0.0176,0.0416,-0.0101,-0.0416,-0.0352,-0.0288,-0.0246,-0.0107,-0.0091,-0.0214,-0.04,-0.0657,-0.0934,-0.1191,0.0518,0.0742,0.071,0.0566,0.047,0.0427,0.039,0.0368,0.0363,0.0368,0.039,0.0411,0.0443,0.0475,0.0502,0.0523,0.0529,0.055,0.0587,0.0657,0.0742,0.0833,0.0892,0.0833,0.0726,0.0694,0.071,0.0609,0.0379,0.0112,-0.0123,-0.032,-0.0315,-0.0096,-0.008,0.0016,0.0117,-0.039,-0.0812,-0.0651,-0.0272,-0.0005,0.0059,-0.0101,-0.0427,-0.0769,-0.1089,0.0256,0.0342,0.0422,0.0464,0.0459,0.0443,0.0422,0.04,0.039,0.0384,0.0379,0.0379,0.0395,0.0427,0.0459,0.0486,0.0507,0.0529,0.0571,0.0619,0.0662,0.0699,0.0721,0.0737,0.0742,0.0763,0.0833,0.0945,0.0988,0.086,0.071,0.0646,0.0603,0.0416,0.0219,-0.0005,-0.024,-0.0219,-0.023,-0.0603,-0.0651,-0.0224,0.0107,0.0139,-0.0091,-0.0358,-0.0641,0.0283,0.0326,0.0374,0.04,0.0422,0.0432,0.0427,0.0416,0.0395,0.0374,0.0347,0.0326,0.0326,0.0358,0.0395,0.0427,0.0454,0.0481,0.0518,0.055,0.0577,0.0593,0.063,0.0689,0.0758,0.0822,0.0892,0.0993,0.1105,0.1153,0.1121,0.1068,0.0945,0.0801,0.0822,0.0651,0.0315,-0.0053,-0.0475,-0.0593,-0.0464,-0.0283,-0.0005,0.0219,0.0192,-0.0021,-0.0299,0.0326,0.0347,0.0368,0.0379,0.0395,0.0416,0.0422,0.0406,0.0368,0.0331,0.0299,0.0288,0.0294,0.0315,0.0342,0.0363,0.0395,0.0427,0.0464,0.0491,0.0507,0.0539,0.0593,0.0678,0.0774,0.086,0.0929,0.0982,0.1025,0.1052,0.1057,0.1073,0.1057,0.1041,0.0993,0.0886,0.0769,0.0513,0.0224,-0.0326,-0.0929,-0.1095,-0.0806,-0.0214,0.0187,0.0166,-0.0064,0.0166,0.024,0.0304,0.0342,0.0363,0.0374,0.0379,0.0363,0.0331,0.0299,0.0288,0.0294,0.031,0.0331,0.0347,0.0358,0.0374,0.0395,0.0422,0.0454,0.0491,0.0539,0.0609,0.0694,0.0806,0.0913,0.0988,0.1014,0.102,0.1014,0.0988,0.0998,0.0988,0.0929,0.0929,0.0908,0.0817,0.0769,0.0673,0.0288,-0.0395,-0.1276,-0.1703,-0.1415,-0.0678,-0.008,-0.0101,-0.0593,-0.0507,-0.0363,-0.0053,0.0235,0.0347,0.0379,0.0379,0.0358,0.0342,0.0347,0.0368,0.0384,0.0395,0.0395,0.04,0.0406,0.0416,0.0432,0.0464,0.0518,0.0582,0.0662,0.0769,0.094,0.1105,0.1191,0.1207,0.1143,0.1057,0.102,0.1036,0.1036,0.0929,0.0731,0.0619,0.0646,0.0689,0.0726,0.0667,0.0224,-0.0529,-0.1159,-0.166,-0.149,-0.079,-0.0497,-0.0545,-0.0497,-0.0379,-0.0133,0.0214,0.0432,0.047,0.0432,0.0406,0.0416,0.0464,0.0497,0.0464,0.0395,0.0379,0.0422,0.047,0.0486,0.0491,0.0518,0.0561,0.0625,0.0694,0.0796,0.0945,0.1105,0.1217,0.1271,0.1265,0.1196,0.1116,0.1073,0.1014,0.0828,0.0534,0.0315,0.0256,0.0368,0.0523,0.0587,0.0582,0.0438,0.0053,-0.0406,-0.0966,-0.118,-0.1036,0.0368,0.0667,0.0625,0.0363,0.0374,0.0358,0.0283,0.0267,0.0315,0.0358,0.0267,0.0155,0.0016,0.0032,0.024,0.0411,0.0523,0.055,0.0545,0.0539,0.0555,0.0582,0.0614,0.0635,0.0641,0.0689,0.0865,0.1073,0.1185,0.1159,0.1073,0.1014,0.0956,0.0801,0.0555,0.0331,0.016,0.0069,0.0139,0.0374,0.055,0.0577,0.0481,0.0459,0.016,-0.0539,-0.078,0.1132,0.094,0.0438,0.0064,-0.0069,-0.0256,-0.0016,0.0336,0.0272,0.0203,0.0246,0.0598,0.0689,0.0448,0.0406,0.0539,0.0582,0.0571,0.0523,0.0464,0.0411,0.0379,0.0384,0.0379,0.0352,0.0336,0.04,0.0593,0.0833,0.0929,0.0854,0.0769,0.0726,0.0673,0.0587,0.0448,0.0262,0.0069,-0.0059,-0.0032,0.016,0.0358,0.0475,0.0475,0.0384,0.0091,-0.0299,0.0913,0.0892,0.0598,0.0427,0.094,0.1132,0.0956,0.0577,0.0251,0.0299,0.0011,-0.0278,0.0182,0.0603,0.1041,0.103,0.087,0.0715,0.0577,0.0443,0.0358,0.031,0.0283,0.0256,0.0208,0.0144,0.0043,-0.0053,0.0,0.0198,0.0342,0.0395,0.039,0.0379,0.0358,0.0326,0.0283,0.0166,-0.0021,-0.0166,-0.016,-0.0037,0.0107,0.0208,0.0198,0.0043,-0.0075,0,0,-0.0454,-0.0299,0.0726,0.1431,0.1383,0.0774,0.0555,0.0753,0.0742,0.0545,0,0.0561,0.1164,0.1212,0.1052,0.0886,0.0678,0.0571,0.0507,0.0443,0.0432,0.047,0.0395,0.0219,0.016,-0.0059,-0.0278,-0.0395,-0.0379,-0.0256,-0.0171,-0.0112,0.0,0.0069,0.0107,0.0149,0.0123,0.0032,-0.0096,-0.0182,-0.024,-0.0294,-0.0251,-0.0187,-0.0406,0.0865,0.0262,-0.0283,-0.0107,-0.0037,0,0,-0.0267,0.0384,0.1014,0.0246,0.0112,0.0929,0.1393,0,0,0,0,0,0,0,0,0.008,0.0315,0.0454,0.0347,0.0395,0.0513,0.016,-0.0112,0.0005,0.0176,0.0518,0.0427,0.0085,-0.0283,-0.0331,-0.0069,0.0096,0.0016,-0.0048,-0.0101,-0.0326,-0.0486,-0.0518,-0.0518,-0.0641,0.0278,-0.0048,-0.0016,0.0101,0.0529,0.0998,0.0598,-0.0416,-0.1169,0,0,0,-0.0101,0.0144,0.047,0.079,0.1185,0.1062,0.0822,0.0347,-0.0085,0,0,0,0,0,0,0,-0.0155,-0.0085,0.0176,-0.0085,0.0117,0.0101,0.0064,0.0203,0.0166,-0.0032,0.0069,-0.0091,-0.0267,-0.0358,-0.04,-0.0486,-0.0662,-0.087,-0.0854,0.0582,0.0411,0.0299,0.0641,0.0982,0.0678,-0.0016,-0.0529,-0.0219,0.0619,0.1212,0.1265,0.0529,0.016,0.0646,0.11,0.1201,0.1036,0.0609,-0.0123,-0.0534,0,0,0,0,0,0,0,0,0,0,0,0,0.0187,0.031,0.0342,0.0304,0.031,0.0187,-0.0117,-0.0219,-0.0272,-0.0336,-0.0358,-0.047,-0.0689,-0.0977,0,0.008,0.0352,0.0571,0.0101,-0.04,0,0,0,0,0,0.0048,-0.0176,-0.0203,0.0416,0.1046,0.1175,0.1009,0.0529,0.0069,0,0,0,0,0,0,0,0,0,0,0,0,0,0,0,0,-0.0352,-0.0112,0,0,-0.0262,-0.0256,-0.0294,-0.0219,-0.0059,0.0112,-0.0021,0,0,0,0.0182,0.0336,0.031,0,0,0,0,0,-0.016,-0.0363,-0.0128,0.0507,0.1025,0.1116,0.0972,0.055,0,0,0,0,0,0,0,0,0,0,0,0,0,0,0,0,0,0,-0.0443,-0.0459,0,0,0,0,0,0,0,0.0037,0,0,0,0,0,0,0,0,0,0,0,-0.0166,-0.0091,0.0459,0.0796,0.0737,0.0523,0.0406,0,0,0,0,0,0,0,0,0,0,0,0,0,0,0,0,0,0,0,0,0.0507,0.1148,0.0849,0.04,0,0,0,0,0,0,0,0,0,0,0,0,0,0,0,0,-0.0016,0.0363,0.0705,0.0502,0.0208,0.0059,0,0,0,0,0,0,0,0,0,0,0,0,0,0,0,0,0,0,0,0,0,0,0.0096,0.0123,0.0427,0.047,-0.0027,-0.0176,0,0,0,0,0,0,0,0,0,0,0,0,0,0,0.0577,0.047,0.0192,0.0011,-0.0069,0,0,0,0,0,0,0,0,0,0,0,0,0,0,0,0,0,0,0,0,0,0,0,0,0,0,-0.0005,-0.0011,0,0,0,0,0,0,0,0,0,0,0,0,0,0,0.0,0.0203,0.0246,0.0075,0.0069,0,0,0,0,0,0,0,0,0,0,0,0,0,0,0,0,0,0,0,0,0,0,0,0,0,0,0,0,0,0,0,0,0,0,0,0,0,0,0,0,0,0,0.0016,0.0219,0.0246,0.0069,0.0048,0,0,0,0,0,0,0,0,0,0,0,0,0,0,0,0,0,0,0,0,0,0,0,0,0,0,0,0,0,0,0,0,0,0,0,0,0,0,0,0,0,0,0.0192,0.0395,0.0283,0.0,-0.0166,0,0,0,0,0,0,0,0,0,0,0,0,0,0,0,0,0,0,0,0,0,0,0,0,0,0,0,0,0,0,0,0,0,0,0,0,0,0,0,0,0,0,0,0.0278,0.0262,-0.0251,-0.047,0,0,0,0,0,0,0,0,0,0,0,0,0,0,0,0,0,0,0,0,0,0,0,0,0,0,0,0,0,0,0,0,0,0,0,0,0,0,0,0,0,0,0,-0.0043,-0.0614,-0.0892,-0.063,0,0,0,0,0,0,0,0,0,0,0,0,0,0,0,0,0,0,0,0,0,0,0,0,0,0,0,0,0,0,0,0,0,0,0,0,0,0,0,0,0,0,0,0,-0.0214,-0.0422,0,0,0,0,0,0,0,0,0,0,0,0,0,0,0,0,0,0,0,0,0,0,0,0,0,0,0,0,0,0,0,0,0,0,0,0,0,0,0,0,0,0,0,0,0,0,0,0,0,0,0,0,0,0,0,0,0,0,0,0,0,0,0,0,0,0,0,0,0,0,0,0,0,0,0,0,0,0,0,0,0,0,0,0,0,0,0,0,0,0,0,0,0,0,0,0,0,0,0,0,0,0,0,0,0,0,0,0,0,0,0,0,0,0,0,0,0,0,0,0,0,0,0,0,0,0,0,0,0,0,0,0,0,0,0,0,0,0,0,0,0,0,0,0,0,0,0,0,0,0,0,0,0,0,0,0,0,0,0,0,0,0,0,0,0,0,0,0,0,0,0,0,0,0,0,0,0,0,0,0,0,0,0,0,0,0,0,0,0,0,0,0,0,0,0,0,0,0,0,0,0,0,0,0,0,0,0,0,0,0,0,0,0,0,0,0,0,0,0,0,0,0,0,0,0,0,0,0,0,0,0,0,0,0,0,0,0,0,0,0,0,0,0,0,0,0,0,0,0,0,0,0,0,0,0,0,0,0,0,0,0,0,0,0,0,0,0,0,0,0,0,0,0,0,0,0,0,0,0,0,0,0,0,0,0,0,0,0,0,0,0,0,0,0,0,0,0,0,0,0,0,0,0,0,0,0,0,0,0,0,0,0,0]}],[{"header":{"parameterUnit":"kt","parameterCategory":2,"dx":1,"dy":1,"la1":29.764190673828125,"la2":30.86408042907715,"lo1":-88.46762084960938,"lo2":-86.9344482421875,"nx":47,"ny":34,"refTime":"2022-10-30T00:00:00:Z","depth":"8","parameterNumber":3,"parameterNumberName":"V-component_of_CURRENTS"},"data":[-0.0262,-0.0705,-0.0838,-0.0753,-0.11,-0.1073,-0.0619,-0.0176,-0.0053,-0.0064,-0.0048,-0.0021,-0.0048,-0.0096,-0.0133,-0.0128,-0.008,0.0085,0.0374,0.0582,0.0545,0.0214,-0.0192,-0.0422,-0.0646,-0.0956,-0.1276,-0.1548,-0.1388,-0.0747,-0.0117,-0.0833,-0.0966,-0.0384,-0.0219,-0.0101,0.0027,0.0128,0.0149,0.0149,0.0112,0.0005,-0.0112,-0.0219,-0.0267,-0.0246,-0.0176,0.0571,-0.008,-0.0497,-0.0593,-0.0731,-0.0443,-0.024,-0.0112,-0.0107,-0.0101,-0.0075,-0.0043,-0.0048,-0.008,-0.0107,-0.0107,-0.0059,0.0048,0.0214,0.0443,0.0529,0.0427,0.0214,-0.0005,-0.0235,-0.0582,-0.087,-0.0945,-0.0934,-0.0966,-0.087,-0.0715,-0.1046,-0.1057,-0.0593,-0.0208,-0.0182,-0.0187,-0.0182,-0.0139,-0.0112,-0.0182,-0.0294,-0.039,-0.0427,-0.0406,-0.0352,0.1095,0.0881,0.0432,0.0032,-0.0149,-0.0117,-0.0107,-0.0128,-0.0139,-0.0133,-0.0107,-0.008,-0.0059,-0.0075,-0.0096,-0.0101,-0.0053,0.0021,0.0112,0.023,0.0347,0.0406,0.04,0.0262,0.0139,-0.0059,-0.0251,-0.032,-0.0481,-0.0801,-0.1329,-0.1404,-0.1239,-0.1399,-0.1249,-0.1041,-0.0694,-0.0486,-0.0545,-0.0582,-0.0459,-0.0347,-0.0352,-0.0427,-0.0502,-0.0523,-0.0481,0.0833,0.0892,0.0667,0.0288,0.0117,0.0005,-0.0069,-0.0117,-0.0139,-0.0144,-0.0133,-0.0107,-0.008,-0.0075,-0.0091,-0.0101,-0.0069,-0.0016,0.0043,0.0101,0.0182,0.0272,0.0395,0.0374,0.0331,0.0299,0.0235,0.016,-0.0064,-0.0582,-0.118,-0.1714,-0.1703,-0.1479,-0.1719,-0.1666,-0.1714,-0.157,-0.1372,-0.1148,-0.1073,-0.0753,-0.0571,-0.0481,-0.0507,-0.0523,-0.0454,0.0481,0.0507,0.0427,0.0288,0.0176,0.0069,-0.0021,-0.0091,-0.0128,-0.0144,-0.0139,-0.0123,-0.0107,-0.0096,-0.0107,-0.0117,-0.0101,-0.0053,-0.0016,0.0027,0.0091,0.0187,0.0304,0.039,0.0395,0.039,0.039,0.0336,0.0155,-0.0187,-0.071,-0.1239,-0.15,-0.166,-0.1527,-0.1377,-0.1805,-0.1869,-0.1975,-0.1922,-0.1757,-0.1372,-0.0865,-0.0577,-0.0497,-0.0454,-0.0363,0.0411,0.0384,0.0342,0.0278,0.0203,0.0107,0.0011,-0.0069,-0.0112,-0.0133,-0.0139,-0.0133,-0.0139,-0.0133,-0.0139,-0.0149,-0.0133,-0.0096,-0.0059,-0.0021,0.0043,0.0144,0.0256,0.0347,0.0374,0.0374,0.0363,0.032,0.0198,-0.0011,-0.0299,-0.0742,-0.1185,-0.134,-0.1265,-0.1111,-0.1148,-0.1271,-0.1735,-0.197,-0.2013,-0.1901,-0.1265,-0.0561,-0.0438,-0.039,-0.031,0.0384,0.0342,0.0315,0.0272,0.0208,0.0117,0.0027,-0.0043,-0.008,-0.0101,-0.0117,-0.0133,-0.016,-0.0171,-0.0171,-0.0182,-0.0166,-0.0139,-0.0096,-0.0048,0.0027,0.0123,0.0208,0.0278,0.031,0.032,0.031,0.0272,0.0182,0.0048,-0.0133,-0.0513,-0.1052,-0.1244,-0.1084,-0.0705,-0.0673,-0.0929,-0.1388,-0.1586,-0.1783,-0.1911,-0.1468,-0.0529,-0.0064,0.0016,0.0064,0.0251,0.0219,0.023,0.024,0.0198,0.0112,0.0032,-0.0005,-0.0027,-0.0053,-0.0091,-0.0128,-0.016,-0.0187,-0.0192,-0.0208,-0.0203,-0.0176,-0.0133,-0.0075,0.0005,0.0085,0.0144,0.0192,0.023,0.0256,0.0262,0.0246,0.0187,0.0091,-0.0027,-0.0304,-0.086,-0.1233,-0.1153,-0.0619,-0.0262,-0.0331,-0.0801,-0.1153,-0.1415,-0.1506,-0.1671,-0.1271,-0.0005,0.055,0.0491,0.0198,0.0117,0.0027,-0.0053,0.0021,0.0096,0.0043,0.0037,0.0032,-0.0011,-0.0069,-0.0117,-0.0155,-0.0182,-0.0198,-0.0224,-0.0224,-0.0208,-0.0166,-0.0112,-0.0043,0.0021,0.0064,0.0085,0.0133,0.0198,0.0251,0.0278,0.0246,0.0144,0.0037,-0.0219,-0.0678,-0.1046,-0.1068,-0.0731,-0.031,-0.0096,-0.0192,-0.0384,-0.0678,-0.0966,-0.1698,-0.2306,-0.1313,-0.0139,0.008,0.0481,0.0379,0.0117,-0.0214,-0.0283,-0.0005,0.0075,0.0107,0.0091,0.0016,-0.0069,-0.0107,-0.0096,-0.0133,-0.0198,-0.0262,-0.024,-0.0219,-0.0198,-0.016,-0.0112,-0.0059,-0.0032,-0.0043,-0.0032,0.0069,0.0208,0.031,0.0336,0.0256,0.0101,-0.0139,-0.0491,-0.078,-0.0801,-0.0678,-0.0502,-0.0315,-0.0219,-0.0107,-0.0144,-0.0422,-0.094,-0.1901,-0.2365,-0.2024,-0.1548,0.0577,0.0262,0.0304,-0.0101,-0.0267,0.0133,0.0219,0.0123,0.0069,0.0043,0.0059,0.0085,0.0037,-0.0144,-0.0352,-0.0395,-0.0288,-0.023,-0.0214,-0.0192,-0.0166,-0.0117,-0.0107,-0.0139,-0.0182,-0.0144,-0.0043,0.0117,0.0272,0.0304,0.0187,-0.0021,-0.0224,-0.0427,-0.0513,-0.0491,-0.0481,-0.0486,-0.0459,-0.0315,-0.0187,-0.023,-0.0326,-0.1014,-0.197,-0.2403,-0.2429,0.0342,-0.0011,0.0326,0.0251,0.0198,0.0454,0.0219,0.0059,0.0203,0.0208,0.0358,0.0288,0.0256,-0.0091,-0.0513,-0.0566,-0.0352,-0.0214,-0.0203,-0.0208,-0.0187,-0.0144,-0.0144,-0.0171,-0.0203,-0.0267,-0.032,-0.0219,0.0,0.0219,0.0256,0.0075,-0.0043,-0.0171,-0.0246,-0.024,-0.0299,-0.0416,-0.0534,-0.0561,-0.0395,-0.0262,-0.0315,-0.0753,-0.1185,-0.1644,-0.1917,-0.0016,-0.0043,0.1292,0.1431,0.0416,0.0486,-0.0166,0.032,0.0459,0.0192,-0.0091,-0.0849,0.04,0.0053,-0.0139,-0.0331,-0.0187,-0.0059,-0.0037,-0.008,-0.0091,-0.0075,-0.0117,-0.0117,-0.0117,-0.0182,-0.0294,-0.0299,-0.0224,0.0032,0.0176,0.0027,-0.0075,-0.0198,-0.0133,-0.0069,-0.008,-0.0246,-0.0459,-0.0587,-0.0539,-0.04,-0.0432,-0.0662,-0.0918,-0.1159,-0.1233,0,0,0.126,0.0865,0.0043,0.0315,-0.023,0.1297,0.1361,0.0619,0.0267,-0.0342,0,-0.1121,0.0101,0.0048,0.0117,0.0144,0.0192,0.0133,0.0075,0.0032,0.0016,-0.0048,0.0043,0.0075,-0.0048,-0.0123,-0.0011,0.008,0.0171,0.0005,-0.0096,-0.0208,-0.0166,-0.0096,-0.0016,-0.0112,-0.0331,-0.0507,-0.0497,-0.0411,-0.04,-0.0641,-0.0854,-0.0908,-0.0924,-0.0342,-0.0085,0.0806,0.0945,0.0432,0,0,0.1196,0.094,0.1239,0.0993,0.0699,0.0336,-0.1127,0,0,0,0,0,0,0,0,0.0091,-0.0096,0.0048,0.0251,0.0059,-0.0379,-0.008,0.0075,-0.0005,0.0075,0.0155,0.0342,0.023,0.0144,0.0064,-0.0037,-0.016,-0.0342,-0.0294,-0.023,-0.0187,-0.047,-0.0721,-0.0705,-0.055,-0.0662,-0.0219,0.0523,0.087,0.1276,0.023,0.0561,0.0908,0.0934,0,0,0,0.0753,0.032,0.0278,0.0352,0.0187,0.0224,0.0198,0.0219,0.0149,0,0,0,0,0,0,0,-0.0075,-0.0166,-0.0422,-0.0256,0.0085,0.1217,0.1586,0.1255,0.0812,0.0112,-0.0182,-0.0224,-0.0166,-0.0101,-0.0016,-0.0219,-0.0432,-0.0497,-0.032,-0.0641,-0.0005,0.0251,0.0112,0.0347,-0.055,0.1116,0.086,0.1127,0.0,0.0,0.0497,0.095,0.0902,0.0721,0.0598,0.0166,0.0096,0.032,0.0481,0.0304,0,0,0,0,0,0,0,0,0,0,0,0,0.1292,0.1442,0.1249,0.1169,0.1046,0.0,-0.0059,-0.008,-0.0085,-0.0032,-0.0027,-0.0155,-0.0374,-0.0342,0,0.0256,0.0149,0.0064,-0.0059,-0.0491,0,0,0,0,0,0.086,0.0796,0.0924,0.0902,0.0555,0.0149,-0.023,0.0299,0.0619,0,0,0,0,0,0,0,0,0,0,0,0,0,0,0,0,0.0763,0.0918,0,0,0.0299,0.008,0.0043,0.0027,-0.0064,-0.0288,-0.0278,0,0,0,0.0432,0.0363,0.0609,0,0,0,0,0,0.0844,0.0753,0.086,0.0881,0.0667,0.0481,-0.0069,0.0347,0,0,0,0,0,0,0,0,0,0,0,0,0,0,0,0,0,0,0.0598,0.0368,0,0,0,0,0,0,0,-0.0198,0,0,0,0,0,0,0,0,0,0,0,0.1127,0.1287,0.1041,0.0876,0.078,0.079,0.0059,0,0,0,0,0,0,0,0,0,0,0,0,0,0,0,0,0,0,0,0,0.0731,0.0448,0.0395,0.0395,0,0,0,0,0,0,0,0,0,0,0,0,0,0,0,0,0.1025,0.1474,0.1201,0.095,0.0865,0.0854,0,0,0,0,0,0,0,0,0,0,0,0,0,0,0,0,0,0,0,0,0,0,0.0897,0.079,0.079,0.0,-0.0139,-0.0027,0,0,0,0,0,0,0,0,0,0,0,0,0,0,0.15,0.1255,0.1089,0.0956,0.0902,0,0,0,0,0,0,0,0,0,0,0,0,0,0,0,0,0,0,0,0,0,0,0,0,0,0,-0.0278,-0.0053,0,0,0,0,0,0,0,0,0,0,0,0,0,0,0.1388,0.1495,0.1345,0.1052,0.1041,0,0,0,0,0,0,0,0,0,0,0,0,0,0,0,0,0,0,0,0,0,0,0,0,0,0,0,0,0,0,0,0,0,0,0,0,0,0,0,0,0,0,0.0934,0.1564,0.1383,0.1062,0.0988,0,0,0,0,0,0,0,0,0,0,0,0,0,0,0,0,0,0,0,0,0,0,0,0,0,0,0,0,0,0,0,0,0,0,0,0,0,0,0,0,0,0,0.0694,0.1249,0.1143,0.1004,0.11,0,0,0,0,0,0,0,0,0,0,0,0,0,0,0,0,0,0,0,0,0,0,0,0,0,0,0,0,0,0,0,0,0,0,0,0,0,0,0,0,0,0,0,0.0721,0.0961,0.0822,0.0972,0,0,0,0,0,0,0,0,0,0,0,0,0,0,0,0,0,0,0,0,0,0,0,0,0,0,0,0,0,0,0,0,0,0,0,0,0,0,0,0,0,0,0,0.0379,0.016,0.0726,0.0678,0,0,0,0,0,0,0,0,0,0,0,0,0,0,0,0,0,0,0,0,0,0,0,0,0,0,0,0,0,0,0,0,0,0,0,0,0,0,0,0,0,0,0,0,-0.0582,0.079,0,0,0,0,0,0,0,0,0,0,0,0,0,0,0,0,0,0,0,0,0,0,0,0,0,0,0,0,0,0,0,0,0,0,0,0,0,0,0,0,0,0,0,0,0,0,0,0,0,0,0,0,0,0,0,0,0,0,0,0,0,0,0,0,0,0,0,0,0,0,0,0,0,0,0,0,0,0,0,0,0,0,0,0,0,0,0,0,0,0,0,0,0,0,0,0,0,0,0,0,0,0,0,0,0,0,0,0,0,0,0,0,0,0,0,0,0,0,0,0,0,0,0,0,0,0,0,0,0,0,0,0,0,0,0,0,0,0,0,0,0,0,0,0,0,0,0,0,0,0,0,0,0,0,0,0,0,0,0,0,0,0,0,0,0,0,0,0,0,0,0,0,0,0,0,0,0,0,0,0,0,0,0,0,0,0,0,0,0,0,0,0,0,0,0,0,0,0,0,0,0,0,0,0,0,0,0,0,0,0,0,0,0,0,0,0,0,0,0,0,0,0,0,0,0,0,0,0,0,0,0,0,0,0,0,0,0,0,0,0,0,0,0,0,0,0,0,0,0,0,0,0,0,0,0,0,0,0,0,0,0,0,0,0,0,0,0,0,0,0,0,0,0,0,0,0,0,0,0,0,0,0,0,0,0,0,0,0,0,0,0,0,0,0,0,0,0,0,0,0,0,0,0,0,0,0,0,0,0,0,0,0,0]}]],[[{"header":{"parameterUnit":"kt","parameterCategory":2,"dx":1,"dy":1,"la1":29.764190673828125,"la2":30.86408042907715,"lo1":-88.46762084960938,"lo2":-86.9344482421875,"nx":47,"ny":34,"refTime":"2022-10-30T00:00:00:Z","depth":"10","parameterNumber":2,"parameterNumberName":"U-component_of_CURRENTS"},"data":[0.0507,0.0107,-0.0262,-0.0203,0.055,0.1377,0.1233,0.0577,0.0342,0.0347,0.0368,0.04,0.0438,0.047,0.0486,0.0486,0.0459,0.047,0.0614,0.0796,0.0796,0.0678,0.0486,0.0267,0.0176,0.0139,0.0085,0.0005,-0.0342,-0.0961,-0.0918,-0.0144,-0.0358,-0.0593,-0.0342,-0.0315,-0.0075,0.0043,0.0048,0.0005,0.0027,0.0096,0.0208,0.0347,0.0486,0.0587,0.0603,0.1062,0.071,0.047,0.0699,0.1105,0.0908,0.039,0.0235,0.0272,0.032,0.0363,0.0416,0.047,0.0507,0.0523,0.0529,0.0513,0.0513,0.0571,0.0715,0.0849,0.0828,0.0705,0.0609,0.0513,0.0363,0.0155,-0.0091,-0.0096,0.0027,-0.0155,-0.0208,0.0176,0.0,-0.0411,-0.0283,-0.0235,-0.0278,-0.031,-0.0336,-0.0352,-0.0374,-0.04,-0.0422,-0.0464,-0.055,-0.0651,0.1329,0.157,0.1548,0.1127,0.0635,0.039,0.0299,0.0299,0.032,0.0342,0.0379,0.0427,0.0475,0.0513,0.0529,0.0534,0.0534,0.0539,0.0582,0.0673,0.0812,0.0945,0.0924,0.0769,0.0657,0.0609,0.0427,0.0027,-0.0336,-0.055,-0.0438,0.0005,0.0016,0.0117,0.0304,-0.0149,-0.0416,-0.0352,-0.0288,-0.0267,-0.0155,-0.0101,-0.0219,-0.04,-0.0651,-0.0924,-0.1185,0.0545,0.0801,0.0742,0.0571,0.0475,0.0427,0.039,0.0368,0.0363,0.0374,0.039,0.0416,0.0448,0.0481,0.0507,0.0523,0.0534,0.0555,0.0593,0.0662,0.0742,0.0833,0.0892,0.0833,0.0726,0.0694,0.0705,0.0609,0.0379,0.0117,-0.0112,-0.0299,-0.0299,-0.0112,-0.0101,-0.0037,0.0048,-0.0422,-0.0817,-0.0694,-0.0374,-0.0107,0.0005,-0.0123,-0.0454,-0.0796,-0.11,0.0256,0.0342,0.0427,0.0464,0.0464,0.0443,0.0416,0.04,0.039,0.0384,0.0379,0.0384,0.04,0.0427,0.0464,0.0491,0.0513,0.0534,0.0577,0.0619,0.0667,0.0699,0.0726,0.0742,0.0747,0.0763,0.0833,0.0945,0.0988,0.0865,0.0721,0.0646,0.0598,0.0411,0.0219,-0.0005,-0.0235,-0.024,-0.0256,-0.0635,-0.0747,-0.0368,-0.0043,0.0037,-0.0155,-0.0416,-0.0715,0.0283,0.0326,0.0374,0.0406,0.0422,0.0432,0.0427,0.0416,0.0395,0.0374,0.0347,0.0331,0.0331,0.0363,0.04,0.0432,0.0459,0.0486,0.0523,0.0555,0.0577,0.0598,0.0635,0.0689,0.0758,0.0822,0.0892,0.0993,0.1105,0.1153,0.1127,0.1062,0.0929,0.078,0.0812,0.0646,0.0294,-0.016,-0.0534,-0.0678,-0.0603,-0.0464,-0.0198,0.0011,-0.0011,-0.0214,-0.0497,0.032,0.0347,0.0368,0.0384,0.04,0.0416,0.0422,0.0411,0.0374,0.0331,0.0304,0.0294,0.0304,0.032,0.0347,0.0368,0.0395,0.0432,0.047,0.0497,0.0513,0.0545,0.0598,0.0678,0.0774,0.086,0.0924,0.0977,0.1025,0.1052,0.1057,0.1068,0.103,0.0998,0.0966,0.0881,0.0763,0.0497,0.0149,-0.0448,-0.1062,-0.1228,-0.0913,-0.0326,0.0011,-0.0053,-0.0288,0.0166,0.0235,0.0304,0.0342,0.0363,0.0374,0.0379,0.0368,0.0336,0.0304,0.0294,0.0299,0.032,0.0336,0.0347,0.0363,0.0379,0.04,0.0427,0.0459,0.0491,0.0545,0.0609,0.0699,0.0806,0.0913,0.0982,0.1014,0.102,0.1014,0.0988,0.0993,0.0966,0.0892,0.0897,0.0897,0.0817,0.0763,0.0641,0.0251,-0.0422,-0.1297,-0.173,-0.1442,-0.0731,-0.0182,-0.0214,-0.0368,-0.0262,-0.0155,0.0053,0.0256,0.0352,0.0379,0.0384,0.0363,0.0352,0.0358,0.0374,0.039,0.0395,0.0395,0.04,0.0411,0.0416,0.0432,0.047,0.0518,0.0587,0.0662,0.0769,0.0929,0.1095,0.1185,0.1201,0.1137,0.1057,0.1014,0.1025,0.1014,0.0897,0.071,0.0614,0.0646,0.0689,0.0726,0.0667,0.0224,-0.0518,-0.1164,-0.1687,-0.1559,-0.087,-0.0619,-0.0091,0.0048,0.0107,0.0133,0.0278,0.0432,0.047,0.0438,0.0411,0.0422,0.0464,0.0491,0.0459,0.0395,0.0379,0.0422,0.047,0.0486,0.0497,0.0518,0.0561,0.0625,0.0694,0.079,0.0934,0.1084,0.1191,0.1244,0.1249,0.1185,0.1111,0.1062,0.0993,0.0801,0.0523,0.0315,0.0262,0.0368,0.0523,0.0587,0.0587,0.0443,0.0107,-0.0363,-0.1073,-0.1372,-0.1233,0.0908,0.1057,0.1046,0.0849,0.0411,0.0246,0.0299,0.0294,0.0331,0.0363,0.0272,0.0166,0.0117,0.0101,0.0224,0.0411,0.0523,0.055,0.0545,0.0539,0.0555,0.0582,0.0614,0.0635,0.0646,0.0705,0.0876,0.1073,0.1185,0.1159,0.1073,0.1004,0.094,0.079,0.055,0.0331,0.0166,0.0075,0.0139,0.0374,0.0555,0.0571,0.0507,0.0454,0.0112,-0.0609,-0.0961,0.0464,-0.0043,-0.039,0.0064,0.0267,0.0123,0.023,0.0272,0.0144,0.0208,0.0368,0.0561,0.0331,0.0208,0.04,0.0545,0.0598,0.0619,0.0561,0.0486,0.0438,0.0411,0.0406,0.0406,0.0379,0.0358,0.0427,0.0603,0.0812,0.0908,0.0849,0.0769,0.0721,0.0673,0.0587,0.0448,0.0267,0.008,-0.0053,-0.0027,0.016,0.0352,0.0395,0.0299,0.0192,-0.0048,-0.0416,0.1228,0.1148,-0.0011,-0.0363,0.0721,0.1207,0.0545,0.0176,0.0646,0.0486,-0.0278,-0.0112,0.0,0.0304,0.0705,0.0881,0.0892,0.0876,0.0673,0.0523,0.0464,0.0416,0.0374,0.0336,0.0283,0.0214,0.0155,0.0112,0.0149,0.0331,0.0448,0.0448,0.0427,0.0395,0.0358,0.0315,0.0278,0.0171,-0.0011,-0.0155,-0.016,-0.0043,0.0037,0.0053,0.0016,-0.0128,-0.0246,0,0,-0.0246,-0.0203,0.0368,0.1479,0.1281,-0.0043,0.0144,0.0422,0.0379,0.0192,0,0.0448,0.0913,0.0956,0.0897,0.0769,0.0625,0.0507,0.0427,0.0438,0.0384,0.0347,0.0336,0.0299,0.039,0.039,0.0069,-0.0085,-0.0107,-0.0053,-0.0011,-0.0043,-0.0021,0.0048,0.0101,0.0144,0.0085,-0.0016,-0.0128,-0.0224,-0.0315,-0.0331,-0.023,-0.0294,-0.0545,0.0609,0.0203,-0.0235,-0.0224,-0.0224,0,0,-0.0139,0.0101,0.0336,-0.0053,0.0053,0.0705,0.1009,0,0,0,0,0,0,0,0,0.0064,0.0288,0.0422,0.032,0.0256,0.0406,0.0219,0.0128,0.0149,-0.0155,0.0027,0.023,0.0091,-0.0203,-0.0352,-0.0198,-0.0091,-0.0069,-0.0198,-0.0288,-0.0352,-0.0395,-0.0438,-0.0566,-0.0742,0.0283,-0.0043,-0.0021,0.0027,0.0342,0.0785,0.0352,-0.024,-0.0497,0,0,0,-0.0112,0.0037,0.0208,0.0182,0.031,0.0539,0.0667,0.0267,-0.0117,0,0,0,0,0,0,0,-0.0027,0.0123,0.0304,0.0347,0.0475,0.0128,-0.0107,-0.0139,-0.0053,0.0091,0.0123,0.0027,-0.016,-0.0262,-0.0278,-0.0331,-0.0491,-0.0715,-0.0838,0.0518,0.0406,0.032,0.0326,0.0379,0.0336,-0.0075,-0.0491,-0.0224,0.0358,0.078,0.0966,0.0422,0.0139,0.0342,0.0347,0.0422,0.0577,0.0459,-0.0112,-0.0502,0,0,0,0,0,0,0,0,0,0,0,0,-0.0032,-0.0043,0.0107,0.016,0.0075,0.0363,0.0149,-0.0198,-0.0155,-0.0187,-0.0198,-0.0283,-0.0475,-0.0726,0,0.0101,0.0315,0.0448,0.0187,-0.0096,0,0,0,0,0,0.0,-0.0182,-0.0214,0.0064,0.0224,0.0352,0.0486,0.0299,0.0064,0,0,0,0,0,0,0,0,0,0,0,0,0,0,0,0,-0.0283,-0.0091,0,0,-0.0235,-0.0246,-0.0262,-0.0182,-0.0005,0.0214,0.0133,0,0,0,0.0171,0.0304,0.0262,0,0,0,0,0,-0.0144,-0.0326,-0.0278,0.0016,0.0326,0.0432,0.0502,0.04,0,0,0,0,0,0,0,0,0,0,0,0,0,0,0,0,0,0,-0.0363,-0.0315,0,0,0,0,0,0,0,0.0016,0,0,0,0,0,0,0,0,0,0,0,-0.0128,-0.0235,-0.0016,0.0278,0.0315,0.0299,0.0331,0,0,0,0,0,0,0,0,0,0,0,0,0,0,0,0,0,0,0,0,0.047,0.0796,0.0529,0.0395,0,0,0,0,0,0,0,0,0,0,0,0,0,0,0,0,-0.0053,-0.0027,0.016,0.0219,0.0112,0.0048,0,0,0,0,0,0,0,0,0,0,0,0,0,0,0,0,0,0,0,0,0,0,0.0096,0.0117,0.0256,0.0315,0.0016,-0.0139,0,0,0,0,0,0,0,0,0,0,0,0,0,0,0.0304,0.0198,0.0091,-0.0011,-0.0064,0,0,0,0,0,0,0,0,0,0,0,0,0,0,0,0,0,0,0,0,0,0,0,0,0,0,-0.0005,-0.0011,0,0,0,0,0,0,0,0,0,0,0,0,0,0,-0.0053,-0.0016,0.0027,0.0016,0.0048,0,0,0,0,0,0,0,0,0,0,0,0,0,0,0,0,0,0,0,0,0,0,0,0,0,0,0,0,0,0,0,0,0,0,0,0,0,0,0,0,0,0,-0.008,-0.0069,0.0032,0.0043,0.0037,0,0,0,0,0,0,0,0,0,0,0,0,0,0,0,0,0,0,0,0,0,0,0,0,0,0,0,0,0,0,0,0,0,0,0,0,0,0,0,0,0,0,0.0069,0.0144,0.0133,-0.0027,-0.0171,0,0,0,0,0,0,0,0,0,0,0,0,0,0,0,0,0,0,0,0,0,0,0,0,0,0,0,0,0,0,0,0,0,0,0,0,0,0,0,0,0,0,0,0.0101,0.0096,-0.0203,-0.039,0,0,0,0,0,0,0,0,0,0,0,0,0,0,0,0,0,0,0,0,0,0,0,0,0,0,0,0,0,0,0,0,0,0,0,0,0,0,0,0,0,0,0,-0.0037,-0.0427,-0.0657,-0.0534,0,0,0,0,0,0,0,0,0,0,0,0,0,0,0,0,0,0,0,0,0,0,0,0,0,0,0,0,0,0,0,0,0,0,0,0,0,0,0,0,0,0,0,0,-0.0203,-0.0411,0,0,0,0,0,0,0,0,0,0,0,0,0,0,0,0,0,0,0,0,0,0,0,0,0,0,0,0,0,0,0,0,0,0,0,0,0,0,0,0,0,0,0,0,0,0,0,0,0,0,0,0,0,0,0,0,0,0,0,0,0,0,0,0,0,0,0,0,0,0,0,0,0,0,0,0,0,0,0,0,0,0,0,0,0,0,0,0,0,0,0,0,0,0,0,0,0,0,0,0,0,0,0,0,0,0,0,0,0,0,0,0,0,0,0,0,0,0,0,0,0,0,0,0,0,0,0,0,0,0,0,0,0,0,0,0,0,0,0,0,0,0,0,0,0,0,0,0,0,0,0,0,0,0,0,0,0,0,0,0,0,0,0,0,0,0,0,0,0,0,0,0,0,0,0,0,0,0,0,0,0,0,0,0,0,0,0,0,0,0,0,0,0,0,0,0,0,0,0,0,0,0,0,0,0,0,0,0,0,0,0,0,0,0,0,0,0,0,0,0,0,0,0,0,0,0,0,0,0,0,0,0,0,0,0,0,0,0,0,0,0,0,0,0,0,0,0,0,0,0,0,0,0,0,0,0,0,0,0,0,0,0,0,0,0,0,0,0,0,0,0,0,0,0,0,0,0,0,0,0,0,0,0,0,0,0,0,0,0,0,0,0,0,0,0,0,0,0,0,0,0,0,0,0,0,0,0,0,0,0,0,0,0]}],[{"header":{"parameterUnit":"kt","parameterCategory":2,"dx":1,"dy":1,"la1":29.764190673828125,"la2":30.86408042907715,"lo1":-88.46762084960938,"lo2":-86.9344482421875,"nx":47,"ny":34,"refTime":"2022-10-30T00:00:00:Z","depth":"10","parameterNumber":3,"parameterNumberName":"V-component_of_CURRENTS"},"data":[-0.0053,-0.0609,-0.0432,-0.039,-0.0881,-0.1062,-0.063,-0.0176,-0.0053,-0.0064,-0.0043,-0.0021,-0.0043,-0.0091,-0.0128,-0.0128,-0.008,0.008,0.0368,0.0571,0.0539,0.0208,-0.0192,-0.0416,-0.0641,-0.0956,-0.1276,-0.1548,-0.1393,-0.0758,-0.0149,-0.086,-0.0993,-0.04,-0.0235,-0.0112,0.0011,0.0117,0.0133,0.0139,0.0101,0.0,-0.0117,-0.0219,-0.0272,-0.0246,-0.0176,0.0529,0.0032,-0.0294,-0.0464,-0.0742,-0.0481,-0.0235,-0.0112,-0.0101,-0.0101,-0.0069,-0.0043,-0.0048,-0.008,-0.0107,-0.0107,-0.0059,0.0048,0.0208,0.0438,0.0518,0.0422,0.0214,-0.0005,-0.023,-0.0577,-0.0865,-0.0934,-0.0929,-0.0966,-0.0961,-0.079,-0.1185,-0.1105,-0.0619,-0.0224,-0.0192,-0.0198,-0.0192,-0.0155,-0.0128,-0.0203,-0.0304,-0.04,-0.0432,-0.0406,-0.0347,0.0833,0.0694,0.0336,0.0016,-0.016,-0.0112,-0.0101,-0.0128,-0.0139,-0.0133,-0.0107,-0.008,-0.0064,-0.0075,-0.0096,-0.0101,-0.0053,0.0021,0.0112,0.023,0.0342,0.04,0.0395,0.0256,0.0139,-0.0048,-0.024,-0.031,-0.0464,-0.0785,-0.1367,-0.1442,-0.1356,-0.1532,-0.141,-0.1153,-0.0753,-0.0513,-0.0571,-0.0625,-0.0561,-0.0411,-0.0411,-0.047,-0.0523,-0.0534,-0.0491,0.0699,0.0737,0.0571,0.0283,0.0117,0.0011,-0.0069,-0.0117,-0.0139,-0.0144,-0.0133,-0.0107,-0.008,-0.008,-0.0091,-0.0101,-0.0069,-0.0011,0.0043,0.0107,0.0182,0.0272,0.039,0.0368,0.0331,0.0304,0.0246,0.0176,-0.0048,-0.0566,-0.1137,-0.1575,-0.165,-0.1522,-0.1799,-0.1762,-0.1826,-0.1639,-0.1404,-0.1201,-0.1175,-0.094,-0.0721,-0.0571,-0.0571,-0.0582,-0.0502,0.0481,0.0507,0.0422,0.0283,0.0176,0.0069,-0.0021,-0.0091,-0.0128,-0.0144,-0.0144,-0.0123,-0.0107,-0.0096,-0.0101,-0.0117,-0.0096,-0.0053,-0.0011,0.0027,0.0091,0.0187,0.031,0.039,0.0395,0.0395,0.0395,0.0347,0.0166,-0.0182,-0.0694,-0.1201,-0.1463,-0.1639,-0.1511,-0.1388,-0.1863,-0.1965,-0.2034,-0.1959,-0.1831,-0.1484,-0.1078,-0.0758,-0.0625,-0.0577,-0.0486,0.0411,0.0384,0.0342,0.0272,0.0203,0.0107,0.0011,-0.0069,-0.0112,-0.0133,-0.0133,-0.0133,-0.0133,-0.0128,-0.0133,-0.0144,-0.0128,-0.0091,-0.0059,-0.0016,0.0048,0.0149,0.0262,0.0352,0.0379,0.0379,0.0363,0.0326,0.0203,-0.0005,-0.0294,-0.0737,-0.1159,-0.1308,-0.1244,-0.11,-0.1121,-0.1345,-0.1821,-0.2013,-0.2061,-0.1954,-0.1356,-0.0715,-0.0603,-0.0539,-0.0448,0.0384,0.0342,0.0315,0.0272,0.0208,0.0117,0.0027,-0.0043,-0.008,-0.0096,-0.0112,-0.0128,-0.0149,-0.016,-0.0166,-0.0176,-0.016,-0.0133,-0.0091,-0.0043,0.0032,0.0128,0.0214,0.0283,0.0315,0.0326,0.0315,0.0278,0.0187,0.0053,-0.0128,-0.0502,-0.1014,-0.1185,-0.1052,-0.0694,-0.0662,-0.0913,-0.1367,-0.1564,-0.1741,-0.1901,-0.1543,-0.0641,-0.0144,-0.0053,0.0,0.0299,0.0262,0.0256,0.0246,0.0203,0.0117,0.0037,0.0,-0.0021,-0.0043,-0.008,-0.0117,-0.0149,-0.0176,-0.0187,-0.0203,-0.0198,-0.0171,-0.0128,-0.0069,0.0005,0.0085,0.0149,0.0192,0.023,0.0262,0.0267,0.0251,0.0192,0.0096,-0.0021,-0.0294,-0.0817,-0.1169,-0.1105,-0.0614,-0.0262,-0.032,-0.0774,-0.1132,-0.1377,-0.1463,-0.166,-0.1319,-0.0123,0.0491,0.047,0.0363,0.031,0.0235,0.0123,0.0096,0.0101,0.0053,0.0048,0.0043,0.0005,-0.0053,-0.0107,-0.0144,-0.0171,-0.0192,-0.0219,-0.0219,-0.0198,-0.016,-0.0107,-0.0043,0.0021,0.0064,0.0085,0.0128,0.0192,0.0251,0.0278,0.0246,0.0149,0.0043,-0.0208,-0.0635,-0.0982,-0.102,-0.0715,-0.0304,-0.0091,-0.0182,-0.0368,-0.0667,-0.0956,-0.1612,-0.213,-0.1313,-0.0272,-0.0021,0.0662,0.0577,0.0502,0.0235,-0.0005,0.0027,0.008,0.0117,0.0101,0.0027,-0.0059,-0.0101,-0.0096,-0.0128,-0.0192,-0.0262,-0.0235,-0.0214,-0.0192,-0.0155,-0.0107,-0.0059,-0.0032,-0.0043,-0.0032,0.0064,0.0198,0.0299,0.0331,0.0251,0.0101,-0.0128,-0.0459,-0.0737,-0.0763,-0.0651,-0.0475,-0.0299,-0.0208,-0.0101,-0.0133,-0.0416,-0.0881,-0.1692,-0.2077,-0.1869,-0.1474,0.055,0.0224,0.0427,0.0507,0.0128,0.0144,0.0219,0.0128,0.0091,0.0048,0.0064,0.0096,0.0123,-0.0043,-0.031,-0.0395,-0.0288,-0.023,-0.0208,-0.0192,-0.016,-0.0112,-0.0096,-0.0123,-0.0155,-0.0117,-0.0027,0.0117,0.0267,0.0294,0.0182,-0.0016,-0.0208,-0.0406,-0.0486,-0.0459,-0.0448,-0.0448,-0.0432,-0.0304,-0.0182,-0.0224,-0.0326,-0.0945,-0.1692,-0.2136,-0.2216,-0.0166,-0.0214,0.0603,0.1111,0.04,0.0342,0.0123,0.0128,0.0101,0.0128,0.0278,0.0144,0.0411,0.0219,-0.0272,-0.0523,-0.0331,-0.0187,-0.016,-0.0166,-0.0144,-0.0096,-0.0101,-0.0123,-0.0139,-0.0176,-0.023,-0.0144,0.0043,0.0219,0.0246,0.008,-0.0037,-0.0166,-0.023,-0.0219,-0.0262,-0.0368,-0.0491,-0.0534,-0.0384,-0.0251,-0.031,-0.0673,-0.0961,-0.1356,-0.1618,-0.071,-0.0358,0.102,0.0956,0.0673,0.0299,-0.0107,0.0587,0.071,-0.0016,-0.0251,-0.0534,0.0331,0.0272,0.0069,-0.0171,0.0005,0.0096,0.0128,0.0107,0.0059,0.0048,0.0005,0.0011,0.0011,-0.0032,-0.0107,-0.0133,-0.0032,0.0139,0.023,0.0091,-0.0011,-0.0139,-0.0091,-0.0043,-0.0059,-0.0203,-0.0406,-0.0534,-0.0518,-0.0374,-0.0315,-0.047,-0.0683,-0.0886,-0.0961,0,0,0.0406,0.0491,-0.0091,0.0075,0.039,0.079,0.0699,0.0352,0.0176,-0.0112,0,-0.0769,0.0144,0.0091,0.0235,0.0251,0.0256,0.0278,0.031,0.023,0.023,0.0117,0.0171,0.0272,0.0187,-0.0144,0.0214,0.0347,0.0374,0.0219,0.0133,0.0005,-0.0069,0.0011,0.0021,-0.0053,-0.0208,-0.0406,-0.0422,-0.0342,-0.0294,-0.0427,-0.0529,-0.0582,-0.0753,-0.0235,-0.008,0.0497,0.063,0.0176,0,0,0.0443,0.0278,0.0657,0.0683,0.0513,0.0283,-0.0876,0,0,0,0,0,0,0,0,0.0192,0.0,0.0053,0.0256,0.0262,-0.0096,0.0187,0.0315,0.0117,0.0246,0.0406,0.0966,0.0854,0.0464,0.0171,0.0075,-0.0059,-0.0262,-0.0214,-0.0155,-0.0208,-0.032,-0.0481,-0.0459,-0.0448,-0.0432,-0.0208,0.0502,0.0625,0.0801,0.0219,0.0256,0.047,0.0272,0,0,0,0.0635,0.0251,0.0192,0.0208,0.0182,0.0166,0.0176,0.0214,0.0123,0,0,0,0,0,0,0,0.0021,0.0011,0.0299,0.0358,0.047,0.0993,0.1062,0.0961,0.0721,0.0352,-0.0064,-0.0171,-0.0037,-0.008,-0.008,-0.0112,-0.0288,-0.0326,-0.024,-0.039,0.0027,0.0262,0.0133,0.047,0.0032,0.0518,0.0699,0.0667,0.0,0.0,0.0416,0.0774,0.0838,0.0454,0.0342,0.0294,0.0214,0.0299,0.047,0.024,0,0,0,0,0,0,0,0,0,0,0,0,0.0694,0.094,0.0892,0.0897,0.0667,0.0053,0.0235,0.0182,0.0053,0.0043,0.0064,-0.0032,-0.0192,-0.0203,0,0.0315,0.0176,0.0107,0.0214,0.0075,0,0,0,0,0,0.0619,0.0609,0.0721,0.047,0.0304,0.0251,0.0117,0.0272,0.0603,0,0,0,0,0,0,0,0,0,0,0,0,0,0,0,0,0.0598,0.0598,0,0,0.0379,0.0347,0.0155,0.0117,0.0053,-0.0075,-0.016,0,0,0,0.0416,0.0304,0.0518,0,0,0,0,0,0.0459,0.0427,0.0427,0.0438,0.039,0.0278,0.016,0.0299,0,0,0,0,0,0,0,0,0,0,0,0,0,0,0,0,0,0,0.0475,0.0347,0,0,0,0,0,0,0,-0.0155,0,0,0,0,0,0,0,0,0,0,0,0.0587,0.0566,0.0502,0.0518,0.0481,0.0358,0.0187,0,0,0,0,0,0,0,0,0,0,0,0,0,0,0,0,0,0,0,0,0.0694,0.0406,0.0342,0.0358,0,0,0,0,0,0,0,0,0,0,0,0,0,0,0,0,0.063,0.0699,0.0699,0.0651,0.0619,0.0561,0,0,0,0,0,0,0,0,0,0,0,0,0,0,0,0,0,0,0,0,0,0,0.0812,0.0683,0.0715,0.0,-0.0128,-0.0032,0,0,0,0,0,0,0,0,0,0,0,0,0,0,0.0908,0.0796,0.0758,0.0753,0.0817,0,0,0,0,0,0,0,0,0,0,0,0,0,0,0,0,0,0,0,0,0,0,0,0,0,0,-0.0262,-0.0064,0,0,0,0,0,0,0,0,0,0,0,0,0,0,0.0892,0.0817,0.0796,0.0822,0.0972,0,0,0,0,0,0,0,0,0,0,0,0,0,0,0,0,0,0,0,0,0,0,0,0,0,0,0,0,0,0,0,0,0,0,0,0,0,0,0,0,0,0,0.0518,0.0726,0.0785,0.086,0.0924,0,0,0,0,0,0,0,0,0,0,0,0,0,0,0,0,0,0,0,0,0,0,0,0,0,0,0,0,0,0,0,0,0,0,0,0,0,0,0,0,0,0,0.031,0.0603,0.071,0.0796,0.0806,0,0,0,0,0,0,0,0,0,0,0,0,0,0,0,0,0,0,0,0,0,0,0,0,0,0,0,0,0,0,0,0,0,0,0,0,0,0,0,0,0,0,0,0.0459,0.0609,0.0534,0.0625,0,0,0,0,0,0,0,0,0,0,0,0,0,0,0,0,0,0,0,0,0,0,0,0,0,0,0,0,0,0,0,0,0,0,0,0,0,0,0,0,0,0,0,0.0352,0.0016,0.0395,0.0502,0,0,0,0,0,0,0,0,0,0,0,0,0,0,0,0,0,0,0,0,0,0,0,0,0,0,0,0,0,0,0,0,0,0,0,0,0,0,0,0,0,0,0,0,-0.0539,0.0443,0,0,0,0,0,0,0,0,0,0,0,0,0,0,0,0,0,0,0,0,0,0,0,0,0,0,0,0,0,0,0,0,0,0,0,0,0,0,0,0,0,0,0,0,0,0,0,0,0,0,0,0,0,0,0,0,0,0,0,0,0,0,0,0,0,0,0,0,0,0,0,0,0,0,0,0,0,0,0,0,0,0,0,0,0,0,0,0,0,0,0,0,0,0,0,0,0,0,0,0,0,0,0,0,0,0,0,0,0,0,0,0,0,0,0,0,0,0,0,0,0,0,0,0,0,0,0,0,0,0,0,0,0,0,0,0,0,0,0,0,0,0,0,0,0,0,0,0,0,0,0,0,0,0,0,0,0,0,0,0,0,0,0,0,0,0,0,0,0,0,0,0,0,0,0,0,0,0,0,0,0,0,0,0,0,0,0,0,0,0,0,0,0,0,0,0,0,0,0,0,0,0,0,0,0,0,0,0,0,0,0,0,0,0,0,0,0,0,0,0,0,0,0,0,0,0,0,0,0,0,0,0,0,0,0,0,0,0,0,0,0,0,0,0,0,0,0,0,0,0,0,0,0,0,0,0,0,0,0,0,0,0,0,0,0,0,0,0,0,0,0,0,0,0,0,0,0,0,0,0,0,0,0,0,0,0,0,0,0,0,0,0,0,0,0,0,0,0,0,0,0,0,0,0,0,0,0,0,0,0,0,0,0]}]],[[{"header":{"parameterUnit":"kt","parameterCategory":2,"dx":1,"dy":1,"la1":29.764190673828125,"la2":30.86408042907715,"lo1":-88.46762084960938,"lo2":-86.9344482421875,"nx":47,"ny":34,"refTime":"2022-10-30T00:00:00:Z","depth":"12","parameterNumber":2,"parameterNumberName":"U-component_of_CURRENTS"},"data":[0.0048,-0.0331,-0.0491,-0.0406,0.0091,0.0972,0.1105,0.0571,0.0342,0.0347,0.0379,0.0406,0.0443,0.047,0.0486,0.0486,0.0464,0.047,0.0619,0.0801,0.0801,0.0678,0.0486,0.0262,0.0171,0.0133,0.0064,-0.0016,-0.0347,-0.0913,-0.0865,-0.0187,-0.0358,-0.0582,-0.0331,-0.0278,-0.0027,0.0059,0.0059,0.0021,0.0032,0.0101,0.0214,0.0347,0.0486,0.0593,0.0609,0.0582,0.0166,-0.008,0.016,0.0694,0.0753,0.039,0.0235,0.0272,0.032,0.0368,0.0422,0.047,0.0507,0.0523,0.0523,0.0518,0.0518,0.0571,0.0715,0.0849,0.0833,0.0705,0.0609,0.0513,0.0358,0.0149,-0.0101,-0.0107,-0.0107,-0.0374,-0.0384,-0.0005,-0.0064,-0.0406,-0.0278,-0.023,-0.0267,-0.0304,-0.0336,-0.0352,-0.0374,-0.0395,-0.0411,-0.0454,-0.055,-0.0651,0.1046,0.1143,0.1148,0.0929,0.0593,0.039,0.0299,0.0299,0.032,0.0347,0.0379,0.0427,0.0475,0.0513,0.0529,0.0539,0.0534,0.0545,0.0587,0.0678,0.0812,0.0945,0.0918,0.0769,0.0657,0.0603,0.0411,0.0016,-0.0342,-0.0523,-0.0481,-0.0219,-0.0224,-0.0059,0.0155,-0.0262,-0.0459,-0.0379,-0.032,-0.0358,-0.0304,-0.024,-0.0315,-0.0464,-0.0694,-0.094,-0.1175,0.0529,0.079,0.0742,0.0571,0.0475,0.0427,0.039,0.0368,0.0363,0.0374,0.039,0.0416,0.0448,0.0481,0.0507,0.0523,0.0539,0.0555,0.0598,0.0662,0.0747,0.0833,0.0886,0.0833,0.0726,0.0694,0.0699,0.0603,0.0384,0.0123,-0.0091,-0.0267,-0.0283,-0.0187,-0.0171,-0.0155,-0.0075,-0.0481,-0.0854,-0.078,-0.0545,-0.0363,-0.0235,-0.032,-0.0614,-0.0945,-0.1255,0.0256,0.0342,0.0427,0.0464,0.0464,0.0443,0.0416,0.04,0.039,0.0384,0.0379,0.0384,0.04,0.0432,0.047,0.0497,0.0513,0.0539,0.0577,0.0625,0.0673,0.0705,0.0726,0.0742,0.0747,0.0763,0.0828,0.0945,0.0993,0.0876,0.0737,0.0651,0.0582,0.04,0.0219,-0.0032,-0.0352,-0.0406,-0.0374,-0.0715,-0.0865,-0.0587,-0.0331,-0.0278,-0.0454,-0.0705,-0.0993,0.0278,0.0326,0.0374,0.0406,0.0422,0.0427,0.0427,0.0416,0.0395,0.0374,0.0347,0.0331,0.0336,0.0368,0.0406,0.0438,0.0459,0.0491,0.0529,0.0561,0.0582,0.0603,0.0635,0.0694,0.0758,0.0822,0.0892,0.0993,0.1105,0.1159,0.1127,0.1052,0.0881,0.0721,0.078,0.063,0.0283,-0.0272,-0.0715,-0.0865,-0.0806,-0.0662,-0.0406,-0.0214,-0.0331,-0.0539,-0.0838,0.032,0.0347,0.0368,0.0384,0.04,0.0416,0.0422,0.0411,0.0374,0.0336,0.031,0.0299,0.031,0.0326,0.0347,0.0374,0.04,0.0438,0.0475,0.0497,0.0518,0.0545,0.0598,0.0683,0.0774,0.086,0.0924,0.0977,0.1025,0.1052,0.1057,0.1057,0.0993,0.0929,0.0918,0.0876,0.0753,0.047,0.0048,-0.0587,-0.1201,-0.1372,-0.1078,-0.0518,-0.0203,-0.0304,-0.0561,0.0155,0.023,0.0299,0.0342,0.0363,0.0379,0.0384,0.0374,0.0342,0.0315,0.0299,0.031,0.0326,0.0336,0.0352,0.0363,0.0379,0.04,0.0432,0.0464,0.0497,0.0545,0.0614,0.0699,0.0806,0.0908,0.0982,0.1014,0.102,0.1014,0.0982,0.0977,0.0934,0.0838,0.0849,0.0881,0.0817,0.0758,0.0566,0.0166,-0.047,-0.1351,-0.1821,-0.1554,-0.0897,-0.0379,-0.0448,-0.0155,-0.0032,0.0053,0.016,0.0278,0.0352,0.0384,0.039,0.0374,0.0358,0.0363,0.0374,0.039,0.0395,0.0395,0.04,0.0411,0.0416,0.0438,0.047,0.0523,0.0587,0.0662,0.0763,0.0913,0.1068,0.1153,0.118,0.1132,0.1052,0.1014,0.1014,0.0977,0.0849,0.0673,0.0598,0.0641,0.0689,0.0726,0.0667,0.0219,-0.0507,-0.1175,-0.1767,-0.1676,-0.1084,-0.086,0.0379,0.0545,0.0582,0.0427,0.0358,0.0432,0.0475,0.0443,0.0416,0.0427,0.0464,0.0491,0.0459,0.0395,0.0379,0.0427,0.047,0.0486,0.0491,0.0518,0.0561,0.0619,0.0689,0.078,0.0897,0.1014,0.1111,0.1169,0.1185,0.1153,0.1095,0.1046,0.0956,0.0758,0.0507,0.0315,0.0262,0.0374,0.0523,0.0587,0.0587,0.0443,0.0139,-0.032,-0.1164,-0.1554,-0.1431,0.0812,0.0849,0.0769,0.0689,0.0347,0.016,0.0336,0.0379,0.0374,0.0368,0.0272,0.0171,0.016,0.0096,0.0182,0.0406,0.0518,0.0545,0.0539,0.0534,0.0555,0.0582,0.0614,0.0635,0.0651,0.0726,0.0865,0.102,0.1105,0.1116,0.1057,0.0988,0.0913,0.0763,0.0545,0.0342,0.0176,0.0091,0.0149,0.0379,0.055,0.0518,0.0459,0.0422,0.0059,-0.0667,-0.1127,0.0005,-0.0347,-0.0705,-0.0555,0.0117,0.0416,0.0336,0.0155,0.0085,0.016,0.032,0.0283,-0.0053,-0.0059,0.0326,0.0513,0.0593,0.0619,0.055,0.0502,0.047,0.0454,0.0448,0.0438,0.04,0.0384,0.0464,0.0598,0.0726,0.0806,0.0806,0.0758,0.0715,0.0667,0.0587,0.0454,0.0278,0.0096,-0.0027,-0.0016,0.0149,0.0283,0.0214,0.0069,0.0085,-0.0128,-0.0518,0.0614,0.0192,-0.0491,-0.0326,0.0096,0.0331,-0.0363,-0.0673,-0.008,-0.0011,-0.0128,0,0.0155,0,0.0566,0.0753,0.078,0.0705,0.0561,0.0513,0.0507,0.0507,0.047,0.0432,0.0384,0.0315,0.0256,0.0299,0.0304,0.039,0.0438,0.0432,0.0427,0.04,0.0352,0.0299,0.0262,0.0176,0.0032,-0.0101,-0.016,-0.0128,-0.0107,-0.0101,-0.0139,-0.0203,-0.023,0,0,0,0,0,0.0539,0.0278,0,0,0,0,0,0,0,0,0,0,0,0,0,0,0,0,0,0,0,0.031,0.0443,0.0529,0.0299,0.0251,0.0432,0.0523,0.0288,0.0021,-0.0016,0.0064,0.0112,0.0064,-0.0027,-0.0128,-0.024,-0.0272,-0.0192,-0.0139,-0.0224,-0.047,0,0,0,0,0,0,0,0,0,0,0,0,0,0,0,0,0,0,0,0,0,0,0,0,0,0,0,0,0,0.0144,0.0224,0.0043,-0.0171,-0.0336,-0.0304,-0.0224,-0.0352,-0.0208,-0.0112,-0.0069,-0.0085,-0.0171,-0.0208,-0.0246,-0.0315,-0.0427,-0.0566,0,0,0,0,0,0,0,0,0,0,0,0,0,0,0,0,0,0,0,0,0,0,0,0,0,0,0,0,0,0,0,0,0,0,0,0,-0.0069,0.0085,0.0144,0.0043,-0.0123,-0.016,-0.0128,-0.0176,-0.0336,-0.055,-0.0694,0,0,0,0,0,0,0,0,0,0,0,0,0,0,0,0,0,0,0,0,0,0,0,0,0,0,0,0,0,0,0,0,0,0,0,0,0,0,0.0272,0.0166,-0.0112,-0.0021,-0.0048,-0.0053,-0.0091,-0.0283,-0.0507,0,0,0,0,0,0,0,0,0,0,0,0,0,0,0,0,0,0,0,0,0,0,0,0,0,0,0,0,0,0,0,0,0,0,0,0,0,0,0,0,0,-0.0198,-0.0187,-0.0139,0.0048,0.0256,0.0262,0,0,0,0,0,0,0,0,0,0,0,0,0,0,0,0,0,0,0,0,0,0,0,0,0,0,0,0,0,0,0,0,0,0,0,0,0,0,0,0,0,0,0,0,0,0,-0.0027,0,0,0,0,0,0,0,0,0,0,0,0,0,0,0,0,0,0,0,0,0,0,0,0,0,0,0,0,0,0,0,0,0,0,0,0,0,0,0,0,0,0,0,0,0,0,0,0,0,0,0,0,0,0,0,0,0,0,0,0,0,0,0,0,0,0,0,0,0,0,0,0,0,0,0,0,0,0,0,0,0,0,0,0,0,0,0,0,0,0,0,0,0,0,0,0,0,0,0,0,0,0,0,0,0,0,0,0,0,0,0,0,0,0,0,0,0,0,0,0,0,0,0,0,0,0,0,0,0,0,0,0,0,0,0,0,0,0,0,0,0,0,0,0,0,0,0,0,0,0,0,0,0,0,0,0,0,0,0,0,0,0,0,0,0,0,0,0,0,0,0,0,0,0,0,0,0,0,0,0,0,0,0,0,0,0,0,0,0,0,0,0,0,0,0,0,0,0,0,0,0,0,0,0,0,0,0,0,0,0,0,0,0,0,0,0,0,0,0,0,0,0,0,0,0,0,0,0,0,0,0,0,0,0,0,0,0,0,0,0,0,0,0,0,0,0,0,0,0,0,0,0,0,0,0,0,0,0,0,0,0,0,0,0,0,0,0,0,0,0,0,0,0,0,0,0,0,0,0,0,0,0,0,0,0,0,0,0,0,0,0,0,0,0,0,0,0,0,0,0,0,0,0,0,0,0,0,0,0,0,0,0,0,0,0,0,0,0,0,0,0,0,0,0,0,0,0,0,0,0,0,0,0,0,0,0,0,0,0,0,0,0,0,0,0,0,0,0,0,0,0,0,0,0,0,0,0,0,0,0,0,0,0,0,0,0,0,0,0,0,0,0,0,0,0,0,0,0,0,0,0,0,0,0,0,0,0,0,0,0,0,0,0,0,0,0,0,0,0,0,0,0,0,0,0,0,0,0,0,0,0,0,0,0,0,0,0,0,0,0,0,0,0,0,0,0,0,0,0,0,0,0,0,0,0,0,0,0,0,0,0,0,0,0,0,0,0,0,0,0,0,0,0,0,0,0,0,0,0,0,0,0,0,0,0,0,0,0,0,0,0,0,0,0,0,0,0,0,0,0,0,0,0,0,0,0,0,0,0,0,0,0,0,0,0,0,0,0,0,0,0,0,0,0,0,0,0,0,0,0,0,0,0,0,0,0,0,0,0,0,0,0,0,0,0,0,0,0,0,0,0,0,0,0,0,0,0,0,0,0,0,0,0,0,0,0,0,0,0,0,0,0,0,0,0,0,0,0,0,0,0,0,0,0,0,0,0,0,0,0,0,0,0,0,0,0,0,0,0,0,0,0,0,0,0,0,0,0,0,0,0,0,0,0,0,0,0,0,0,0,0,0,0,0,0,0,0,0,0,0,0,0,0,0,0,0,0,0,0,0,0,0,0,0,0,0,0,0,0,0,0,0,0,0,0,0,0,0,0,0,0,0,0,0,0,0,0,0,0,0,0,0,0,0,0,0,0,0,0,0,0,0,0,0,0,0,0,0,0,0,0,0,0,0,0,0,0,0,0,0,0,0,0,0,0,0,0,0,0,0,0,0,0,0,0,0,0,0,0,0,0,0,0,0,0]}],[{"header":{"parameterUnit":"kt","parameterCategory":2,"dx":1,"dy":1,"la1":29.764190673828125,"la2":30.86408042907715,"lo1":-88.46762084960938,"lo2":-86.9344482421875,"nx":47,"ny":34,"refTime":"2022-10-30T00:00:00:Z","depth":"12","parameterNumber":3,"parameterNumberName":"V-component_of_CURRENTS"},"data":[0.032,-0.0075,0.0112,0.0166,-0.0368,-0.0929,-0.0646,-0.0176,-0.0053,-0.0059,-0.0043,-0.0021,-0.0043,-0.0091,-0.0128,-0.0128,-0.008,0.008,0.0358,0.0561,0.0529,0.0208,-0.0192,-0.0411,-0.0641,-0.095,-0.1265,-0.1538,-0.1393,-0.079,-0.0374,-0.1041,-0.1089,-0.0432,-0.0256,-0.0128,-0.0021,0.0107,0.0085,0.0107,0.0085,-0.0011,-0.0128,-0.0224,-0.0272,-0.0251,-0.0182,0.0582,0.0331,0.0064,-0.023,-0.0593,-0.0497,-0.0235,-0.0112,-0.0101,-0.0101,-0.0069,-0.0048,-0.0048,-0.008,-0.0112,-0.0107,-0.0059,0.0048,0.0208,0.0432,0.0513,0.0416,0.0214,-0.0005,-0.0224,-0.0566,-0.0854,-0.0929,-0.0924,-0.0982,-0.1095,-0.11,-0.1426,-0.1255,-0.0737,-0.0278,-0.0219,-0.023,-0.0214,-0.0187,-0.0182,-0.0251,-0.0336,-0.0422,-0.0438,-0.0411,-0.0347,0.0651,0.0593,0.0331,-0.0005,-0.0149,-0.0112,-0.0101,-0.0123,-0.0133,-0.0128,-0.0107,-0.008,-0.0064,-0.008,-0.0096,-0.0101,-0.0053,0.0021,0.0112,0.0224,0.0336,0.0395,0.039,0.0256,0.0144,-0.0043,-0.023,-0.0294,-0.0443,-0.079,-0.1324,-0.1436,-0.1516,-0.1725,-0.1564,-0.1303,-0.0897,-0.0619,-0.0635,-0.0742,-0.0721,-0.0593,-0.0587,-0.0598,-0.0587,-0.0587,-0.0507,0.0593,0.0609,0.0475,0.0272,0.0117,0.0011,-0.0069,-0.0117,-0.0139,-0.0144,-0.0133,-0.0112,-0.0085,-0.008,-0.0096,-0.0101,-0.0069,-0.0011,0.0043,0.0107,0.0182,0.0272,0.0384,0.0368,0.0326,0.0304,0.0256,0.0192,-0.0032,-0.0545,-0.102,-0.1415,-0.1564,-0.1564,-0.1874,-0.1879,-0.1959,-0.1735,-0.1474,-0.1265,-0.126,-0.1089,-0.0961,-0.0838,-0.0785,-0.0758,-0.063,0.0475,0.0502,0.0422,0.0278,0.0171,0.0069,-0.0021,-0.0091,-0.0128,-0.0144,-0.0144,-0.0128,-0.0107,-0.0096,-0.0101,-0.0112,-0.0091,-0.0048,-0.0011,0.0032,0.0096,0.0192,0.031,0.039,0.0395,0.0395,0.04,0.0358,0.0176,-0.0171,-0.0651,-0.1127,-0.134,-0.1548,-0.1468,-0.1393,-0.1933,-0.2168,-0.2162,-0.2018,-0.1885,-0.1522,-0.118,-0.095,-0.0849,-0.0769,-0.0667,0.0411,0.0384,0.0336,0.0267,0.0198,0.0101,0.0005,-0.0069,-0.0112,-0.0133,-0.0133,-0.0128,-0.0128,-0.0128,-0.0128,-0.0139,-0.0123,-0.0085,-0.0053,-0.0016,0.0053,0.0155,0.0267,0.0358,0.0384,0.0379,0.0368,0.0331,0.0214,0.0005,-0.0288,-0.0726,-0.1084,-0.118,-0.1143,-0.1078,-0.11,-0.1329,-0.1847,-0.2024,-0.2066,-0.1954,-0.141,-0.078,-0.0667,-0.0598,-0.0507,0.0384,0.0342,0.0315,0.0272,0.0203,0.0112,0.0027,-0.0037,-0.0075,-0.0091,-0.0101,-0.0117,-0.0139,-0.0149,-0.0155,-0.0166,-0.0155,-0.0128,-0.0085,-0.0037,0.0037,0.0133,0.0219,0.0288,0.032,0.0331,0.032,0.0283,0.0192,0.0059,-0.0123,-0.0491,-0.095,-0.11,-0.0977,-0.0683,-0.0646,-0.0886,-0.1297,-0.1511,-0.1676,-0.1858,-0.157,-0.0699,-0.0155,-0.0048,-0.0005,0.0352,0.031,0.0294,0.0256,0.0203,0.0117,0.0043,0.0005,-0.0011,-0.0032,-0.0064,-0.0101,-0.0139,-0.0166,-0.0176,-0.0192,-0.0187,-0.0166,-0.0123,-0.0064,0.0011,0.0091,0.0149,0.0198,0.0235,0.0262,0.0272,0.0256,0.0198,0.0096,-0.0016,-0.0278,-0.0737,-0.1062,-0.1014,-0.0598,-0.0262,-0.031,-0.0726,-0.1073,-0.1335,-0.1399,-0.1548,-0.1281,-0.0198,0.0459,0.0464,0.0507,0.0464,0.0416,0.0294,0.0176,0.0112,0.0059,0.0059,0.0053,0.0016,-0.0043,-0.0096,-0.0139,-0.0166,-0.0182,-0.0208,-0.0208,-0.0192,-0.0155,-0.0101,-0.0043,0.0021,0.0064,0.0085,0.0123,0.0176,0.024,0.0267,0.0246,0.0155,0.0048,-0.0187,-0.0561,-0.0886,-0.0934,-0.0678,-0.0294,-0.0085,-0.0171,-0.0336,-0.0657,-0.095,-0.1474,-0.1906,-0.1116,-0.0256,0.0005,0.0705,0.0635,0.0667,0.0587,0.0278,0.0075,0.0085,0.0123,0.0112,0.0032,-0.0048,-0.0096,-0.0096,-0.0128,-0.0192,-0.0256,-0.0235,-0.0214,-0.0187,-0.0155,-0.0107,-0.0059,-0.0027,-0.0037,-0.0032,0.0043,0.0176,0.0262,0.0294,0.0235,0.0107,-0.0107,-0.0395,-0.0657,-0.0705,-0.0603,-0.0443,-0.0278,-0.0192,-0.0091,-0.0128,-0.0406,-0.086,-0.1479,-0.1799,-0.166,-0.1324,0.0187,0.0219,0.0603,0.079,0.0342,0.0187,0.0219,0.0144,0.0123,0.0059,0.0069,0.0107,0.0192,-0.0059,-0.0288,-0.039,-0.0288,-0.0224,-0.0208,-0.0187,-0.0155,-0.0101,-0.0085,-0.0107,-0.0117,-0.0075,0.0005,0.0123,0.0224,0.0256,0.0171,-0.0005,-0.0182,-0.0368,-0.0443,-0.0411,-0.0384,-0.039,-0.0379,-0.0278,-0.0171,-0.0219,-0.0358,-0.0854,-0.1377,-0.1826,-0.1965,-0.0374,0.0053,0.0785,0.0844,0.0454,0.0299,0.0075,0.0219,0.0101,0.0005,0.0101,0.0032,0.0379,0.0347,-0.0176,-0.0438,-0.0262,-0.0133,-0.0075,-0.0075,-0.0075,-0.0027,-0.0011,-0.0037,-0.0048,-0.0059,-0.0101,-0.0027,0.0117,0.0214,0.0203,0.008,-0.0032,-0.0155,-0.0203,-0.0176,-0.0208,-0.0288,-0.0406,-0.0459,-0.0347,-0.0208,-0.0267,-0.0539,-0.0742,-0.1095,-0.1292,0.0187,0.0507,0.0529,0.0481,0.0299,0.0198,0.023,0.095,0.0448,-0.0214,-0.0304,0,0.0005,0,0.0085,-0.0139,0.0027,0.0112,0.0208,0.0256,0.0278,0.0251,0.0267,0.0235,0.0256,0.0224,0.0053,0.0048,0.016,0.0219,0.0246,0.0149,0.0048,-0.0075,-0.0021,0.0027,-0.0027,-0.0128,-0.0288,-0.0406,-0.0395,-0.0262,-0.023,-0.0294,-0.0454,-0.0625,-0.0742,0,0,0,0,0,0.0507,0.0785,0,0,0,0,0,0,0,0,0,0,0,0,0,0,0,0,0,0,0,0.032,0.0155,0.039,0.0502,0.0518,0.0464,0.0368,0.0336,0.0101,0.0128,0.0107,0.0043,-0.0059,-0.0251,-0.0262,-0.024,-0.0262,-0.0294,-0.0331,-0.04,-0.0662,0,0,0,0,0,0,0,0,0,0,0,0,0,0,0,0,0,0,0,0,0,0,0,0,0,0,0,0,0,0.0395,0.04,0.0459,0.0619,0.103,0.0982,0.0513,0.0182,0.0107,-0.0037,-0.0166,-0.0117,-0.0112,-0.0192,-0.0208,-0.0336,-0.0331,-0.0379,0,0,0,0,0,0,0,0,0,0,0,0,0,0,0,0,0,0,0,0,0,0,0,0,0,0,0,0,0,0,0,0,0,0,0,0,0.0587,0.0358,-0.0043,-0.0128,0.0091,-0.0005,-0.0048,0.0005,-0.0117,-0.0176,-0.0176,0,0,0,0,0,0,0,0,0,0,0,0,0,0,0,0,0,0,0,0,0,0,0,0,0,0,0,0,0,0,0,0,0,0,0,0,0,0,0.0278,0.0368,0.0432,0.0224,0.0107,0.0166,0.0117,0.0021,-0.0037,0,0,0,0,0,0,0,0,0,0,0,0,0,0,0,0,0,0,0,0,0,0,0,0,0,0,0,0,0,0,0,0,0,0,0,0,0,0,0,0,0,0.031,0.0246,0.0235,0.0182,0.0166,0.0075,0,0,0,0,0,0,0,0,0,0,0,0,0,0,0,0,0,0,0,0,0,0,0,0,0,0,0,0,0,0,0,0,0,0,0,0,0,0,0,0,0,0,0,0,0,0,0.0096,0,0,0,0,0,0,0,0,0,0,0,0,0,0,0,0,0,0,0,0,0,0,0,0,0,0,0,0,0,0,0,0,0,0,0,0,0,0,0,0,0,0,0,0,0,0,0,0,0,0,0,0,0,0,0,0,0,0,0,0,0,0,0,0,0,0,0,0,0,0,0,0,0,0,0,0,0,0,0,0,0,0,0,0,0,0,0,0,0,0,0,0,0,0,0,0,0,0,0,0,0,0,0,0,0,0,0,0,0,0,0,0,0,0,0,0,0,0,0,0,0,0,0,0,0,0,0,0,0,0,0,0,0,0,0,0,0,0,0,0,0,0,0,0,0,0,0,0,0,0,0,0,0,0,0,0,0,0,0,0,0,0,0,0,0,0,0,0,0,0,0,0,0,0,0,0,0,0,0,0,0,0,0,0,0,0,0,0,0,0,0,0,0,0,0,0,0,0,0,0,0,0,0,0,0,0,0,0,0,0,0,0,0,0,0,0,0,0,0,0,0,0,0,0,0,0,0,0,0,0,0,0,0,0,0,0,0,0,0,0,0,0,0,0,0,0,0,0,0,0,0,0,0,0,0,0,0,0,0,0,0,0,0,0,0,0,0,0,0,0,0,0,0,0,0,0,0,0,0,0,0,0,0,0,0,0,0,0,0,0,0,0,0,0,0,0,0,0,0,0,0,0,0,0,0,0,0,0,0,0,0,0,0,0,0,0,0,0,0,0,0,0,0,0,0,0,0,0,0,0,0,0,0,0,0,0,0,0,0,0,0,0,0,0,0,0,0,0,0,0,0,0,0,0,0,0,0,0,0,0,0,0,0,0,0,0,0,0,0,0,0,0,0,0,0,0,0,0,0,0,0,0,0,0,0,0,0,0,0,0,0,0,0,0,0,0,0,0,0,0,0,0,0,0,0,0,0,0,0,0,0,0,0,0,0,0,0,0,0,0,0,0,0,0,0,0,0,0,0,0,0,0,0,0,0,0,0,0,0,0,0,0,0,0,0,0,0,0,0,0,0,0,0,0,0,0,0,0,0,0,0,0,0,0,0,0,0,0,0,0,0,0,0,0,0,0,0,0,0,0,0,0,0,0,0,0,0,0,0,0,0,0,0,0,0,0,0,0,0,0,0,0,0,0,0,0,0,0,0,0,0,0,0,0,0,0,0,0,0,0,0,0,0,0,0,0,0,0,0,0,0,0,0,0,0,0,0,0,0,0,0,0,0,0,0,0,0,0,0,0,0,0,0,0,0,0,0,0,0,0,0,0,0,0,0,0,0,0,0,0,0,0,0,0,0,0,0,0,0,0,0,0,0,0,0,0,0,0,0,0,0,0,0,0,0,0,0,0,0,0,0,0,0,0,0,0,0,0,0,0,0,0,0,0,0,0,0,0,0,0,0,0,0,0,0,0,0,0,0,0,0,0,0,0,0,0,0,0,0,0,0,0,0,0,0,0,0,0,0,0,0,0,0,0,0,0,0,0,0,0,0,0,0,0,0,0,0,0,0,0,0,0,0,0,0,0,0,0,0,0,0,0,0,0,0,0,0,0,0,0,0,0,0,0,0,0,0,0,0,0,0,0,0,0,0]}]],[[{"header":{"parameterUnit":"kt","parameterCategory":2,"dx":1,"dy":1,"la1":29.764190673828125,"la2":30.86408042907715,"lo1":-88.46762084960938,"lo2":-86.9344482421875,"nx":47,"ny":34,"refTime":"2022-10-30T00:00:00:Z","depth":"15","parameterNumber":2,"parameterNumberName":"U-component_of_CURRENTS"},"data":[-0.0278,-0.0368,-0.0331,-0.0251,-0.0112,0.0443,0.0806,0.0545,0.0342,0.0352,0.0384,0.0416,0.0448,0.047,0.0486,0.0481,0.0464,0.047,0.0619,0.0817,0.0817,0.0689,0.0486,0.0262,0.0171,0.0117,-0.0059,-0.0235,-0.0529,-0.0934,-0.0956,-0.063,-0.0737,-0.0731,-0.0459,-0.0363,-0.0075,0.0032,-0.0037,-0.0043,0.0011,0.0107,0.023,0.0358,0.0486,0.0598,0.0614,0.0053,-0.0251,-0.0406,-0.0304,0.0203,0.0529,0.0368,0.0235,0.0272,0.0326,0.0374,0.0427,0.0475,0.0507,0.0523,0.0523,0.0518,0.0518,0.0577,0.0715,0.0849,0.0833,0.071,0.0603,0.0507,0.0347,0.0133,-0.0117,-0.0278,-0.0593,-0.087,-0.0828,-0.0657,-0.0555,-0.0657,-0.0454,-0.0336,-0.04,-0.0459,-0.0491,-0.0502,-0.0502,-0.0459,-0.0438,-0.047,-0.055,-0.0646,0.0673,0.0657,0.0646,0.0598,0.0513,0.0384,0.0299,0.0299,0.032,0.0347,0.0384,0.0432,0.0481,0.0513,0.0529,0.0534,0.0539,0.055,0.0593,0.0678,0.0812,0.094,0.0913,0.0763,0.0651,0.0587,0.039,0.0,-0.0352,-0.0513,-0.0475,-0.0497,-0.063,-0.0582,-0.0278,-0.0555,-0.0673,-0.063,-0.0641,-0.0683,-0.0662,-0.0667,-0.0715,-0.0828,-0.0988,-0.1153,-0.1292,0.0454,0.0673,0.0673,0.0555,0.0475,0.0427,0.039,0.0368,0.0363,0.0374,0.039,0.0416,0.0448,0.0486,0.0513,0.0529,0.0539,0.0561,0.0603,0.0667,0.0747,0.0833,0.0886,0.0833,0.0726,0.0689,0.0694,0.0598,0.0384,0.0155,-0.0021,-0.0182,-0.023,-0.0336,-0.0454,-0.0448,-0.0438,-0.0721,-0.103,-0.0998,-0.0833,-0.0769,-0.0742,-0.0838,-0.1105,-0.1388,-0.1639,0.0256,0.0347,0.0432,0.047,0.0464,0.0438,0.0411,0.0395,0.0384,0.0384,0.0379,0.0384,0.0406,0.0438,0.0475,0.0497,0.0518,0.0545,0.0582,0.063,0.0673,0.0705,0.0731,0.0747,0.0747,0.0758,0.0828,0.094,0.0993,0.0902,0.0785,0.0678,0.0566,0.0374,0.0214,-0.0166,-0.0545,-0.0689,-0.0667,-0.0929,-0.1089,-0.0876,-0.0747,-0.0747,-0.0972,-0.1223,-0.149,0.0278,0.0326,0.0379,0.0411,0.0422,0.0427,0.0422,0.0411,0.0395,0.0374,0.0352,0.0336,0.0342,0.0374,0.0411,0.0443,0.047,0.0497,0.0534,0.0566,0.0587,0.0609,0.0641,0.0694,0.0763,0.0822,0.0892,0.0988,0.1105,0.1164,0.1132,0.1025,0.0812,0.0667,0.0705,0.0566,0.0235,-0.04,-0.0956,-0.1137,-0.1078,-0.0908,-0.0705,-0.0571,-0.0737,-0.0993,-0.1303,0.0315,0.0342,0.0368,0.0384,0.04,0.0416,0.0422,0.0411,0.0379,0.0342,0.0315,0.031,0.0315,0.0331,0.0352,0.0379,0.0406,0.0443,0.0481,0.0507,0.0529,0.055,0.0603,0.0683,0.0774,0.0854,0.0924,0.0977,0.102,0.1052,0.1057,0.1025,0.0897,0.079,0.0822,0.0844,0.0694,0.0384,-0.0117,-0.0801,-0.1356,-0.1516,-0.1292,-0.0737,-0.0577,-0.0699,-0.0982,0.0133,0.0214,0.0283,0.0336,0.0363,0.0379,0.0384,0.0379,0.0347,0.032,0.031,0.032,0.0331,0.0342,0.0352,0.0368,0.0384,0.0406,0.0438,0.047,0.0502,0.055,0.0614,0.0699,0.0801,0.0902,0.0977,0.1009,0.102,0.1009,0.0977,0.094,0.0854,0.0742,0.0726,0.0806,0.0806,0.0726,0.0448,0.0016,-0.0545,-0.1377,-0.1895,-0.1762,-0.1185,-0.0758,-0.086,0.0117,0.0246,0.0304,0.0288,0.0294,0.0358,0.039,0.0395,0.0379,0.0368,0.0368,0.0384,0.039,0.0395,0.0395,0.04,0.0411,0.0422,0.0438,0.0475,0.0523,0.0587,0.0657,0.0747,0.0849,0.0956,0.1036,0.11,0.1095,0.1041,0.1004,0.0977,0.0902,0.0758,0.0609,0.0571,0.063,0.0689,0.0721,0.0662,0.0214,-0.0491,-0.1164,-0.1863,-0.1858,-0.1367,-0.118,0.0854,0.1068,0.0897,0.0571,0.0374,0.0416,0.047,0.0448,0.0427,0.0438,0.0464,0.0486,0.0454,0.0395,0.0379,0.0422,0.0464,0.0475,0.0486,0.0513,0.0555,0.0614,0.0673,0.0731,0.079,0.0854,0.0913,0.0982,0.102,0.1036,0.102,0.0977,0.087,0.0683,0.0481,0.0326,0.0278,0.0374,0.0518,0.0582,0.0593,0.0454,0.0187,-0.0283,-0.1249,-0.181,-0.1676,0.0342,0.0214,0.0053,-0.0021,-0.0027,0.0133,0.0406,0.0475,0.039,0.0368,0.0267,0.0182,0.0176,0.0091,0.016,0.04,0.0507,0.0534,0.0523,0.0518,0.0518,0.0529,0.0545,0.0566,0.0614,0.0657,0.0699,0.0763,0.0897,0.095,0.0934,0.0892,0.0833,0.071,0.0539,0.0363,0.0219,0.0149,0.0192,0.0374,0.0534,0.0475,0.0384,0.0304,-0.0005,-0.071,-0.1372,0,0,-0.0347,-0.0459,-0.024,0.0219,0.0278,-0.0059,-0.0016,0.0075,0.0198,0,0,0,0,0,0,0,0,0,0,0,0,0,0.0432,0.0406,0.047,0.0582,0.0598,0.0662,0.0747,0.0747,0.0705,0.0657,0.0582,0.0459,0.0304,0.0149,0.0048,0.0027,0.0069,0.0112,0.0048,-0.0085,-0.0043,-0.0198,-0.063,0,0,0,0,0,0,0.0037,-0.0246,0,0,0,0,0,0,0,0,0,0,0,0,0,0,0,0,0,0,0.0368,0.0384,0.0459,0.04,0.0416,0.0384,0.039,0.039,0.0347,0.0283,0.0214,0.0187,0.0112,0.0016,-0.0064,-0.0107,-0.0117,-0.0144,-0.0208,-0.023,-0.024,0,0,0,0,0,0,0,0,0,0,0,0,0,0,0,0,0,0,0,0,0,0,0,0,0,0,0,0,0.0256,0.0283,0.0464,0.04,0.0304,0.0182,-0.0011,-0.0043,-0.0032,0.0,0.0064,0.0059,0.0011,-0.0069,-0.0091,-0.0048,-0.0032,-0.0149,-0.0363,0,0,0,0,0,0,0,0,0,0,0,0,0,0,0,0,0,0,0,0,0,0,0,0,0,0,0,0,0,0,0,0,0,0,0,-0.0283,-0.0347,-0.0208,-0.0112,-0.0021,0.0016,-0.0032,-0.0021,-0.0048,-0.0139,-0.0251,-0.0379,0,0,0,0,0,0,0,0,0,0,0,0,0,0,0,0,0,0,0,0,0,0,0,0,0,0,0,0,0,0,0,0,0,0,0,0,0,0,0.024,0.0288,0.0096,0.0048,0.0101,0.0027,-0.0096,-0.0283,-0.0475,0,0,0,0,0,0,0,0,0,0,0,0,0,0,0,0,0,0,0,0,0,0,0,0,0,0,0,0,0,0,0,0,0,0,0,0,0,0,0,0,0,0.0112,0.0128,0.0155,0.0166,-0.0005,-0.0176,0,0,0,0,0,0,0,0,0,0,0,0,0,0,0,0,0,0,0,0,0,0,0,0,0,0,0,0,0,0,0,0,0,0,0,0,0,0,0,0,0,0,-0.0139,-0.008,0.0091,0.0288,0.0326,0,0,0,0,0,0,0,0,0,0,0,0,0,0,0,0,0,0,0,0,0,0,0,0,0,0,0,0,0,0,0,0,0,0,0,0,0,0,0,0,0,0,0,0,0,0,-0.0085,0,0,0,0,0,0,0,0,0,0,0,0,0,0,0,0,0,0,0,0,0,0,0,0,0,0,0,0,0,0,0,0,0,0,0,0,0,0,0,0,0,0,0,0,0,0,0,0,0,0,0,0,0,0,0,0,0,0,0,0,0,0,0,0,0,0,0,0,0,0,0,0,0,0,0,0,0,0,0,0,0,0,0,0,0,0,0,0,0,0,0,0,0,0,0,0,0,0,0,0,0,0,0,0,0,0,0,0,0,0,0,0,0,0,0,0,0,0,0,0,0,0,0,0,0,0,0,0,0,0,0,0,0,0,0,0,0,0,0,0,0,0,0,0,0,0,0,0,0,0,0,0,0,0,0,0,0,0,0,0,0,0,0,0,0,0,0,0,0,0,0,0,0,0,0,0,0,0,0,0,0,0,0,0,0,0,0,0,0,0,0,0,0,0,0,0,0,0,0,0,0,0,0,0,0,0,0,0,0,0,0,0,0,0,0,0,0,0,0,0,0,0,0,0,0,0,0,0,0,0,0,0,0,0,0,0,0,0,0,0,0,0,0,0,0,0,0,0,0,0,0,0,0,0,0,0,0,0,0,0,0,0,0,0,0,0,0,0,0,0,0,0,0,0,0,0,0,0,0,0,0,0,0,0,0,0,0,0,0,0,0,0,0,0,0,0,0,0,0,0,0,0,0,0,0,0,0,0,0,0,0,0,0,0,0,0,0,0,0,0,0,0,0,0,0,0,0,0,0,0,0,0,0,0,0,0,0,0,0,0,0,0,0,0,0,0,0,0,0,0,0,0,0,0,0,0,0,0,0,0,0,0,0,0,0,0,0,0,0,0,0,0,0,0,0,0,0,0,0,0,0,0,0,0,0,0,0,0,0,0,0,0,0,0,0,0,0,0,0,0,0,0,0,0,0,0,0,0,0,0,0,0,0,0,0,0,0,0,0,0,0,0,0,0,0,0,0,0,0,0,0,0,0,0,0,0,0,0,0,0,0,0,0,0,0,0,0,0,0,0,0,0,0,0,0,0,0,0,0,0,0,0,0,0,0,0,0,0,0,0,0,0,0,0,0,0,0,0,0,0,0,0,0,0,0,0,0,0,0,0,0,0,0,0,0,0,0,0,0,0,0,0,0,0,0,0,0,0,0,0,0,0,0,0,0,0,0,0,0,0,0,0,0,0,0,0,0,0,0,0,0,0,0,0,0,0,0,0,0,0,0,0,0,0,0,0,0,0,0,0,0,0,0,0,0,0,0,0,0,0,0,0,0,0,0,0,0,0,0,0,0,0,0,0,0,0,0,0,0,0,0,0,0,0,0,0,0,0,0,0,0,0,0,0,0,0,0,0,0,0,0,0,0,0,0,0,0,0,0,0,0,0,0,0,0,0,0,0,0,0,0,0,0,0,0,0,0,0,0,0,0,0,0,0,0,0,0,0,0,0,0,0,0,0,0,0,0,0,0,0,0,0,0,0,0,0,0,0,0,0,0,0,0,0,0,0,0,0,0,0,0,0,0,0,0,0,0,0,0,0,0,0,0,0,0,0,0,0,0,0,0,0,0,0,0,0,0,0,0,0,0,0,0,0,0]}],[{"header":{"parameterUnit":"kt","parameterCategory":2,"dx":1,"dy":1,"la1":29.764190673828125,"la2":30.86408042907715,"lo1":-88.46762084960938,"lo2":-86.9344482421875,"nx":47,"ny":34,"refTime":"2022-10-30T00:00:00:Z","depth":"15","parameterNumber":3,"parameterNumberName":"V-component_of_CURRENTS"},"data":[0.0641,0.0315,0.0475,0.0705,0.0432,-0.0427,-0.0609,-0.0187,-0.0053,-0.0059,-0.0043,-0.0021,-0.0043,-0.0085,-0.0123,-0.0128,-0.008,0.008,0.032,0.0481,0.0497,0.0198,-0.0187,-0.0406,-0.063,-0.094,-0.1196,-0.1426,-0.1345,-0.0956,-0.0657,-0.1399,-0.1281,-0.0603,-0.039,-0.0176,-0.0048,-0.0037,0.0016,0.0037,0.0,-0.0085,-0.0171,-0.0251,-0.0278,-0.0251,-0.0187,0.0667,0.0614,0.0416,0.0144,-0.0192,-0.0374,-0.023,-0.0107,-0.0096,-0.0096,-0.0069,-0.0048,-0.0053,-0.0085,-0.0112,-0.0112,-0.0059,0.0048,0.0203,0.0416,0.0497,0.0406,0.0208,0.0,-0.0214,-0.055,-0.0833,-0.0913,-0.0897,-0.102,-0.1057,-0.1297,-0.1725,-0.15,-0.095,-0.047,-0.0395,-0.0395,-0.032,-0.032,-0.0368,-0.0459,-0.0507,-0.0518,-0.0459,-0.0406,-0.0336,0.0491,0.0513,0.0352,0.0048,-0.008,-0.0107,-0.0096,-0.0123,-0.0133,-0.0128,-0.0112,-0.0085,-0.0069,-0.0085,-0.0101,-0.0101,-0.0059,0.0021,0.0112,0.0224,0.0331,0.0384,0.0379,0.0246,0.0144,-0.0027,-0.0203,-0.0272,-0.0368,-0.0785,-0.1052,-0.1191,-0.1506,-0.1858,-0.1719,-0.1522,-0.1105,-0.0747,-0.0742,-0.0817,-0.0828,-0.0801,-0.0833,-0.0801,-0.0726,-0.0657,-0.0571,0.0481,0.047,0.039,0.0256,0.0117,0.0011,-0.0069,-0.0117,-0.0139,-0.0144,-0.0139,-0.0117,-0.0091,-0.0085,-0.0096,-0.0101,-0.0069,-0.0011,0.0048,0.0107,0.0182,0.0267,0.0379,0.0363,0.0326,0.031,0.0278,0.0219,-0.0005,-0.0427,-0.0753,-0.1116,-0.1329,-0.1399,-0.1997,-0.1986,-0.213,-0.1933,-0.1586,-0.1271,-0.1239,-0.1111,-0.1073,-0.1009,-0.0966,-0.0886,-0.0747,0.047,0.0481,0.0406,0.0272,0.0171,0.0064,-0.0027,-0.0096,-0.0133,-0.0149,-0.0144,-0.0128,-0.0107,-0.0096,-0.0101,-0.0112,-0.0091,-0.0043,-0.0005,0.0032,0.0096,0.0192,0.0315,0.039,0.0395,0.04,0.0411,0.0374,0.0192,-0.0133,-0.055,-0.0945,-0.1057,-0.1271,-0.1249,-0.1255,-0.1965,-0.2264,-0.229,-0.2066,-0.1879,-0.1468,-0.1159,-0.0988,-0.0913,-0.0844,-0.0721,0.0411,0.0379,0.0331,0.0262,0.0192,0.0096,0.0,-0.0075,-0.0117,-0.0128,-0.0128,-0.0123,-0.0123,-0.0117,-0.0123,-0.0133,-0.0117,-0.008,-0.0048,-0.0011,0.0059,0.016,0.0278,0.0363,0.039,0.0384,0.0374,0.0342,0.0224,0.0016,-0.0278,-0.0683,-0.0929,-0.0982,-0.0924,-0.0982,-0.103,-0.1207,-0.1778,-0.1991,-0.2007,-0.1906,-0.1404,-0.0742,-0.0603,-0.0545,-0.047,0.0384,0.0342,0.031,0.0262,0.0198,0.0107,0.0021,-0.0037,-0.0069,-0.0085,-0.0091,-0.0101,-0.0123,-0.0139,-0.0144,-0.016,-0.0149,-0.0117,-0.008,-0.0032,0.0043,0.0139,0.0224,0.0294,0.0326,0.0336,0.0326,0.0288,0.0203,0.0069,-0.0112,-0.0438,-0.0796,-0.0924,-0.0822,-0.063,-0.0566,-0.0817,-0.1121,-0.1329,-0.158,-0.1751,-0.149,-0.071,-0.0101,0.0048,0.0091,0.0422,0.0374,0.0342,0.0278,0.0208,0.0123,0.0048,0.0016,0.0,-0.0016,-0.0048,-0.0085,-0.0117,-0.0149,-0.016,-0.0182,-0.0176,-0.016,-0.0112,-0.0059,0.0016,0.0091,0.0149,0.0198,0.023,0.0262,0.0278,0.0262,0.0208,0.0107,-0.0011,-0.0224,-0.0561,-0.0828,-0.0817,-0.055,-0.0251,-0.0251,-0.0651,-0.0945,-0.126,-0.1356,-0.1313,-0.1025,-0.0117,0.0518,0.0598,0.0641,0.063,0.0587,0.0507,0.0294,0.0128,0.0069,0.0069,0.0075,0.0037,-0.0021,-0.008,-0.0128,-0.016,-0.0176,-0.0198,-0.0198,-0.0182,-0.0144,-0.0096,-0.0037,0.0021,0.0064,0.0085,0.0101,0.0139,0.0214,0.0246,0.024,0.016,0.0053,-0.0123,-0.0406,-0.0678,-0.0742,-0.0571,-0.0262,-0.0075,-0.0149,-0.0294,-0.0641,-0.0934,-0.1393,-0.1564,-0.0812,-0.0064,0.0224,0.0416,0.0513,0.0662,0.0774,0.0507,0.0128,0.0091,0.0133,0.0128,0.0048,-0.0032,-0.0085,-0.0091,-0.0123,-0.0187,-0.0251,-0.0224,-0.0203,-0.0182,-0.0149,-0.0107,-0.0059,-0.0027,-0.0037,-0.0048,0.0011,0.0107,0.0182,0.0224,0.0198,0.0101,-0.0048,-0.0267,-0.0497,-0.0561,-0.0481,-0.0342,-0.0214,-0.0133,-0.0075,-0.0117,-0.039,-0.0806,-0.1212,-0.1345,-0.1319,-0.1025,0.0235,0.0443,0.0555,0.0587,0.0363,0.0208,0.0192,0.0139,0.0149,0.0069,0.008,0.0107,0.0166,-0.0075,-0.0272,-0.0379,-0.0283,-0.0219,-0.0198,-0.0176,-0.0128,-0.0064,-0.0032,-0.0037,-0.0021,0.0016,0.0059,0.0133,0.0187,0.0192,0.0123,0.0027,-0.0117,-0.0283,-0.0347,-0.0304,-0.0251,-0.0251,-0.0235,-0.0166,-0.0112,-0.0208,-0.0342,-0.0673,-0.0998,-0.1404,-0.1484,0,0,0.0534,0.0432,0.0171,0.0246,0.0144,0.0235,-0.0085,-0.0203,-0.0032,0,0,0,0,0,0,0,0,0,0,0,0,0,0.0139,0.0198,0.0117,0.0139,0.0198,0.0203,0.0133,0.008,-0.0027,-0.0133,-0.0144,-0.0085,-0.008,-0.0133,-0.023,-0.0246,-0.0171,-0.0155,-0.0224,-0.0347,-0.0454,-0.0812,-0.0945,0,0,0,0,0,0,0.0464,0.0497,0,0,0,0,0,0,0,0,0,0,0,0,0,0,0,0,0,0,0.0304,0.0342,0.0347,0.0272,0.0272,0.0224,0.0075,0.0027,-0.0005,0.0069,0.0107,0.0032,-0.008,-0.0203,-0.0182,-0.016,-0.0128,-0.0107,-0.0182,-0.0368,-0.0539,0,0,0,0,0,0,0,0,0,0,0,0,0,0,0,0,0,0,0,0,0,0,0,0,0,0,0,0,0.0513,0.0539,0.0545,0.0619,0.0635,0.0534,0.0315,0.0166,0.016,0.0171,0.008,-0.008,-0.0112,-0.0133,-0.0149,-0.0107,-0.008,-0.0187,-0.0464,0,0,0,0,0,0,0,0,0,0,0,0,0,0,0,0,0,0,0,0,0,0,0,0,0,0,0,0,0,0,0,0,0,0,0,0.0438,0.0192,0.0117,0.0,-0.0101,0.0011,-0.0005,-0.0096,-0.0021,-0.0059,-0.0085,-0.0192,0,0,0,0,0,0,0,0,0,0,0,0,0,0,0,0,0,0,0,0,0,0,0,0,0,0,0,0,0,0,0,0,0,0,0,0,0,0,0.0123,0.0149,0.031,0.0117,0.0032,0.0192,0.016,0.0075,-0.0075,0,0,0,0,0,0,0,0,0,0,0,0,0,0,0,0,0,0,0,0,0,0,0,0,0,0,0,0,0,0,0,0,0,0,0,0,0,0,0,0,0,0.0267,0.0208,0.0347,0.039,0.0363,0.0235,0,0,0,0,0,0,0,0,0,0,0,0,0,0,0,0,0,0,0,0,0,0,0,0,0,0,0,0,0,0,0,0,0,0,0,0,0,0,0,0,0,0,0.0256,0.0352,0.0422,0.0609,0.0539,0,0,0,0,0,0,0,0,0,0,0,0,0,0,0,0,0,0,0,0,0,0,0,0,0,0,0,0,0,0,0,0,0,0,0,0,0,0,0,0,0,0,0,0,0,0,0.0518,0,0,0,0,0,0,0,0,0,0,0,0,0,0,0,0,0,0,0,0,0,0,0,0,0,0,0,0,0,0,0,0,0,0,0,0,0,0,0,0,0,0,0,0,0,0,0,0,0,0,0,0,0,0,0,0,0,0,0,0,0,0,0,0,0,0,0,0,0,0,0,0,0,0,0,0,0,0,0,0,0,0,0,0,0,0,0,0,0,0,0,0,0,0,0,0,0,0,0,0,0,0,0,0,0,0,0,0,0,0,0,0,0,0,0,0,0,0,0,0,0,0,0,0,0,0,0,0,0,0,0,0,0,0,0,0,0,0,0,0,0,0,0,0,0,0,0,0,0,0,0,0,0,0,0,0,0,0,0,0,0,0,0,0,0,0,0,0,0,0,0,0,0,0,0,0,0,0,0,0,0,0,0,0,0,0,0,0,0,0,0,0,0,0,0,0,0,0,0,0,0,0,0,0,0,0,0,0,0,0,0,0,0,0,0,0,0,0,0,0,0,0,0,0,0,0,0,0,0,0,0,0,0,0,0,0,0,0,0,0,0,0,0,0,0,0,0,0,0,0,0,0,0,0,0,0,0,0,0,0,0,0,0,0,0,0,0,0,0,0,0,0,0,0,0,0,0,0,0,0,0,0,0,0,0,0,0,0,0,0,0,0,0,0,0,0,0,0,0,0,0,0,0,0,0,0,0,0,0,0,0,0,0,0,0,0,0,0,0,0,0,0,0,0,0,0,0,0,0,0,0,0,0,0,0,0,0,0,0,0,0,0,0,0,0,0,0,0,0,0,0,0,0,0,0,0,0,0,0,0,0,0,0,0,0,0,0,0,0,0,0,0,0,0,0,0,0,0,0,0,0,0,0,0,0,0,0,0,0,0,0,0,0,0,0,0,0,0,0,0,0,0,0,0,0,0,0,0,0,0,0,0,0,0,0,0,0,0,0,0,0,0,0,0,0,0,0,0,0,0,0,0,0,0,0,0,0,0,0,0,0,0,0,0,0,0,0,0,0,0,0,0,0,0,0,0,0,0,0,0,0,0,0,0,0,0,0,0,0,0,0,0,0,0,0,0,0,0,0,0,0,0,0,0,0,0,0,0,0,0,0,0,0,0,0,0,0,0,0,0,0,0,0,0,0,0,0,0,0,0,0,0,0,0,0,0,0,0,0,0,0,0,0,0,0,0,0,0,0,0,0,0,0,0,0,0,0,0,0,0,0,0,0,0,0,0,0,0,0,0,0,0,0,0,0,0,0,0,0,0,0,0,0,0,0,0,0,0,0,0,0,0,0,0,0,0,0,0,0,0,0,0,0,0,0,0,0,0,0,0,0,0,0,0,0,0,0,0,0,0,0,0,0,0,0,0,0,0,0,0,0,0,0,0,0,0,0,0,0,0,0,0,0,0,0,0,0,0,0,0,0,0,0,0,0,0,0,0,0,0,0,0,0,0,0,0,0,0,0,0,0,0,0,0,0,0,0,0,0,0,0,0,0,0,0,0,0,0,0,0,0,0,0,0,0,0,0,0,0,0,0,0,0,0,0,0,0,0,0,0,0,0,0,0,0,0,0,0,0,0,0,0,0,0,0]}]],[[{"header":{"parameterUnit":"kt","parameterCategory":2,"dx":1,"dy":1,"la1":29.764190673828125,"la2":30.86408042907715,"lo1":-88.46762084960938,"lo2":-86.9344482421875,"nx":47,"ny":34,"refTime":"2022-10-30T00:00:00:Z","depth":"20","parameterNumber":2,"parameterNumberName":"U-component_of_CURRENTS"},"data":[-0.0715,-0.04,-0.0075,-0.0016,-0.0112,-0.0016,0.0315,0.0411,0.0336,0.0358,0.0395,0.0427,0.0454,0.047,0.0481,0.0481,0.0464,0.047,0.0545,0.0577,0.0529,0.0475,0.0374,0.0224,0.0011,-0.0352,-0.0587,-0.0641,-0.0918,-0.1233,-0.1121,-0.0838,-0.1377,-0.1372,-0.0881,-0.0876,-0.0673,-0.0646,-0.0673,-0.0721,-0.0683,-0.0529,-0.0288,-0.0085,0.0107,0.0278,0.0342,-0.0577,-0.0678,-0.0518,-0.0384,-0.0123,0.0214,0.0278,0.023,0.0278,0.0331,0.0384,0.0438,0.0481,0.0507,0.0518,0.0518,0.0518,0.0523,0.0577,0.0705,0.0828,0.0822,0.0705,0.0598,0.0491,0.0288,-0.0048,-0.0384,-0.0689,-0.1073,-0.1351,-0.118,-0.1041,-0.1442,-0.1468,-0.1148,-0.1057,-0.1068,-0.1191,-0.1271,-0.1292,-0.118,-0.1089,-0.0945,-0.0785,-0.0689,-0.0689,0.0171,-0.0016,-0.0016,0.0214,0.039,0.0363,0.0294,0.0299,0.032,0.0347,0.0384,0.0438,0.0481,0.0513,0.0523,0.0534,0.0539,0.0555,0.0598,0.0683,0.0806,0.0886,0.0849,0.0737,0.0641,0.0545,0.0299,-0.0096,-0.0416,-0.0395,-0.0256,-0.0539,-0.0982,-0.095,-0.1132,-0.1506,-0.1495,-0.1356,-0.1324,-0.1393,-0.1415,-0.1447,-0.1575,-0.1559,-0.1591,-0.1623,-0.1671,0.0283,0.0379,0.0464,0.0497,0.047,0.0416,0.0379,0.0363,0.0358,0.0368,0.039,0.0416,0.0448,0.0486,0.0513,0.0529,0.0545,0.0571,0.0609,0.0673,0.0753,0.0822,0.0865,0.0822,0.0726,0.0673,0.0667,0.0577,0.0406,0.0262,0.0187,0.0139,0.0085,-0.0422,-0.0806,-0.0796,-0.103,-0.1426,-0.1628,-0.1452,-0.1281,-0.1324,-0.1479,-0.1762,-0.2029,-0.2194,-0.2296,0.0251,0.0342,0.0432,0.047,0.0459,0.0432,0.04,0.0384,0.0379,0.0379,0.0379,0.0384,0.0406,0.0448,0.0481,0.0502,0.0523,0.0555,0.0593,0.0635,0.0678,0.071,0.0731,0.0747,0.0747,0.0753,0.0817,0.0929,0.1004,0.0972,0.0966,0.0929,0.0721,0.0454,0.0149,-0.0481,-0.0918,-0.0897,-0.0908,-0.1335,-0.1377,-0.1159,-0.1132,-0.1351,-0.1634,-0.189,-0.2104,0.0267,0.032,0.0379,0.0411,0.0422,0.0422,0.0411,0.04,0.039,0.0374,0.0352,0.0342,0.0352,0.039,0.0422,0.0448,0.0475,0.0507,0.0539,0.0571,0.0598,0.0614,0.0641,0.0699,0.0758,0.0817,0.0881,0.0982,0.1105,0.1169,0.1095,0.0833,0.0619,0.0657,0.0603,0.0278,-0.0133,-0.0801,-0.1292,-0.1404,-0.134,-0.1111,-0.0876,-0.086,-0.1148,-0.1516,-0.1879,0.0299,0.0336,0.0363,0.0379,0.0395,0.0411,0.0416,0.0406,0.0379,0.0347,0.0326,0.032,0.0331,0.0347,0.0363,0.0384,0.0416,0.0448,0.0486,0.0513,0.0534,0.0561,0.0603,0.0683,0.0769,0.0849,0.0913,0.0966,0.1014,0.1046,0.1052,0.094,0.0689,0.0523,0.0582,0.0705,0.0475,0.0059,-0.0598,-0.1319,-0.1719,-0.1639,-0.1335,-0.0897,-0.0838,-0.11,-0.141,0.0117,0.0192,0.0262,0.032,0.0358,0.0379,0.039,0.0384,0.0363,0.0336,0.0331,0.0336,0.0342,0.0342,0.0352,0.0363,0.0384,0.0406,0.0443,0.0475,0.0507,0.055,0.0609,0.0683,0.0774,0.0865,0.094,0.0988,0.1004,0.0998,0.095,0.0844,0.0699,0.0582,0.0486,0.0539,0.0694,0.0587,0.008,-0.0352,-0.0737,-0.1431,-0.1799,-0.1709,-0.1383,-0.1137,-0.1196,0.0192,0.0246,0.0288,0.0272,0.0278,0.0358,0.0395,0.0406,0.0395,0.0379,0.0379,0.0384,0,0,0,0,0,0.0416,0.0438,0.047,0.0513,0.0566,0.063,0.0657,0.0619,0.0635,0.0731,0.0833,0.0929,0.0972,0.0945,0.0865,0.0731,0.0587,0.0513,0.047,0.0534,0.0651,0.0699,0.0593,0.0144,-0.0326,-0.1052,-0.1767,-0.1879,-0.1474,-0.1372,0,0,0,0,0.031,0.0395,0.0464,0,0,0,0,0,0,0,0,0,0,0,0,0,0,0,0,0,0.0593,0.0481,0.0481,0.0561,0.0646,0.0721,0.0785,0.0758,0.0673,0.0566,0.0475,0.0411,0.0379,0.039,0.0475,0.0566,0.0603,0.0475,0.032,-0.0214,-0.1281,-0.1981,-0.1917,0,0,0,0,0,0,0,0,0,0,0,0,0,0,0,0,0,0,0,0,0,0,0,0,0,0,0.0491,0.0422,0.0454,0.0539,0.0619,0.0641,0.0587,0.0529,0.0513,0.0459,0.0374,0.0326,0.0331,0.0336,0.0352,0.031,0.031,0.016,-0.0064,-0.0683,-0.1393,0,0,0,0,0,0,0,0,0,0,0,0,0,0,0,0,0,0,0,0,0,0,0,0,0,0,0,0,0.0443,0.0593,0.0699,0.0726,0.0678,0.0587,0.0475,0.0395,0.04,0.0374,0.0342,0.0294,0.0192,0.0037,-0.0149,-0.0214,-0.0192,-0.0384,-0.0699,0,0,0,0,0,0,0,0,0,0,0,0,0,0,0,0,0,0,0,0,0,0,0,0,0,0,0,0,0,0.0224,0.0267,0.0288,0.0331,0.0368,0.0336,0.0246,0.0128,0.0192,0.0288,0.0304,0.0235,0.0139,0.0037,-0.008,-0.0166,-0.0235,-0.0342,0,0,0,0,0,0,0,0,0,0,0,0,0,0,0,0,0,0,0,0,0,0,0,0,0,0,0,0,0,0,0,0,0,0,0,0,0,-0.0059,0.0048,0.0203,0.0235,0.0198,0.0187,0.016,0.0043,-0.0139,-0.0288,0,0,0,0,0,0,0,0,0,0,0,0,0,0,0,0,0,0,0,0,0,0,0,0,0,0,0,0,0,0,0,0,0,0,0,0,0,0,-0.008,0.0085,0.0182,0.0166,0.0208,0.0176,0.0053,-0.0005,-0.0032,0,0,0,0,0,0,0,0,0,0,0,0,0,0,0,0,0,0,0,0,0,0,0,0,0,0,0,0,0,0,0,0,0,0,0,0,0,0,0,0,0,0.0144,0.0198,0.0075,0.0037,-0.0016,-0.0112,0,0,0,0,0,0,0,0,0,0,0,0,0,0,0,0,0,0,0,0,0,0,0,0,0,0,0,0,0,0,0,0,0,0,0,0,0,0,0,0,0,0,0,0,0.0053,0.0005,0.0064,0,0,0,0,0,0,0,0,0,0,0,0,0,0,0,0,0,0,0,0,0,0,0,0,0,0,0,0,0,0,0,0,0,0,0,0,0,0,0,0,0,0,0,0,0,0.0112,0.0027,0,0,0,0,0,0,0,0,0,0,0,0,0,0,0,0,0,0,0,0,0,0,0,0,0,0,0,0,0,0,0,0,0,0,0,0,0,0,0,0,0,0,0,0,0,0,0,0,0,0,0,0,0,0,0,0,0,0,0,0,0,0,0,0,0,0,0,0,0,0,0,0,0,0,0,0,0,0,0,0,0,0,0,0,0,0,0,0,0,0,0,0,0,0,0,0,0,0,0,0,0,0,0,0,0,0,0,0,0,0,0,0,0,0,0,0,0,0,0,0,0,0,0,0,0,0,0,0,0,0,0,0,0,0,0,0,0,0,0,0,0,0,0,0,0,0,0,0,0,0,0,0,0,0,0,0,0,0,0,0,0,0,0,0,0,0,0,0,0,0,0,0,0,0,0,0,0,0,0,0,0,0,0,0,0,0,0,0,0,0,0,0,0,0,0,0,0,0,0,0,0,0,0,0,0,0,0,0,0,0,0,0,0,0,0,0,0,0,0,0,0,0,0,0,0,0,0,0,0,0,0,0,0,0,0,0,0,0,0,0,0,0,0,0,0,0,0,0,0,0,0,0,0,0,0,0,0,0,0,0,0,0,0,0,0,0,0,0,0,0,0,0,0,0,0,0,0,0,0,0,0,0,0,0,0,0,0,0,0,0,0,0,0,0,0,0,0,0,0,0,0,0,0,0,0,0,0,0,0,0,0,0,0,0,0,0,0,0,0,0,0,0,0,0,0,0,0,0,0,0,0,0,0,0,0,0,0,0,0,0,0,0,0,0,0,0,0,0,0,0,0,0,0,0,0,0,0,0,0,0,0,0,0,0,0,0,0,0,0,0,0,0,0,0,0,0,0,0,0,0,0,0,0,0,0,0,0,0,0,0,0,0,0,0,0,0,0,0,0,0,0,0,0,0,0,0,0,0,0,0,0,0,0,0,0,0,0,0,0,0,0,0,0,0,0,0,0,0,0,0,0,0,0,0,0,0,0,0,0,0,0,0,0,0,0,0,0,0,0,0,0,0,0,0,0,0,0,0,0,0,0,0,0,0,0,0,0,0,0,0,0,0,0,0,0,0,0,0,0,0,0,0,0,0,0,0,0,0,0,0,0,0,0,0,0,0,0,0,0,0,0,0,0,0,0,0,0,0,0,0,0,0,0,0,0,0,0,0,0,0,0,0,0,0,0,0,0,0,0,0,0,0,0,0,0,0,0,0,0,0,0,0,0,0,0,0,0,0,0,0,0,0,0,0,0,0,0,0,0,0,0,0,0,0,0,0,0,0,0,0,0,0,0,0,0,0,0,0,0,0,0,0,0,0,0,0,0,0,0,0,0,0,0,0,0,0,0,0,0,0,0,0,0,0,0,0,0,0,0,0,0,0,0,0,0,0,0,0,0,0,0,0,0,0,0,0,0,0,0,0,0,0,0,0,0,0,0,0,0,0,0,0,0,0,0,0,0,0,0,0,0,0,0,0,0,0,0,0,0,0,0,0,0,0,0,0,0,0,0,0,0,0,0,0,0,0,0,0,0,0,0,0,0,0,0,0,0,0,0,0,0,0,0,0,0,0,0,0,0,0,0,0,0,0,0,0,0,0,0,0,0,0,0,0,0,0,0,0,0,0,0,0,0,0,0,0,0,0,0,0,0,0,0,0,0,0,0,0,0,0,0,0,0,0,0,0,0,0,0,0,0,0]}],[{"header":{"parameterUnit":"kt","parameterCategory":2,"dx":1,"dy":1,"la1":29.764190673828125,"la2":30.86408042907715,"lo1":-88.46762084960938,"lo2":-86.9344482421875,"nx":47,"ny":34,"refTime":"2022-10-30T00:00:00:Z","depth":"20","parameterNumber":3,"parameterNumberName":"V-component_of_CURRENTS"},"data":[0.0625,0.0459,0.0678,0.1105,0.1121,0.0598,-0.0262,-0.0203,-0.0053,-0.0064,-0.0043,-0.0021,-0.0037,-0.008,-0.0123,-0.0128,-0.0085,0.0069,0.0198,0.032,0.0326,0.0171,-0.0059,-0.0235,-0.0448,-0.0566,-0.0555,-0.0432,-0.0411,-0.0166,-0.0336,-0.1084,-0.1127,-0.0411,-0.0395,-0.0187,-0.0091,0.0011,0.0112,0.0166,0.0123,0.0075,-0.0011,-0.0027,-0.0064,-0.0112,-0.008,0.0571,0.0673,0.0683,0.0753,0.0395,-0.0027,-0.0166,-0.0101,-0.0096,-0.0096,-0.0069,-0.0053,-0.0059,-0.0091,-0.0117,-0.0112,-0.0064,0.0043,0.0187,0.0347,0.0411,0.0374,0.0203,0.0011,-0.0187,-0.0358,-0.0502,-0.0491,-0.0267,-0.0208,-0.0358,-0.0689,-0.1335,-0.1399,-0.0801,-0.0422,-0.0384,-0.0326,-0.0251,-0.0198,-0.0171,-0.0272,-0.0336,-0.0278,-0.0235,-0.0246,-0.0192,0.0336,0.0326,0.0331,0.0304,0.0091,-0.008,-0.0096,-0.0123,-0.0133,-0.0128,-0.0112,-0.0096,-0.0085,-0.0096,-0.0107,-0.0107,-0.0059,0.0016,0.0107,0.0214,0.0304,0.0352,0.032,0.023,0.0155,0.0027,-0.0069,-0.0101,-0.0059,-0.0294,-0.0288,-0.0507,-0.0972,-0.1399,-0.1762,-0.149,-0.1041,-0.0614,-0.0566,-0.0571,-0.0545,-0.0555,-0.0587,-0.0625,-0.0561,-0.0502,-0.0352,0.0374,0.0315,0.0267,0.023,0.0112,0.0011,-0.0069,-0.0117,-0.0144,-0.0149,-0.0144,-0.0123,-0.0101,-0.0096,-0.0101,-0.0101,-0.0069,-0.0011,0.0048,0.0107,0.0176,0.0256,0.0326,0.0342,0.032,0.0326,0.0336,0.0304,0.0133,-0.008,-0.0224,-0.0416,-0.0657,-0.0763,-0.1548,-0.1612,-0.213,-0.1991,-0.157,-0.1121,-0.0993,-0.0828,-0.0822,-0.079,-0.0737,-0.0667,-0.0502,0.0454,0.0416,0.0352,0.0251,0.0155,0.0059,-0.0032,-0.0101,-0.0139,-0.0155,-0.0155,-0.0133,-0.0112,-0.0096,-0.0101,-0.0107,-0.0085,-0.0037,0.0,0.0037,0.0101,0.0198,0.0315,0.039,0.0395,0.04,0.0427,0.0411,0.0246,-0.0037,-0.0315,-0.0454,-0.0384,-0.0593,-0.0753,-0.0747,-0.1527,-0.1922,-0.22,-0.1981,-0.1735,-0.1239,-0.0881,-0.0662,-0.0667,-0.0619,-0.0459,0.04,0.0363,0.0315,0.0251,0.0176,0.0085,-0.0005,-0.008,-0.0117,-0.0133,-0.0128,-0.0117,-0.0112,-0.0107,-0.0107,-0.0117,-0.0101,-0.0069,-0.0037,0.0,0.0069,0.0176,0.0288,0.0368,0.0395,0.0395,0.0384,0.0352,0.0246,0.0037,-0.0288,-0.0534,-0.0497,-0.0464,-0.04,-0.0619,-0.0582,-0.0758,-0.1308,-0.1634,-0.1821,-0.1762,-0.1297,-0.0545,-0.0326,-0.0294,-0.0208,0.0379,0.0336,0.0304,0.0251,0.0182,0.0096,0.0016,-0.0037,-0.0064,-0.0069,-0.0069,-0.0075,-0.0091,-0.0107,-0.0123,-0.0139,-0.0133,-0.0107,-0.0069,-0.0021,0.0053,0.0149,0.0235,0.0304,0.0336,0.0347,0.0336,0.0299,0.0219,0.0085,-0.0096,-0.0235,-0.0374,-0.0491,-0.0427,-0.0272,-0.0256,-0.0448,-0.0603,-0.0854,-0.1292,-0.1618,-0.1329,-0.0545,0.0091,0.0267,0.0336,0.0459,0.0422,0.0374,0.0299,0.0219,0.0123,0.0053,0.0032,0.0021,0.0011,-0.0011,-0.0043,-0.008,-0.0112,-0.0133,-0.0155,-0.0155,-0.0139,-0.0101,-0.0043,0.0027,0.0096,0.0155,0.0198,0.0224,0.0256,0.0288,0.0283,0.0224,0.0117,0.0005,-0.0075,-0.0176,-0.0315,-0.0352,-0.0299,-0.0117,-0.0021,-0.0379,-0.0635,-0.103,-0.1148,-0.1121,-0.0678,0.0187,0.0747,0.0886,0.0523,0.0539,0.055,0.0513,0.0347,0.0155,0.0091,0.0096,0.0101,0.0069,0.0016,-0.0053,0,0,0,0,0,-0.0166,-0.0133,-0.0091,-0.0032,0.0021,0.0059,0.0069,0.0043,0.0085,0.0155,0.0219,0.0214,0.0176,0.0091,0.0043,-0.0064,-0.023,-0.0294,-0.0235,-0.0112,-0.0016,-0.0016,-0.0091,-0.0534,-0.0844,-0.1121,-0.1175,-0.0331,0.0331,0.0561,0,0,0,0,0.0518,0.0144,0.0096,0,0,0,0,0,0,0,0,0,0,0,0,0,0,0,0,0,-0.0048,-0.0005,0.0037,0.0096,0.0112,0.0133,0.0117,0.0112,0.0064,-0.0091,-0.0214,-0.0187,-0.0059,0.0021,0.0075,0.0016,-0.0091,-0.0304,-0.0742,-0.0753,-0.086,-0.0817,-0.0374,0,0,0,0,0,0,0,0,0,0,0,0,0,0,0,0,0,0,0,0,0,0,0,0,0,0,0.0144,0.0182,0.0139,0.0112,0.0085,0.0096,0.0059,0.0,-0.0053,-0.0032,0.0053,0.0101,0.0117,0.0069,0.0005,-0.0187,-0.0336,-0.0294,-0.0331,-0.0838,-0.087,0,0,0,0,0,0,0,0,0,0,0,0,0,0,0,0,0,0,0,0,0,0,0,0,0,0,0,0,0.0278,0.0198,0.0096,0.0075,-0.0011,-0.0011,0.0037,0.0155,0.0299,0.0283,0.0187,0.0117,0.0053,-0.0048,-0.0166,0.0069,0.0123,-0.0406,-0.0443,0,0,0,0,0,0,0,0,0,0,0,0,0,0,0,0,0,0,0,0,0,0,0,0,0,0,0,0,0,0.0363,0.0299,0.031,0.023,0.0149,0.0016,0.0144,0.0283,0.0411,0.0363,0.0203,0.0075,0.0027,0.0053,0.0203,0.0203,0.0021,-0.0203,0,0,0,0,0,0,0,0,0,0,0,0,0,0,0,0,0,0,0,0,0,0,0,0,0,0,0,0,0,0,0,0,0,0,0,0,0,0.0256,0.0326,0.0272,0.0166,0.0096,0.0107,0.0272,0.0347,0.024,-0.0059,0,0,0,0,0,0,0,0,0,0,0,0,0,0,0,0,0,0,0,0,0,0,0,0,0,0,0,0,0,0,0,0,0,0,0,0,0,0,0.0101,0.0166,0.0251,0.0214,0.0149,0.0347,0.0438,0.0406,0.0112,0,0,0,0,0,0,0,0,0,0,0,0,0,0,0,0,0,0,0,0,0,0,0,0,0,0,0,0,0,0,0,0,0,0,0,0,0,0,0,0,0,0.0235,0.023,0.0422,0.0518,0.0459,0.0192,0,0,0,0,0,0,0,0,0,0,0,0,0,0,0,0,0,0,0,0,0,0,0,0,0,0,0,0,0,0,0,0,0,0,0,0,0,0,0,0,0,0,0,0,0.0523,0.0598,0.0475,0,0,0,0,0,0,0,0,0,0,0,0,0,0,0,0,0,0,0,0,0,0,0,0,0,0,0,0,0,0,0,0,0,0,0,0,0,0,0,0,0,0,0,0,0,0.0625,0.0561,0,0,0,0,0,0,0,0,0,0,0,0,0,0,0,0,0,0,0,0,0,0,0,0,0,0,0,0,0,0,0,0,0,0,0,0,0,0,0,0,0,0,0,0,0,0,0,0,0,0,0,0,0,0,0,0,0,0,0,0,0,0,0,0,0,0,0,0,0,0,0,0,0,0,0,0,0,0,0,0,0,0,0,0,0,0,0,0,0,0,0,0,0,0,0,0,0,0,0,0,0,0,0,0,0,0,0,0,0,0,0,0,0,0,0,0,0,0,0,0,0,0,0,0,0,0,0,0,0,0,0,0,0,0,0,0,0,0,0,0,0,0,0,0,0,0,0,0,0,0,0,0,0,0,0,0,0,0,0,0,0,0,0,0,0,0,0,0,0,0,0,0,0,0,0,0,0,0,0,0,0,0,0,0,0,0,0,0,0,0,0,0,0,0,0,0,0,0,0,0,0,0,0,0,0,0,0,0,0,0,0,0,0,0,0,0,0,0,0,0,0,0,0,0,0,0,0,0,0,0,0,0,0,0,0,0,0,0,0,0,0,0,0,0,0,0,0,0,0,0,0,0,0,0,0,0,0,0,0,0,0,0,0,0,0,0,0,0,0,0,0,0,0,0,0,0,0,0,0,0,0,0,0,0,0,0,0,0,0,0,0,0,0,0,0,0,0,0,0,0,0,0,0,0,0,0,0,0,0,0,0,0,0,0,0,0,0,0,0,0,0,0,0,0,0,0,0,0,0,0,0,0,0,0,0,0,0,0,0,0,0,0,0,0,0,0,0,0,0,0,0,0,0,0,0,0,0,0,0,0,0,0,0,0,0,0,0,0,0,0,0,0,0,0,0,0,0,0,0,0,0,0,0,0,0,0,0,0,0,0,0,0,0,0,0,0,0,0,0,0,0,0,0,0,0,0,0,0,0,0,0,0,0,0,0,0,0,0,0,0,0,0,0,0,0,0,0,0,0,0,0,0,0,0,0,0,0,0,0,0,0,0,0,0,0,0,0,0,0,0,0,0,0,0,0,0,0,0,0,0,0,0,0,0,0,0,0,0,0,0,0,0,0,0,0,0,0,0,0,0,0,0,0,0,0,0,0,0,0,0,0,0,0,0,0,0,0,0,0,0,0,0,0,0,0,0,0,0,0,0,0,0,0,0,0,0,0,0,0,0,0,0,0,0,0,0,0,0,0,0,0,0,0,0,0,0,0,0,0,0,0,0,0,0,0,0,0,0,0,0,0,0,0,0,0,0,0,0,0,0,0,0,0,0,0,0,0,0,0,0,0,0,0,0,0,0,0,0,0,0,0,0,0,0,0,0,0,0,0,0,0,0,0,0,0,0,0,0,0,0,0,0,0,0,0,0,0,0,0,0,0,0,0,0,0,0,0,0,0,0,0,0,0,0,0,0,0,0,0,0,0,0,0,0,0,0,0,0,0,0,0,0,0,0,0,0,0,0,0,0,0,0,0,0,0,0,0,0,0,0,0,0,0,0,0,0,0,0,0,0,0,0,0,0,0,0,0,0,0,0,0,0,0,0,0,0,0,0,0,0,0,0,0,0,0,0,0,0,0,0,0,0,0,0,0,0,0,0,0,0,0,0,0,0,0,0,0,0,0,0,0,0,0,0,0,0,0,0,0,0,0,0,0,0,0,0,0,0,0,0,0,0,0,0,0,0,0,0,0,0,0,0]}]],[[{"header":{"parameterUnit":"kt","parameterCategory":2,"dx":1,"dy":1,"la1":29.764190673828125,"la2":30.86408042907715,"lo1":-88.46762084960938,"lo2":-86.9344482421875,"nx":47,"ny":34,"refTime":"2022-10-30T00:00:00:Z","depth":"25","parameterNumber":2,"parameterNumberName":"U-component_of_CURRENTS"},"data":[-0.078,-0.063,-0.0224,-0.0064,-0.0267,-0.04,-0.0123,0.0235,0.0315,0.0363,0.0406,0.0438,0.0459,0.047,0.0475,0.047,0.0459,0.0459,0.0379,0.0246,0.0139,0.0027,-0.0069,-0.0032,-0.0011,-0.0053,-0.0182,-0.0235,-0.0352,-0.0641,-0.0945,-0.0822,-0.102,-0.1308,-0.0812,-0.0812,-0.0555,-0.0481,-0.0497,-0.0518,-0.0507,-0.0342,-0.0139,0.0037,0.0166,0.0256,0.0326,-0.0753,-0.0801,-0.0721,-0.0518,-0.0331,-0.0059,0.0144,0.0224,0.0272,0.0336,0.039,0.0443,0.0481,0.0497,0.0502,0.0507,0.0513,0.0529,0.0571,0.063,0.0678,0.0683,0.0641,0.0534,0.039,0.0192,-0.0128,-0.0416,-0.0646,-0.087,-0.1025,-0.1137,-0.0993,-0.1345,-0.1676,-0.1297,-0.11,-0.1057,-0.1121,-0.1212,-0.1239,-0.1169,-0.1025,-0.0817,-0.0715,-0.0609,-0.0566,-0.0139,-0.0422,-0.0561,-0.0235,0.0187,0.0262,0.0283,0.0294,0.0315,0.0347,0.039,0.0438,0.0475,0.0502,0.0513,0.0518,0.0534,0.0555,0.0603,0.0683,0.0769,0.0774,0.0763,0.0715,0.0619,0.0422,0.0112,-0.0235,-0.0384,-0.0149,-0.0032,-0.0448,-0.0876,-0.0966,-0.1057,-0.1714,-0.1821,-0.1548,-0.1356,-0.1415,-0.1474,-0.1527,-0.1527,-0.1495,-0.1415,-0.1303,-0.1249,0.0176,0.0144,0.0246,0.04,0.0443,0.0406,0.0368,0.0352,0.0352,0.0363,0.0384,0.0411,0.0448,0.0481,0.0502,0.0518,0.0539,0.0571,0.0614,0.0673,0.0747,0.0801,0.0828,0.0801,0.0715,0.0641,0.0593,0.0529,0.0438,0.0427,0.0529,0.0614,0.0443,-0.024,-0.0886,-0.0806,-0.0902,-0.134,-0.1586,-0.1393,-0.118,-0.1228,-0.1452,-0.1687,-0.1703,-0.1671,-0.1596,0.024,0.0331,0.0427,0.047,0.0454,0.0422,0.039,0.0374,0.0368,0.0368,0.0374,0.0379,0.0406,0.0448,0.0481,0.0497,0.0523,0.0555,0.0593,0.063,0.0673,0.0705,0.0731,0.0747,0.0747,0.0742,0.0796,0.0913,0.1009,0.1143,0.1255,0.1308,0.1297,0.0934,0.0262,-0.0481,-0.1164,-0.0998,-0.0801,-0.0982,-0.1196,-0.0961,-0.0892,-0.118,-0.1511,-0.1714,-0.173,0.0246,0.031,0.0374,0.0406,0.0416,0.0406,0.0395,0.039,0.0379,0.0368,0.0347,0.0342,0.0363,0.0395,0.0427,0.0448,0.0475,0.0507,0.0539,0.0566,0.0593,0.0609,0.0641,0.0694,0.0753,0.0806,0.0865,0.0966,0.1089,0.1137,0.0774,0.0198,0.0384,0.0956,0.071,0.0304,-0.04,-0.1062,-0.1516,-0.142,-0.1212,-0.0961,-0.0651,-0.0529,-0.0966,-0.1426,-0.165,0.0272,0.0315,0.0352,0.0374,0.0384,0.0395,0.04,0.0395,0.0374,0.0347,0.0331,0.0331,0,0,0,0,0,0.0448,0.0481,0.0513,0.0534,0.0555,0.0593,0.0662,0.0747,0.0822,0.0886,0.094,0.0993,0.102,0.0956,0.0683,0.0342,0.0187,0.0267,0.0497,0.0299,-0.0208,-0.086,-0.1805,-0.2007,-0.1623,-0.1041,-0.0529,-0.0497,-0.0982,-0.1319,0.0112,0.0187,0.0256,0.0315,0.0352,0.0374,0.0384,0,0,0,0,0,0,0,0,0,0,0,0,0,0,0,0,0.0662,0.0721,0.0763,0.0828,0.0902,0.0945,0.094,0.0865,0.0651,0.0438,0.0315,0.023,0.024,0.04,0.04,-0.0101,-0.0651,-0.1116,-0.1628,-0.1725,-0.1351,-0.0961,-0.086,-0.1057,0,0,0,0,0,0,0,0,0,0,0,0,0,0,0,0,0,0,0,0,0,0,0,0,0,0,0.0486,0.0571,0.0726,0.0844,0.0812,0.0614,0.0368,0.0278,0.0278,0.0283,0.032,0.0475,0.0523,0.0336,-0.0064,-0.0128,-0.0657,-0.1628,-0.1671,-0.1127,-0.1025,0,0,0,0,0,0,0,0,0,0,0,0,0,0,0,0,0,0,0,0,0,0,0,0,0,0,0,0,0,0.0555,0.063,0.0555,0.039,0.0304,0.0358,0.0374,0.0352,0.0374,0.039,0.0513,0.0593,0.0609,0.0475,-0.0069,-0.1271,-0.197,-0.1858,0,0,0,0,0,0,0,0,0,0,0,0,0,0,0,0,0,0,0,0,0,0,0,0,0,0,0,0,0,0,0,0,0,0.0342,0.0384,0.0379,0.0326,0.031,0.0352,0.032,0.0283,0.0144,0.0112,0.016,0.0005,-0.0513,-0.1185,0,0,0,0,0,0,0,0,0,0,0,0,0,0,0,0,0,0,0,0,0,0,0,0,0,0,0,0,0,0,0,0,0,0,0,0,0,0.0214,0.0224,0.0262,0.024,0.0117,-0.0053,-0.0294,-0.04,-0.0422,-0.055,0,0,0,0,0,0,0,0,0,0,0,0,0,0,0,0,0,0,0,0,0,0,0,0,0,0,0,0,0,0,0,0,0,0,0,0,0,0,0.0101,0.0171,0.0219,0.0187,0.0032,-0.0117,-0.0198,-0.0326,-0.0625,0,0,0,0,0,0,0,0,0,0,0,0,0,0,0,0,0,0,0,0,0,0,0,0,0,0,0,0,0,0,0,0,0,0,0,0,0,0,0,0.008,0.0182,0.0208,0.0176,0.0069,-0.008,-0.0149,-0.0171,0,0,0,0,0,0,0,0,0,0,0,0,0,0,0,0,0,0,0,0,0,0,0,0,0,0,0,0,0,0,0,0,0,0,0,0,0,0,0,0,0,0,0,0,-0.0075,-0.0096,-0.0021,0,0,0,0,0,0,0,0,0,0,0,0,0,0,0,0,0,0,0,0,0,0,0,0,0,0,0,0,0,0,0,0,0,0,0,0,0,0,0,0,0,0,0,0,0,0,0,0,0,0,0,0,0,0,0,0,0,0,0,0,0,0,0,0,0,0,0,0,0,0,0,0,0,0,0,0,0,0,0,0,0,0,0,0,0,0,0,0,0,0,0,0,0,0,0,0,0,0,0,0,0,0,0,0,0,0,0,0,0,0,0,0,0,0,0,0,0,0,0,0,0,0,0,0,0,0,0,0,0,0,0,0,0,0,0,0,0,0,0,0,0,0,0,0,0,0,0,0,0,0,0,0,0,0,0,0,0,0,0,0,0,0,0,0,0,0,0,0,0,0,0,0,0,0,0,0,0,0,0,0,0,0,0,0,0,0,0,0,0,0,0,0,0,0,0,0,0,0,0,0,0,0,0,0,0,0,0,0,0,0,0,0,0,0,0,0,0,0,0,0,0,0,0,0,0,0,0,0,0,0,0,0,0,0,0,0,0,0,0,0,0,0,0,0,0,0,0,0,0,0,0,0,0,0,0,0,0,0,0,0,0,0,0,0,0,0,0,0,0,0,0,0,0,0,0,0,0,0,0,0,0,0,0,0,0,0,0,0,0,0,0,0,0,0,0,0,0,0,0,0,0,0,0,0,0,0,0,0,0,0,0,0,0,0,0,0,0,0,0,0,0,0,0,0,0,0,0,0,0,0,0,0,0,0,0,0,0,0,0,0,0,0,0,0,0,0,0,0,0,0,0,0,0,0,0,0,0,0,0,0,0,0,0,0,0,0,0,0,0,0,0,0,0,0,0,0,0,0,0,0,0,0,0,0,0,0,0,0,0,0,0,0,0,0,0,0,0,0,0,0,0,0,0,0,0,0,0,0,0,0,0,0,0,0,0,0,0,0,0,0,0,0,0,0,0,0,0,0,0,0,0,0,0,0,0,0,0,0,0,0,0,0,0,0,0,0,0,0,0,0,0,0,0,0,0,0,0,0,0,0,0,0,0,0,0,0,0,0,0,0,0,0,0,0,0,0,0,0,0,0,0,0,0,0,0,0,0,0,0,0,0,0,0,0,0,0,0,0,0,0,0,0,0,0,0,0,0,0,0,0,0,0,0,0,0,0,0,0,0,0,0,0,0,0,0,0,0,0,0,0,0,0,0,0,0,0,0,0,0,0,0,0,0,0,0,0,0,0,0,0,0,0,0,0,0,0,0,0,0,0,0,0,0,0,0,0,0,0,0,0,0,0,0,0,0,0,0,0,0,0,0,0,0,0,0,0,0,0,0,0,0,0,0,0,0,0,0,0,0,0,0,0,0,0,0,0,0,0,0,0,0,0,0,0,0,0,0,0,0,0,0,0,0,0,0,0,0,0,0,0,0,0,0,0,0,0,0,0,0,0,0,0,0,0,0,0,0,0,0,0,0,0,0,0,0,0,0,0,0,0,0,0,0,0,0,0,0,0,0,0,0,0,0,0,0,0,0,0,0,0,0,0,0,0,0,0,0,0,0,0,0,0,0,0,0,0,0,0,0,0,0,0,0,0,0,0,0,0,0,0,0,0,0,0,0,0,0,0,0,0,0,0,0,0,0,0,0,0,0,0,0,0,0,0,0,0,0,0,0,0,0,0,0,0,0,0,0,0,0,0,0,0,0,0,0,0,0,0,0,0,0,0,0,0,0,0,0,0,0,0,0,0,0,0,0,0,0,0,0,0,0,0,0,0,0,0,0,0,0,0,0,0,0,0,0,0,0,0,0,0,0,0,0,0,0,0,0,0,0,0,0,0,0,0,0,0,0,0,0,0,0,0,0,0,0,0,0,0,0,0,0,0,0,0,0,0,0,0,0,0,0,0,0,0,0,0,0,0,0,0,0,0,0,0,0,0,0,0,0,0,0,0,0,0,0,0,0,0,0,0,0,0,0,0,0,0,0,0,0,0,0,0,0,0,0,0,0,0,0,0,0,0,0]}],[{"header":{"parameterUnit":"kt","parameterCategory":2,"dx":1,"dy":1,"la1":29.764190673828125,"la2":30.86408042907715,"lo1":-88.46762084960938,"lo2":-86.9344482421875,"nx":47,"ny":34,"refTime":"2022-10-30T00:00:00:Z","depth":"25","parameterNumber":3,"parameterNumberName":"V-component_of_CURRENTS"},"data":[0.0182,0.0395,0.0956,0.1404,0.1548,0.1239,0.0336,-0.0085,-0.0053,-0.0064,-0.0043,-0.0021,-0.0037,-0.008,-0.0117,-0.0128,-0.0085,0.0053,0.0144,0.0251,0.0203,0.0192,0.0326,0.0379,0.0582,0.0731,0.0838,0.0929,0.0886,0.0384,-0.008,-0.0603,-0.1073,-0.0448,-0.0171,-0.0016,0.0064,0.0128,0.0149,0.0187,0.0235,0.0187,0.0053,-0.0016,-0.0016,0.0005,0.0112,0.024,0.0294,0.0603,0.1046,0.0956,0.0406,-0.0021,-0.0096,-0.0091,-0.0091,-0.0075,-0.0059,-0.0069,-0.0096,-0.0123,-0.0117,-0.0069,0.0032,0.0155,0.0208,0.023,0.0166,0.0182,0.016,0.024,0.0555,0.071,0.0561,0.0785,0.0641,0.0224,-0.0256,-0.0892,-0.1308,-0.0715,-0.032,-0.0272,-0.0251,-0.0182,-0.0107,-0.0043,-0.0085,-0.0128,-0.0214,-0.0267,-0.0267,-0.0112,0.0187,0.0069,0.016,0.0379,0.032,0.0027,-0.0085,-0.0117,-0.0128,-0.0128,-0.0117,-0.0107,-0.0096,-0.0107,-0.0117,-0.0112,-0.0064,0.0016,0.0101,0.0192,0.0246,0.023,0.0219,0.0214,0.0182,0.0358,0.0555,0.0518,0.0432,0.0427,0.0486,-0.0016,-0.0534,-0.0828,-0.1554,-0.1388,-0.0993,-0.0598,-0.0539,-0.0491,-0.0416,-0.0379,-0.0454,-0.0555,-0.0641,-0.0641,-0.0443,0.0315,0.0224,0.0182,0.0198,0.0107,0.0005,-0.0069,-0.0123,-0.0149,-0.0155,-0.0155,-0.0139,-0.0117,-0.0107,-0.0107,-0.0101,-0.0064,-0.0011,0.0048,0.0101,0.0171,0.0235,0.0272,0.0326,0.0315,0.0363,0.0523,0.0539,0.0342,0.0315,0.0454,0.047,-0.0032,-0.0304,-0.1025,-0.1105,-0.1837,-0.1954,-0.1543,-0.1057,-0.0908,-0.0705,-0.0667,-0.0683,-0.0726,-0.071,-0.0518,0.0422,0.0363,0.0294,0.0224,0.0139,0.0043,-0.0043,-0.0112,-0.0149,-0.0166,-0.016,-0.0144,-0.0117,-0.0101,-0.0096,-0.0101,-0.0075,-0.0032,0.0005,0.0043,0.0107,0.0203,0.0315,0.039,0.0395,0.04,0.0454,0.047,0.0315,0.0117,-0.0139,0.0075,0.0262,0.0256,-0.0176,-0.0448,-0.0881,-0.1361,-0.1874,-0.1799,-0.1618,-0.1201,-0.0822,-0.0529,-0.0523,-0.0486,-0.031,0.0379,0.0336,0.0283,0.0224,0.0155,0.0069,-0.0021,-0.0085,-0.0123,-0.0133,-0.0123,-0.0107,-0.0096,-0.0091,-0.0096,-0.0107,-0.0091,-0.0059,-0.0027,0.0011,0.008,0.0187,0.0299,0.0379,0.04,0.04,0.0395,0.0368,0.0278,0.0064,-0.0363,-0.0224,0.0064,0.0294,0.0283,-0.0075,-0.0016,-0.0427,-0.0683,-0.1164,-0.15,-0.1655,-0.1329,-0.0491,-0.0101,-0.0059,0.0043,0.0368,0.032,0.0283,0.0224,0.016,0.0075,0.0005,-0.0037,-0.0053,-0.0053,-0.0053,-0.0053,0,0,0,0,0,-0.0096,-0.0064,-0.0016,0.0064,0.0155,0.024,0.0304,0.0342,0.0352,0.0347,0.031,0.0235,0.0107,0.0016,0.0144,0.0246,0.0182,0.0139,0.0171,0.0224,-0.0027,-0.0112,-0.0374,-0.0817,-0.1276,-0.1207,-0.0529,0.0283,0.0502,0.055,0.0464,0.0422,0.0374,0.0299,0.0214,0.0123,0.0059,0,0,0,0,0,0,0,0,0,0,0,0,0,0,0,0,0.0192,0.0208,0.0235,0.0283,0.0294,0.0235,0.0133,0.0043,0.0155,0.0336,0.032,0.0224,0.0064,0.0155,0.0406,0.0144,-0.0075,-0.0539,-0.0822,-0.0918,-0.0721,0.0262,0.1025,0.1127,0,0,0,0,0,0,0,0,0,0,0,0,0,0,0,0,0,0,0,0,0,0,0,0,0,0,0.0133,0.0192,0.0203,0.0182,0.0117,0.0192,0.0374,0.0358,0.0331,0.024,0.0149,0.0182,0.0336,0.0214,-0.0347,-0.0667,-0.0897,-0.094,-0.0294,0.0507,0.1073,0,0,0,0,0,0,0,0,0,0,0,0,0,0,0,0,0,0,0,0,0,0,0,0,0,0,0,0,0,0.0112,0.0123,0.0203,0.0374,0.04,0.0358,0.0374,0.0347,0.031,0.0342,0.0208,0.0096,-0.0224,-0.0518,-0.0166,-0.0432,-0.0641,0.0016,0,0,0,0,0,0,0,0,0,0,0,0,0,0,0,0,0,0,0,0,0,0,0,0,0,0,0,0,0,0,0,0,0,0.023,0.0288,0.0379,0.0464,0.0475,0.0443,0.0331,0.0117,-0.0224,-0.0256,0.031,0.0497,-0.0262,-0.0411,0,0,0,0,0,0,0,0,0,0,0,0,0,0,0,0,0,0,0,0,0,0,0,0,0,0,0,0,0,0,0,0,0,0,0,0,0,0.0507,0.0507,0.0438,0.0262,0.0005,-0.008,0.0363,0.0828,0.0219,0.0117,0,0,0,0,0,0,0,0,0,0,0,0,0,0,0,0,0,0,0,0,0,0,0,0,0,0,0,0,0,0,0,0,0,0,0,0,0,0,0.0491,0.0475,0.0368,0.0208,0.0144,0.0283,0.0416,0.0331,0.0037,0,0,0,0,0,0,0,0,0,0,0,0,0,0,0,0,0,0,0,0,0,0,0,0,0,0,0,0,0,0,0,0,0,0,0,0,0,0,0,0.0384,0.0358,0.0294,0.0283,0.0384,0.0427,0.0374,0.023,0,0,0,0,0,0,0,0,0,0,0,0,0,0,0,0,0,0,0,0,0,0,0,0,0,0,0,0,0,0,0,0,0,0,0,0,0,0,0,0,0,0,0,0,0.047,0.04,0.0235,0,0,0,0,0,0,0,0,0,0,0,0,0,0,0,0,0,0,0,0,0,0,0,0,0,0,0,0,0,0,0,0,0,0,0,0,0,0,0,0,0,0,0,0,0,0,0,0,0,0,0,0,0,0,0,0,0,0,0,0,0,0,0,0,0,0,0,0,0,0,0,0,0,0,0,0,0,0,0,0,0,0,0,0,0,0,0,0,0,0,0,0,0,0,0,0,0,0,0,0,0,0,0,0,0,0,0,0,0,0,0,0,0,0,0,0,0,0,0,0,0,0,0,0,0,0,0,0,0,0,0,0,0,0,0,0,0,0,0,0,0,0,0,0,0,0,0,0,0,0,0,0,0,0,0,0,0,0,0,0,0,0,0,0,0,0,0,0,0,0,0,0,0,0,0,0,0,0,0,0,0,0,0,0,0,0,0,0,0,0,0,0,0,0,0,0,0,0,0,0,0,0,0,0,0,0,0,0,0,0,0,0,0,0,0,0,0,0,0,0,0,0,0,0,0,0,0,0,0,0,0,0,0,0,0,0,0,0,0,0,0,0,0,0,0,0,0,0,0,0,0,0,0,0,0,0,0,0,0,0,0,0,0,0,0,0,0,0,0,0,0,0,0,0,0,0,0,0,0,0,0,0,0,0,0,0,0,0,0,0,0,0,0,0,0,0,0,0,0,0,0,0,0,0,0,0,0,0,0,0,0,0,0,0,0,0,0,0,0,0,0,0,0,0,0,0,0,0,0,0,0,0,0,0,0,0,0,0,0,0,0,0,0,0,0,0,0,0,0,0,0,0,0,0,0,0,0,0,0,0,0,0,0,0,0,0,0,0,0,0,0,0,0,0,0,0,0,0,0,0,0,0,0,0,0,0,0,0,0,0,0,0,0,0,0,0,0,0,0,0,0,0,0,0,0,0,0,0,0,0,0,0,0,0,0,0,0,0,0,0,0,0,0,0,0,0,0,0,0,0,0,0,0,0,0,0,0,0,0,0,0,0,0,0,0,0,0,0,0,0,0,0,0,0,0,0,0,0,0,0,0,0,0,0,0,0,0,0,0,0,0,0,0,0,0,0,0,0,0,0,0,0,0,0,0,0,0,0,0,0,0,0,0,0,0,0,0,0,0,0,0,0,0,0,0,0,0,0,0,0,0,0,0,0,0,0,0,0,0,0,0,0,0,0,0,0,0,0,0,0,0,0,0,0,0,0,0,0,0,0,0,0,0,0,0,0,0,0,0,0,0,0,0,0,0,0,0,0,0,0,0,0,0,0,0,0,0,0,0,0,0,0,0,0,0,0,0,0,0,0,0,0,0,0,0,0,0,0,0,0,0,0,0,0,0,0,0,0,0,0,0,0,0,0,0,0,0,0,0,0,0,0,0,0,0,0,0,0,0,0,0,0,0,0,0,0,0,0,0,0,0,0,0,0,0,0,0,0,0,0,0,0,0,0,0,0,0,0,0,0,0,0,0,0,0,0,0,0,0,0,0,0,0,0,0,0,0,0,0,0,0,0,0,0,0,0,0,0,0,0,0,0,0,0,0,0,0,0,0,0,0,0,0,0,0,0,0,0,0,0,0,0,0,0,0,0,0,0,0,0,0,0,0,0,0,0,0,0,0,0,0,0,0,0,0,0,0,0,0,0,0,0,0,0,0,0,0,0,0,0,0,0,0,0,0,0,0,0,0,0,0,0,0,0,0,0,0,0,0,0,0,0,0,0,0,0,0,0,0,0,0,0,0,0,0,0,0,0,0,0,0,0,0,0,0,0,0,0,0,0,0,0,0,0,0,0,0,0,0,0,0,0,0,0,0,0,0,0,0,0,0,0,0,0,0,0,0,0,0,0,0,0,0,0,0,0,0,0,0,0,0,0,0,0,0,0,0,0,0,0,0,0,0,0,0,0,0,0,0,0,0,0,0,0,0,0,0,0,0,0,0,0,0,0,0,0,0,0,0,0,0,0,0,0,0,0,0,0,0,0,0,0,0,0,0,0,0,0,0,0,0,0,0]}]]]